[[[{"header":{"parameterUnit":"kt","parameterCategory":2,"dx":1,"dy":1,"la1":29.285339999999998,"la2":30.599998999999997,"lo1":-89.70041500000002,"lo2":-87.6738589999976,"nx":112,"ny":82,"refTime":"2022-09-27T06:00:00:Z","depth":0,"parameterNumber":1,"parameterNumberName":"U-component_of_WINDS"},"data":[16.4391,16.3839,16.3791,16.3916,16.4671,16.5447,16.5724,16.5799,16.5649,0.0,0.0,0.0,0.0,0.0,0.0,0.0,0.0,0.0,0.0,17.2341,0.0,0.0,0.0,0.0,0.0,0.0,0.0,0.0,0.0,0.0,0.0,19.9636,20.0011,19.9034,19.9034,19.8658,19.8057,19.8057,19.8057,19.8057,19.8057,19.8057,19.8057,19.8057,19.9034,20.0613,20.2342,20.3921,20.5651,20.723,20.7982,20.7982,20.7982,20.7982,20.8358,21.1666,21.3621,21.4975,21.7155,21.7907,21.8133,21.8133,21.8133,21.8283,21.8283,21.8283,21.9035,22.196,22.3387,22.4704,22.8006,22.9196,22.959,22.9969,22.992,22.992,22.992,22.992,22.992,22.992,22.992,22.992,22.992,22.992,22.992,22.992,22.992,22.992,22.992,23.0907,23.1514,23.1514,23.2501,23.3261,23.3261,23.2274,23.1514,23.1514,23.0527,22.992,22.992,22.992,23.0527,23.1742,23.2274,23.3868,23.6754,23.7361,23.8348,24.0095,24.0095,24.0095,16.1702,16.1178,16.1162,16.1212,16.2415,16.3643,16.407,0.0,0.0,0.0,0.0,0.0,0.0,0.0,0.0,0.0,0.0,0.0,0.0,0.0,0.0,0.0,0.0,0.0,0.0,0.0,0.0,0.0,20.0387,0.0,19.9861,20.0237,20.0613,20.0613,19.941,19.8884,19.8884,19.8884,19.8658,19.8057,19.8057,19.8057,19.8057,19.8057,19.926,20.1365,20.2568,20.4297,20.6403,20.7606,20.7982,20.7982,20.7982,20.7982,20.8358,21.1666,21.2869,21.3245,21.6779,21.7907,21.7907,21.7907,21.7907,21.7907,21.7907,21.7907,21.8509,22.0238,22.1659,22.3389,22.6089,22.7601,22.8819,22.9789,22.992,22.992,22.992,22.992,22.992,22.992,22.992,22.992,22.992,22.992,22.992,22.992,22.992,22.992,22.992,23.1514,23.2274,23.1742,23.364,23.4779,23.4248,23.364,23.3261,23.3261,23.1742,23.0755,23.0755,23.0375,22.992,22.992,23.1742,23.3261,23.5007,23.6754,23.8348,24.0095,24.0095,24.0095,15.8931,15.6884,15.545,15.9708,15.9558,15.8806,0.0,0.0,16.0385,0.0,0.0,0.0,0.0,0.0,0.0,0.0,0.0,0.0,0.0,0.0,0.0,0.0,0.0,0.0,0.0,19.5124,19.8057,0.0,20.2718,20.4673,20.2944,20.1591,20.2192,20.5275,20.2342,20.0613,20.0613,20.0613,19.9786,19.8057,19.8057,19.8057,19.8057,19.8057,19.9861,20.2944,20.2944,20.4899,20.7982,20.7982,20.7982,20.7982,20.7982,20.7982,20.8358,21.1666,21.2869,21.3245,21.6779,21.7907,21.7907,21.7907,21.7907,21.7907,21.7907,21.8133,21.8659,22.0013,22.0765,22.2186,22.5495,22.6616,22.7421,22.9334,22.992,22.992,22.992,22.992,22.992,22.992,22.992,22.992,22.992,22.992,22.992,22.992,22.992,22.992,22.992,23.1514,23.1894,23.0375,23.3033,23.44,23.2881,23.4248,23.5235,23.5007,23.3489,23.2501,23.2501,23.0907,22.992,22.992,23.1514,23.3261,23.5007,23.6602,23.8348,24.0095,24.0095,24.0095,15.9558,15.7787,0.0,0.0,0.0,0.0,0.0,0.0,0.0,0.0,0.0,0.0,0.0,0.0,0.0,0.0,0.0,17.2233,0.0,17.5465,0.0,0.0,0.0,0.0,0.0,19.6327,19.941,19.8057,20.3696,20.6027,20.317,20.3696,20.3921,20.3696,20.2718,20.1741,20.0613,20.0613,19.9786,19.8057,19.8057,19.8057,19.8057,19.8057,19.9861,20.2944,20.2944,20.4899,20.7982,20.7982,20.7982,20.7982,20.7982,20.7982,20.8207,21.0313,21.1892,21.3245,21.5351,21.693,21.7907,21.7907,21.7907,21.7907,21.7907,21.7907,21.8133,21.8509,21.9486,22.0765,22.2411,22.4725,22.6825,22.785,22.9009,22.992,22.992,22.992,22.992,22.992,22.992,22.992,22.992,22.992,22.992,22.992,22.992,22.992,22.992,23.2501,23.4248,23.364,23.6602,23.85,23.812,23.85,23.812,23.6981,23.5235,23.3868,23.2501,23.2122,23.1135,22.992,23.0375,23.2122,23.5007,23.5387,23.7133,24.0095,24.0095,24.0095,0.0,0.0,0.0,0.0,0.0,0.0,15.5798,0.0,15.8656,0.0,0.0,0.0,0.0,0.0,0.0,0.0,17.2964,17.4488,0.0,0.0,18.0124,18.565,0.0,0.0,19.144,19.7681,20.0989,19.926,20.4673,20.6854,20.4147,20.4297,20.4673,20.5049,20.4297,20.3546,20.2718,20.1966,20.0763,19.9034,19.8432,19.8057,19.8057,19.8057,19.9861,20.2944,20.2944,20.4899,20.7982,20.7982,20.7982,20.7982,20.7982,20.7982,20.8207,20.9937,21.1516,21.302,21.4824,21.6554,21.7907,21.7907,21.7907,21.7907,21.7907,21.7907,21.7907,21.7907,21.8509,21.9637,22.1057,22.3349,22.5684,22.7021,22.8781,22.992,22.992,22.992,22.992,22.992,22.992,22.992,22.992,22.992,22.992,22.992,22.992,22.992,22.992,23.2881,23.4779,23.402,23.7513,23.9867,23.9108,23.9639,23.9639,23.8728,23.7741,23.6374,23.4628,23.3868,23.2653,23.1135,23.1742,23.3033,23.5007,23.5767,23.7133,23.9108,23.9639,24.0095,0.0,0.0,0.0,0.0,15.2189,0.0,0.0,0.0,15.9257,16.1137,0.0,16.5423,17.001,0.0,0.0,17.5499,17.5875,17.61,17.6251,17.8055,18.2191,18.9785,19.0838,19.1665,19.347,19.8884,20.1966,20.1215,20.5275,20.723,20.5876,20.4297,20.4899,20.7982,20.6628,20.5651,20.5501,20.3921,20.2342,20.0613,19.9034,19.8282,19.8057,19.8057,19.9861,20.2718,20.2944,20.4673,20.7756,20.7982,20.7982,20.7982,20.7982,20.7982,20.8207,20.9711,21.129,21.302,21.4599,21.6328,21.7907,21.7907,21.7907,21.7907,21.7907,21.7907,21.7907,21.7907,21.7907,21.8509,22.0456,22.2594,22.4518,22.6665,22.8624,22.992,22.992,22.992,22.992,22.992,22.992,22.992,22.992,22.992,22.992,22.992,22.992,22.992,22.992,23.2881,23.44,23.2881,23.7133,23.9487,23.7893,23.9259,24.0095,24.0095,24.0095,23.9487,23.7893,23.6146,23.44,23.2881,23.4248,23.5007,23.5007,23.6754,23.7741,23.7893,23.9259,24.0095,0.0,0.0,0.0,0.0,0.0,15.437,0.0,0.0,0.0,16.422,16.625,16.813,17.0461,17.2266,17.392,17.5499,17.6817,17.8113,17.9634,18.3544,18.7379,19.0312,19.1816,19.3771,19.6703,19.8282,20.0613,20.4297,20.5501,20.6403,20.738,20.723,20.738,20.7982,20.7606,20.6854,20.5501,20.5049,20.3546,20.0613,20.0237,19.941,19.8057,19.8057,19.926,20.1215,20.2342,20.4072,20.6027,20.738,20.7982,20.7982,20.7982,20.7982,20.7982,20.8358,21.0313,21.2869,21.3245,21.5351,21.7907,21.7907,21.7907,21.7907,21.7907,21.7907,21.7907,21.7907,21.7907,21.8133,21.8885,22.1411,22.4102,22.4936,22.7633,22.992,22.992,22.992,22.992,22.992,22.992,22.992,22.992,22.992,22.992,22.992,22.992,22.992,22.992,23.2881,23.4779,23.4628,23.7893,23.9867,23.9639,23.9867,24.0095,24.0095,24.0095,23.9867,23.9639,23.7893,23.6146,23.4628,23.4779,23.5007,23.5007,23.6754,23.8348,23.9639,23.9867,24.0095,0.0,0.0,0.0,14.9708,0.0,0.0,0.0,16.0385,16.3167,16.6401,16.8431,17.0386,17.2867,17.5348,17.7604,17.9183,18.0105,18.1834,18.5274,18.9259,19.2492,19.4222,19.5726,19.7906,20.0237,20.0613,20.1966,20.5275,20.5501,20.5876,20.6628,20.6628,20.7004,20.7982,20.7982,20.7606,20.6854,20.5876,20.4673,20.2944,20.2192,20.0989,19.941,19.941,19.9861,20.0613,20.2342,20.3921,20.5651,20.723,20.7982,20.7982,20.7982,20.7982,20.7982,20.7982,21.0087,21.2869,21.2869,21.4975,21.7907,21.7907,21.7907,21.7907,21.7907,21.7907,21.7907,21.7907,21.7907,21.7907,21.8283,22.0971,22.3723,22.4339,22.7202,22.9777,22.9982,22.992,22.992,22.992,22.992,22.992,22.992,22.992,22.992,22.992,22.992,22.992,22.992,23.2881,23.5007,23.5007,23.812,24.0095,24.0095,24.0095,24.0095,24.0095,24.0095,24.0095,24.0095,23.9259,23.8348,23.7513,23.6754,23.6374,23.6374,23.7893,23.888,23.888,23.9639,24.0095,14.5838,14.65,0.0,0.0,0.0,0.0,15.8957,16.1739,16.4822,16.813,16.9935,17.189,17.5123,17.8206,18.0988,18.3244,18.3845,18.5951,19.1364,19.4372,19.6703,19.8884,20.0237,20.1741,20.332,20.3546,20.4147,20.5876,20.6027,20.6027,20.6027,20.6027,20.6628,20.7982,20.7982,20.7982,20.7982,20.6628,20.5876,20.5501,20.4147,20.2568,20.0989,20.0763,20.0613,20.0613,20.2342,20.3696,20.5049,20.723,20.7982,20.7982,20.7982,20.7982,20.7982,20.7982,21.0087,21.2869,21.2869,21.4975,21.7907,21.7907,21.7907,21.7907,21.7907,21.7907,21.7907,21.7907,21.7907,21.7907,21.8283,22.0614,22.3163,22.4141,22.6623,22.9196,22.98,22.992,22.992,22.992,22.992,22.992,22.992,22.992,22.992,22.992,22.992,22.992,22.992,23.2881,23.5007,23.5007,23.812,24.0095,24.0095,24.0095,24.0095,24.0095,24.0095,24.0095,24.0095,24.0095,24.0095,24.0095,23.8728,23.7893,23.7513,23.9259,23.9259,23.812,23.9487,24.0095,14.1954,14.556,14.9332,15.0685,15.4595,0.0,16.219,16.4295,16.6476,16.9935,17.0762,17.189,17.5123,17.7228,18.001,18.4597,18.6627,18.9861,19.6327,19.7455,19.8884,20.1966,20.2568,20.332,20.5049,20.5275,20.5876,20.7606,20.7756,20.7756,20.7756,20.7756,20.7756,20.7982,20.7982,20.7982,20.7982,20.7756,20.7004,20.5501,20.5275,20.4297,20.2568,20.1215,20.0613,20.0613,20.2342,20.317,20.3546,20.6628,20.7982,20.7982,20.7982,20.7982,20.7982,20.7982,21.0087,21.2869,21.2869,21.4975,21.7907,21.7907,21.7907,21.7907,21.7907,21.7907,21.7907,21.7907,21.7907,21.7907,21.7907,21.9411,22.1659,22.3539,22.5646,22.7874,22.9572,22.992,22.992,22.992,22.992,22.992,22.992,22.992,22.992,22.992,22.992,22.992,22.992,23.2881,23.5007,23.5007,23.812,24.0095,24.0095,24.0095,24.0095,24.0095,24.0095,24.0095,24.0095,24.0095,24.0095,24.0095,23.9867,23.9108,23.7513,23.9259,24.0095,23.9867,24.0095,24.0095,14.112,14.3899,14.7151,15.1437,0.0,0.0,16.3844,16.6852,16.9709,17.3017,17.4521,17.6176,17.9409,18.2191,18.5048,18.8056,19.0763,19.4146,19.8884,19.9636,20.0763,20.4072,20.4523,20.5049,20.6854,20.7004,20.723,20.7982,20.7004,20.7004,20.7982,20.7982,20.7982,20.7982,20.7982,20.7982,20.7982,20.7982,20.7606,20.7004,20.7004,20.6027,20.4297,20.2718,20.1365,20.0613,20.2342,20.2944,20.317,20.6628,20.7982,20.7982,20.7982,20.7982,20.7982,20.7982,20.9561,21.1666,21.2493,21.4373,21.6554,21.7531,21.7907,21.7907,21.7907,21.7907,21.7907,21.7907,21.7907,21.7907,21.7907,21.9261,22.1141,22.3389,22.5292,22.7243,22.9596,22.992,22.992,22.992,22.992,22.992,22.992,22.992,22.992,22.992,22.992,22.992,22.992,23.2122,23.3868,23.4779,23.7133,23.888,24.0095,24.0095,24.0095,24.0095,24.0095,24.0095,24.0095,24.0095,24.0095,24.0095,24.0095,23.9639,23.9108,23.9639,24.0095,24.0095,24.0095,24.0095,14.0896,0.0,0.0,0.0,0.0,0.0,16.4897,16.8431,17.1514,17.392,17.6476,17.9258,18.2492,18.5875,18.9184,19.2267,19.4748,19.7455,20.0763,20.1215,20.2568,20.5876,20.6252,20.6628,20.7756,20.7606,20.738,20.7982,20.6027,20.5651,20.7756,20.7606,20.7606,20.7982,20.7982,20.7982,20.7982,20.7982,20.7982,20.7982,20.7982,20.738,20.6027,20.3921,20.2342,20.1365,20.2342,20.2944,20.317,20.6628,20.7982,20.7982,20.7982,20.7982,20.7982,20.7982,20.911,21.0689,21.2268,21.3997,21.5576,21.7306,21.7907,21.7907,21.7907,21.7907,21.7907,21.7907,21.7907,21.7907,21.7907,21.8885,22.0389,22.3314,22.491,22.6469,22.938,22.992,22.992,22.992,22.992,22.992,22.992,22.992,22.992,22.992,22.992,22.992,22.992,23.1894,23.364,23.4779,23.6981,23.8728,23.9867,24.0095,24.0095,24.0095,24.0095,24.0095,24.0095,24.0095,24.0095,24.0095,24.0095,24.0095,24.0095,24.0095,24.0095,24.0095,24.0095,24.0095,0.0,0.0,0.0,15.5047,15.9633,16.3769,16.5423,16.8431,17.0912,17.0987,17.4897,17.9258,18.2492,18.5875,19.0312,19.6703,19.7906,19.9034,20.2342,20.2944,20.4072,20.7606,20.7982,20.7982,20.7982,20.6403,20.6252,20.7756,20.4899,20.4523,20.7756,20.6403,20.6252,20.7982,20.7982,20.7982,20.7982,20.7982,20.7982,20.7982,20.7982,20.7982,20.7756,20.4523,20.2944,20.2944,20.2944,20.2944,20.317,20.6628,20.7982,20.7982,20.7982,20.7982,20.7982,20.7982,20.911,21.0689,21.2268,21.3997,21.5576,21.7306,21.7907,21.7907,21.7907,21.7907,21.7907,21.7907,21.7907,21.7907,21.7907,21.7907,21.9035,22.2938,22.3878,22.5077,22.9152,22.992,22.992,22.992,22.992,22.992,22.992,22.992,22.992,22.992,22.992,22.992,22.992,23.2881,23.5007,23.5007,23.7893,24.0095,24.0095,24.0095,24.0095,24.0095,24.0095,24.0095,24.0095,24.0095,24.0095,24.0095,24.0095,24.0095,24.0095,24.0095,24.0095,24.0095,24.0095,24.0095,14.553,14.9708,15.4144,15.9558,16.3017,16.6025,16.9935,17.2566,17.4747,17.7003,17.9559,18.2868,18.7304,18.9936,19.2492,19.5951,19.7305,19.8884,20.0989,20.2342,20.3696,20.6027,20.723,20.7606,20.6403,20.5876,20.5275,20.4673,20.3546,20.3546,20.4523,20.5049,20.5651,20.6252,20.738,20.7982,20.7982,20.7982,20.7982,20.7982,20.7982,20.7982,20.7756,20.4523,20.2944,20.2944,20.2944,20.2944,20.317,20.6628,20.7982,20.7982,20.7982,20.7982,20.7982,20.7982,20.8358,20.9185,21.1892,21.3245,21.4223,21.693,21.7907,21.7907,21.7907,21.7907,21.7907,21.7907,21.7907,21.7907,21.7907,21.7907,21.8885,22.2938,22.3878,22.5083,22.9152,22.9929,22.992,22.992,22.992,22.992,22.992,22.992,22.992,22.992,22.992,22.992,22.992,23.1894,23.3868,23.4779,23.6981,23.888,24.0095,24.0095,24.0095,24.0095,24.0095,24.0095,24.0095,24.0095,24.0095,24.0095,24.0095,24.0095,24.0095,24.0095,24.0095,24.0095,24.0095,24.0095,14.9518,15.2264,15.5122,16.1814,16.5122,16.7754,17.1589,17.4597,17.7228,17.9409,18.1589,18.4447,18.8958,19.159,19.362,19.535,19.6929,19.8658,20.0387,20.1966,20.332,20.4523,20.6027,20.6403,20.4673,20.4072,20.3546,20.2944,20.1741,20.1741,20.2944,20.3921,20.4899,20.5501,20.7004,20.7982,20.7982,20.7982,20.7982,20.7982,20.7982,20.7606,20.7004,20.4297,20.2568,20.2192,20.2718,20.2944,20.317,20.6628,20.7982,20.7982,20.7982,20.7982,20.7982,20.7982,20.7982,20.8358,21.1065,21.2493,21.3245,21.6178,21.7306,21.7907,21.7907,21.7907,21.7907,21.7907,21.7907,21.7907,21.7907,21.7907,21.8509,22.1208,22.2728,22.486,22.879,22.9806,22.992,22.992,22.992,22.992,22.992,22.992,22.992,22.992,22.992,22.992,22.992,23.1894,23.3868,23.4779,23.7133,23.888,24.0095,24.0095,24.0095,24.0095,24.0095,24.0095,24.0095,24.0095,24.0095,24.0095,24.0095,24.0095,24.0095,24.0095,24.0095,24.0095,24.0095,24.0095,15.2413,15.4219,15.5723,16.2115,16.6175,16.9032,17.0762,17.4897,17.8431,17.8507,18.0988,18.4221,18.753,19.0913,19.362,19.5124,19.6929,19.8658,20.0237,20.1741,20.2718,20.2718,20.4297,20.4523,20.2944,20.1365,20.1215,20.2568,19.9861,19.941,20.2568,20.2718,20.3546,20.5125,20.6854,20.7756,20.7756,20.7756,20.7982,20.7982,20.7982,20.7004,20.5501,20.3696,20.1966,20.0613,20.2192,20.2944,20.317,20.6403,20.7982,20.7982,20.7982,20.7982,20.7982,20.7982,20.7982,20.8207,20.9937,21.1516,21.302,21.4824,21.6554,21.7907,21.7907,21.7907,21.7907,21.7907,21.7907,21.7907,21.7907,21.7907,21.7907,21.7907,22.0614,22.4367,22.8209,22.9546,22.9919,22.992,22.992,22.9919,22.9991,22.9919,22.992,22.992,22.992,22.992,22.992,23.2881,23.5007,23.5007,23.812,24.0095,24.0095,24.0095,24.0095,24.0095,24.0095,24.0095,24.0095,24.0095,24.0095,24.0095,24.0095,24.0095,23.9867,24.0095,24.0095,23.9867,24.0095,24.0095,15.3273,15.9332,16.3393,16.6401,16.9634,17.2491,17.4145,17.7454,18.0461,18.1589,18.3544,18.565,18.7755,19.1891,19.4598,19.3771,19.6101,19.8282,19.8658,19.9034,19.9861,20.0989,20.1591,20.1591,20.1215,20.0763,20.0237,19.941,19.8432,19.8432,19.926,20.0613,20.1365,20.1741,20.332,20.4899,20.6027,20.6027,20.6854,20.7982,20.6628,20.5876,20.5501,20.2568,20.0237,19.8884,20.0387,20.1741,20.317,20.5275,20.6854,20.7982,20.7982,20.7982,20.7982,20.7982,20.7982,20.8207,20.9937,21.1516,21.302,21.4824,21.6554,21.7907,21.7907,21.7907,21.7907,21.7907,21.7907,21.7907,21.7907,21.7907,21.7907,21.7907,22.0614,22.3765,22.5051,22.7246,22.9191,22.9383,22.9768,22.9941,22.956,22.9754,22.992,22.992,22.992,22.992,22.992,23.2881,23.5007,23.5007,23.812,24.0095,24.0095,24.0095,24.0095,24.0095,24.0095,24.0095,24.0095,24.0095,24.0095,24.0095,24.0095,23.9487,23.812,23.9487,23.9487,23.812,23.9487,24.0095,15.2465,15.845,16.3468,16.7378,17.0912,17.3769,17.5348,17.8882,18.2041,18.2943,18.565,18.8131,18.9109,19.2718,19.4974,19.3319,19.5951,19.7455,19.6101,19.7079,19.7906,19.7305,19.8658,19.926,19.8432,19.9034,19.9034,19.8057,19.8057,19.8057,19.8057,19.9636,20.0613,20.0613,20.2192,20.332,20.4297,20.5049,20.5876,20.6854,20.5876,20.5049,20.4297,20.1741,19.9636,19.8057,19.9861,20.1591,20.317,20.4673,20.6403,20.7982,20.7982,20.7982,20.7982,20.7982,20.7982,20.8207,20.9185,21.0538,21.2042,21.3847,21.5351,21.693,21.7757,21.7907,21.7907,21.7907,21.7907,21.7907,21.7907,21.7907,21.7907,21.7907,22.0614,22.3096,22.3547,22.6441,22.8742,22.8984,22.9352,22.9362,22.9383,22.9542,22.9731,22.9763,22.9768,22.9991,23.051,23.2848,23.4822,23.5581,23.7933,23.9451,23.9451,23.9451,23.9451,23.9451,23.9641,23.9874,23.9874,24.0102,24.004,24.0095,24.0095,23.9639,23.8728,23.9639,23.9487,23.8728,23.9639,24.0095,15.1519,15.5413,16.0009,16.6401,17.0686,17.3769,17.5348,17.9559,18.3093,18.3093,18.7003,19.0387,19.0387,19.3169,19.4974,19.3319,19.5726,19.6703,19.3771,19.5575,19.6101,19.3395,19.5575,19.6929,19.5726,19.7079,19.8057,19.8057,19.8057,19.8057,19.8057,19.941,20.0237,20.0237,20.1591,20.2342,20.2568,20.4147,20.4899,20.5049,20.5049,20.4297,20.2568,20.0989,19.941,19.8057,19.9636,20.1215,20.317,20.4523,20.6252,20.7982,20.7982,20.7982,20.7982,20.7982,20.7982,20.7982,20.7982,20.9185,21.0689,21.2268,21.3997,21.5802,21.7306,21.7907,21.7907,21.7907,21.7907,21.7907,21.7907,21.7907,21.7907,21.7907,22.0464,22.272,22.3096,22.6028,22.8835,22.8818,22.88,22.881,22.9186,22.9392,22.9392,22.9334,22.9589,22.9948,23.1142,23.3072,23.4813,23.6134,23.7916,23.89,23.89,23.89,23.89,23.89,23.926,23.9487,23.9487,23.9936,24.0095,24.0048,24.0089,23.9867,23.9487,23.9867,23.9867,23.9487,23.9867,24.0095,15.4283,15.7275,15.996,16.4972,16.9859,17.3769,17.5348,17.9559,18.3093,18.3093,18.6026,18.8582,18.8582,19.2417,19.4974,19.3319,19.4748,19.5726,19.5124,19.3319,19.2267,19.2943,19.3545,19.4297,19.535,19.7079,19.8057,19.8057,19.8057,19.8057,19.8057,19.8282,19.8432,19.8432,19.8884,19.9636,20.0989,20.1365,20.2192,20.332,20.332,20.2568,20.0989,19.926,19.8282,19.8057,19.8432,20.0237,20.2944,20.332,20.5275,20.7982,20.7982,20.7982,20.7982,20.7982,20.7982,20.7982,20.7982,20.9185,21.0689,21.2268,21.3997,21.5802,21.7306,21.7907,21.7907,21.7907,21.7907,21.7907,21.7907,21.7907,21.7907,21.7907,22.0464,22.2795,22.2795,22.5878,22.8428,22.8394,22.8414,22.8585,22.881,22.8985,22.8947,22.899,23.0135,23.1116,23.1309,23.4032,23.6,23.6376,23.7882,23.8928,23.8928,23.8928,23.8928,23.8928,23.888,23.9036,23.9487,23.9487,23.9697,23.9698,23.9834,23.8728,23.5994,23.8728,23.8728,23.5994,23.8728,24.0095,15.2673,15.5777,15.8456,16.234,16.8356,17.3769,17.5348,17.8958,18.2116,18.2943,18.58,18.8432,18.9334,19.2116,19.3996,19.3169,19.3695,19.3921,19.3169,19.1665,19.0612,19.0537,19.1966,19.3319,19.4146,19.6553,19.8057,19.8057,19.8057,19.8057,19.8057,19.8057,19.8057,19.8057,19.8057,19.8432,19.926,20.0237,20.0989,20.1741,20.2568,20.2192,20.0613,19.8884,19.8057,19.8057,19.8057,19.941,20.1741,20.2568,20.4523,20.6854,20.7606,20.7982,20.7982,20.7982,20.7982,20.7982,20.7982,20.8583,20.9561,21.1065,21.2644,21.4373,21.6178,21.7155,21.7907,21.7907,21.7907,21.7907,21.7907,21.7907,21.7907,21.7907,22.0464,22.2795,22.2795,22.5652,22.8434,22.8209,22.8209,22.8434,22.8209,22.8417,22.8607,22.8607,22.9953,23.1362,23.1893,23.4224,23.6179,23.7006,23.7758,23.8284,23.8284,23.8284,23.8284,23.8284,23.851,23.866,23.8886,23.9036,23.9262,23.9487,23.9894,23.888,23.6374,23.7893,23.7513,23.5007,23.7513,23.8728,15.1573,15.5018,15.793,16.0761,16.6626,17.2416,17.5123,17.8055,18.0687,18.2266,18.4973,18.7605,18.9259,19.1214,19.2492,19.2492,19.2492,19.2116,19.0838,19.0387,18.9635,18.8281,19.1064,19.3019,19.3019,19.6101,19.8057,19.8057,19.8057,19.8057,19.8057,19.8057,19.8057,19.8057,19.8057,19.8057,19.8057,19.941,20.0011,20.0011,20.1365,20.1215,20.0011,19.8658,19.8057,19.807,19.8057,19.9034,20.0763,20.2342,20.3921,20.5651,20.738,20.7982,20.7982,20.7982,20.7982,20.7982,20.7982,20.7982,20.8207,20.9937,21.129,21.2644,21.4824,21.6328,21.7531,21.769,21.7915,21.7915,21.7915,21.7915,21.7915,21.7907,22.0464,22.2795,22.2795,22.5652,22.8209,22.7833,22.7983,22.8209,22.7833,22.7983,22.8434,22.881,23.054,23.1893,23.2645,23.445,23.6179,23.7532,23.7758,23.7758,23.7758,23.7758,23.7758,23.7758,23.7908,23.8284,23.8284,23.866,23.888,23.8919,23.9259,23.8728,23.6981,23.6981,23.6374,23.5007,23.6754,23.7513,15.4876,15.8281,16.0987,16.2791,16.4897,16.813,17.4296,17.7153,17.8958,18.0612,18.2341,18.4071,18.58,18.8733,19.0913,19.0913,19.0913,19.0838,19.0688,18.9334,18.8357,18.8206,19.1064,19.3019,19.3019,19.6101,19.8057,19.8057,19.8057,19.8057,19.8057,19.8057,19.8057,19.8057,19.8057,19.8057,19.8057,19.8282,19.8282,19.8282,19.8432,19.8432,19.8282,19.8057,19.792,19.7656,19.792,19.9034,20.0763,20.2342,20.3921,20.5651,20.738,20.7982,20.7982,20.7982,20.7982,20.7982,20.7982,20.7982,20.8207,20.9937,21.0538,21.129,21.4373,21.5576,21.5961,21.7101,21.7482,21.7482,21.7482,21.7482,21.7552,21.7915,22.0464,22.2795,22.2795,22.5502,22.7833,22.7833,22.7833,22.7833,22.7833,22.7833,22.8434,22.9788,23.2645,23.4224,23.2871,23.5577,23.7532,23.7758,23.7758,23.7758,23.7758,23.7758,23.7758,23.7758,23.7758,23.7908,23.8284,23.866,23.8142,23.6781,23.7356,23.6981,23.5235,23.5235,23.5235,23.5007,23.6754,23.7513,15.2491,15.5996,15.8731,16.0084,16.2415,16.5874,17.1514,17.4145,17.6326,18.001,18.1289,18.2492,18.5123,18.6778,18.8281,19.0387,18.9861,18.956,19.0537,18.9259,18.8131,18.8131,19.1064,19.3019,19.3019,19.6101,19.8057,19.8057,19.8057,19.8057,19.8057,19.8057,19.8057,19.8057,19.8057,19.8057,19.8057,19.8057,19.8057,19.8057,19.8057,19.807,19.7933,19.7731,19.7666,19.7656,19.787,19.8296,19.926,20.1966,20.332,20.4297,20.7004,20.7982,20.7982,20.7982,20.7982,20.7982,20.7982,20.7982,20.8207,20.8734,20.9711,21.0689,21.2042,21.363,21.5148,21.5754,21.6734,21.7338,21.7557,21.7482,21.7552,21.7915,22.0464,22.2795,22.2795,22.5502,22.7833,22.7833,22.7833,22.7833,22.7833,22.7833,22.7983,22.8585,22.9938,23.0916,23.1141,23.4976,23.7382,23.6405,23.7156,23.7758,23.7758,23.7758,23.7758,23.7758,23.7758,23.7758,23.7908,23.8284,23.7903,23.6368,23.6967,23.6373,23.5007,23.5007,23.44,23.364,23.6146,23.6981,15.0648,15.3871,15.6427,15.8731,16.1062,16.3994,16.8957,17.1062,17.3318,17.8281,18.0086,18.1514,18.377,18.4973,18.6402,18.8808,18.8582,18.8582,18.9785,18.8958,18.8357,18.8808,19.1364,19.3244,19.3695,19.6327,19.8057,19.8057,19.8057,19.8057,19.8057,19.8057,19.8057,19.8057,19.807,19.807,19.8057,19.7858,19.7858,19.8057,19.7858,19.7881,19.7525,19.7466,19.7458,19.7666,19.7731,19.7933,19.8282,20.0613,20.2192,20.332,20.6628,20.7982,20.7982,20.7982,20.7982,20.7982,20.7982,20.7982,20.7982,20.7982,20.8809,20.9722,21.0313,21.2286,21.4257,21.4783,21.5989,21.7264,21.7338,21.756,21.7557,21.7696,22.0396,22.2795,22.2795,22.5502,22.7833,22.7833,22.7833,22.7833,22.7833,22.7833,22.7983,22.8434,22.8209,22.8585,23.054,23.3622,23.5427,23.5201,23.6781,23.7758,23.7758,23.7758,23.7758,23.7758,23.7758,23.7758,23.7758,23.8134,23.7336,23.5382,23.598,23.5573,23.4047,23.362,23.3033,23.2501,23.5387,23.6146,15.0844,15.3071,15.5197,16.0084,16.1137,16.2265,16.7228,16.8356,16.9784,17.4747,17.8431,18.0762,18.0837,18.3469,18.565,18.565,18.7078,18.8131,18.8206,18.8206,18.8808,19.0462,19.2116,19.3695,19.535,19.7079,19.8057,19.8057,19.8057,19.8057,19.8057,19.8057,19.8057,19.8057,19.787,19.787,19.8057,19.7741,19.7741,19.8057,19.7741,19.7547,19.726,19.7547,19.7466,19.7466,19.7666,19.7933,19.8057,19.8057,20.0011,20.332,20.6628,20.7982,20.7982,20.7982,20.7982,20.7982,20.7982,20.7982,20.7982,20.7982,20.7777,20.7944,20.9947,21.1248,21.269,21.4415,21.5763,21.696,21.7264,21.734,21.7339,21.7485,22.0251,22.2795,22.2795,22.5502,22.7833,22.7833,22.7833,22.7833,22.7833,22.7833,22.8434,22.9938,22.881,22.8961,23.2269,23.1291,23.1517,23.4826,23.6781,23.7758,23.7758,23.7758,23.7758,23.7758,23.7758,23.7758,23.7758,23.8134,23.6781,23.3246,23.4001,23.3622,23.1958,23.0513,23.0907,23.2501,23.4248,23.5007,14.9516,15.2047,15.4508,15.7021,15.843,16.0235,16.4145,16.6777,16.9107,17.1814,17.5048,17.8055,18.0386,18.1589,18.3018,18.5274,18.6101,18.6853,18.7981,18.8131,18.8808,19.0462,19.2116,19.3695,19.535,19.7079,19.8057,19.8057,19.8057,19.8057,19.8057,19.8057,19.807,19.787,19.7656,19.7731,19.7741,19.7533,19.7533,19.7675,19.7332,19.7113,19.7335,19.7113,19.7113,19.7257,19.7466,19.7666,19.787,19.807,19.941,20.1591,20.4899,20.7004,20.7982,20.7982,20.7982,20.7982,20.7982,20.7982,20.7982,20.7777,20.7636,20.7794,20.8176,20.9315,21.0742,21.2465,21.3957,21.5224,21.5387,21.6136,21.7112,21.7485,22.0031,22.2581,22.2795,22.5502,22.7833,22.7833,22.7833,22.7833,22.7833,22.7833,22.7983,22.8434,22.8209,22.8585,23.069,23.054,23.1517,23.4826,23.6781,23.7307,23.6179,23.7156,23.7758,23.7758,23.7758,23.7758,23.7758,23.7908,23.6555,23.3625,23.3848,23.3459,23.228,23.1867,23.1894,23.2501,23.4248,23.44,14.7887,15.02,15.2697,15.5412,15.6325,15.7603,16.1588,16.4596,16.7152,16.9483,17.204,17.4897,17.8281,17.9935,18.1665,18.4221,18.5199,18.6251,18.7906,18.8131,18.9033,19.1289,19.2417,19.3921,19.6327,19.7455,19.8057,19.8057,19.8057,19.8057,19.8057,19.8057,19.792,19.7656,19.7666,19.7525,19.7466,19.7327,19.7332,19.7332,19.704,19.6965,19.7114,19.6965,19.7115,19.7335,19.7327,19.7466,19.7741,19.787,19.8835,20.0852,20.3546,20.5876,20.7982,20.7982,20.7982,20.7982,20.7982,20.7993,20.7777,20.7569,20.7356,20.7436,20.7365,20.8344,20.9764,21.0663,21.268,21.4163,21.4401,21.5154,21.6136,21.7114,22.0038,22.2588,22.2726,22.5282,22.7612,22.7833,22.7833,22.7833,22.7833,22.7833,22.7833,22.7833,22.7833,22.8209,22.9186,22.9788,23.0916,23.3096,23.5427,23.6555,23.6179,23.7156,23.7758,23.7758,23.7156,23.7156,23.7758,23.7156,23.5803,23.34,23.3105,23.2266,23.1131,23.1354,23.1514,23.1514,23.3261,23.3489,14.6097,14.7798,14.9829,15.4839,15.4943,15.4971,15.9859,16.219,16.422,16.7453,16.9483,17.1664,17.4822,17.8131,18.0988,18.2642,18.4372,18.6026,18.7755,18.8056,18.9334,19.2643,19.3019,19.4372,19.7681,19.8057,19.8057,19.8057,19.8057,19.8057,19.8057,19.8057,19.792,19.7731,19.7458,19.7541,19.7472,19.7114,19.689,19.689,19.689,19.689,19.689,19.689,19.7115,19.7335,19.7335,19.7257,19.7466,19.7741,19.8707,20.0209,20.2205,20.4899,20.7606,20.7982,20.7982,20.7982,20.7982,20.7777,20.7644,20.7576,20.744,20.7071,20.7218,20.8194,20.9153,20.954,21.1707,21.3789,21.3789,21.4251,21.4784,21.6739,21.9664,22.2141,22.2576,22.5136,22.7468,22.7762,22.7833,22.7833,22.7833,22.7833,22.7833,22.7833,22.7833,22.7833,22.7833,22.9186,23.0164,23.0164,23.3096,23.5577,23.7156,23.7382,23.7382,23.7382,23.5953,23.5803,23.7382,23.5803,23.4224,23.2495,23.1733,23.0575,22.8833,22.9585,22.9991,22.992,23.1514,23.2274,14.4361,14.5798,14.7903,15.2941,15.4746,15.6325,16.0084,16.1287,16.2491,16.5724,16.7754,16.9559,17.1664,17.4672,17.7905,18.0837,18.2642,18.4296,18.5951,18.7379,18.9334,19.2643,19.3019,19.4372,19.7681,19.8057,19.8057,19.8057,19.8057,19.8057,19.8057,19.7858,19.7731,19.7458,19.7477,19.7335,19.7114,19.689,19.689,19.689,19.689,19.689,19.689,19.689,19.689,19.7115,19.7262,19.726,19.7332,19.7541,19.79,19.8632,20.1626,20.3344,20.4523,20.7004,20.7842,20.7636,20.7636,20.7576,20.7436,20.7218,20.6996,20.7071,20.6992,20.7213,20.7583,20.9009,20.9901,21.0499,21.0499,21.2219,21.4401,21.4934,21.7709,22.056,22.2213,22.409,22.589,22.7386,22.7833,22.7833,22.7833,22.7833,22.7833,22.7833,22.7833,22.7833,22.7833,22.9186,23.0164,23.0164,23.2119,23.3472,23.3848,23.3848,23.3848,23.3848,23.3472,23.3472,23.3848,23.3472,23.2645,23.1141,23.0955,23.0392,22.9186,22.9404,22.9587,22.992,23.0375,23.0527,14.3794,14.5647,14.8204,15.249,15.4219,15.5723,15.9032,16.0385,16.1438,16.3167,16.5498,16.7679,16.9408,17.1814,17.4597,17.7905,18.1063,18.3695,18.5424,18.7078,18.9109,19.1471,19.2508,19.4011,19.6505,19.7469,19.8057,19.8057,19.8057,19.8057,19.8057,19.7933,19.7741,19.7466,19.7257,19.7113,19.689,19.689,19.689,19.689,19.689,19.689,19.689,19.689,19.689,19.689,19.704,19.7114,19.7114,19.7332,19.7472,19.7841,20.1202,20.2762,20.3344,20.665,20.7777,20.7852,20.7569,20.7361,20.722,20.7071,20.6994,20.6843,20.6835,20.6835,20.7059,20.8032,20.8181,20.8405,20.9153,21.1097,21.3273,21.4181,21.6951,21.9652,22.1015,22.3116,22.5068,22.6263,22.7236,22.7833,22.7833,22.7833,22.7833,22.7833,22.7833,22.7833,22.7833,22.9186,23.0164,23.0164,23.1667,23.2645,23.2645,23.2645,23.2645,23.2645,23.1893,23.1893,23.2645,23.1893,23.1141,23.054,22.9938,22.9562,22.9186,22.9336,22.956,22.992,22.992,22.992,14.3794,14.6324,14.9332,15.2716,15.3543,15.4445,15.7678,15.9558,16.0611,16.0912,16.3167,16.5649,16.7604,16.9333,17.1589,17.4822,17.9108,18.2717,18.4898,18.6702,18.8374,19.0133,19.1982,19.3636,19.5166,19.7093,19.8057,19.8057,19.8057,19.8057,19.8132,19.787,19.7675,19.7472,19.7332,19.7114,19.689,19.689,19.689,19.689,19.689,19.689,19.689,19.689,19.689,19.689,19.689,19.689,19.689,19.7114,19.7335,19.7709,20.0925,20.256,20.3071,20.645,20.7786,20.7777,20.7644,20.7143,20.6994,20.6994,20.6843,20.6835,20.6835,20.6835,20.6835,20.6835,20.6835,20.7209,20.8555,21.0125,21.1702,21.3657,21.634,21.8883,21.9436,22.2137,22.4689,22.4842,22.6488,22.7762,22.7833,22.7833,22.7833,22.7833,22.7833,22.7833,22.7833,22.8961,22.9788,22.9788,23.1291,23.2269,23.1893,23.2119,23.2119,23.1893,23.054,23.0314,23.1893,23.054,22.9788,22.9788,22.881,22.8434,22.881,22.8961,22.9417,22.9941,22.9941,22.9976,14.3754,14.6279,14.9332,15.2716,15.3543,15.4445,15.7678,15.8656,15.9257,16.0686,16.1363,16.2641,16.5649,16.7604,16.9859,17.3168,17.5499,17.8431,18.2868,18.4973,18.7154,19.0253,19.2041,19.3695,19.535,19.7079,19.8057,19.8057,19.8057,19.807,19.772,19.7675,19.7472,19.7332,19.7114,19.689,19.689,19.689,19.689,19.689,19.689,19.689,19.689,19.689,19.689,19.689,19.689,19.689,19.689,19.689,19.7114,19.7709,20.093,20.2348,20.2785,20.6236,20.7436,20.7436,20.722,20.6994,20.676,20.676,20.6835,20.6835,20.6835,20.6835,20.6835,20.6835,20.6835,20.6835,20.7209,20.8405,21.0125,21.1621,21.4612,21.7537,21.9053,22.2054,22.4532,22.4917,22.6268,22.7618,22.7833,22.7833,22.7833,22.7833,22.7833,22.7833,22.7833,22.7983,22.8209,22.8209,22.9562,22.9938,22.8585,22.9788,22.9938,22.8585,22.8434,22.8209,22.8585,22.8434,22.8209,22.8209,22.7983,22.7983,22.8434,22.8585,22.879,22.9382,22.9382,22.9553,14.4958,14.6926,14.9106,15.1588,15.2866,15.4219,15.655,15.7753,15.8656,15.9408,16.031,16.1663,16.407,16.5874,16.8055,17.1438,17.3393,17.5875,17.9935,18.3413,18.6376,18.8719,19.1273,19.315,19.3901,19.6293,19.7858,19.8057,19.792,19.787,19.7656,19.7466,19.7257,19.7335,19.7115,19.689,19.689,19.689,19.689,19.689,19.689,19.689,19.689,19.689,19.689,19.689,19.689,19.689,19.689,19.689,19.6965,19.7488,20.0781,20.2203,20.2723,20.6021,20.7218,20.744,20.6996,20.6994,20.6843,20.676,20.6835,20.6835,20.6835,20.6835,20.6835,20.6835,20.6835,20.6835,20.6835,20.8032,20.9527,21.035,21.364,21.693,21.7686,22.0619,22.3328,22.4541,22.5518,22.6491,22.7612,22.7833,22.7833,22.7833,22.7833,22.7833,22.7833,22.7833,22.8209,22.8961,22.8961,22.8961,22.8961,22.8961,22.8585,22.7833,22.7833,22.7833,22.7833,22.7833,22.7833,22.7833,22.7833,22.7983,22.8434,22.8434,22.8585,22.8961,22.897,22.9211,14.6348,0.0,14.9031,15.1137,15.2264,15.3618,0.0,15.7152,15.7979,15.8355,15.9483,16.0836,16.2566,16.4145,16.6325,16.9709,17.204,17.4371,17.7228,18.1852,18.5565,18.7405,18.9956,19.1682,19.1991,19.4813,19.6743,19.7319,19.7645,19.7731,19.7666,19.7547,19.7335,19.7262,19.7115,19.689,19.689,19.689,19.689,19.689,19.689,19.689,19.689,19.689,19.689,19.689,19.689,19.689,19.689,19.689,19.689,19.7338,20.0629,20.1977,20.2578,20.5872,20.6996,20.722,20.7071,20.6994,20.7069,20.6839,20.6835,20.6835,20.6835,20.6835,20.6835,20.6835,20.6843,20.6994,20.6839,20.7815,20.8941,20.9383,21.2817,21.6332,21.6781,21.9864,22.2947,22.4386,22.5066,22.5892,22.7462,22.7833,22.7833,22.7833,22.7833,22.7833,22.7833,22.7833,22.8209,22.9562,22.8585,22.8209,22.9562,22.8585,22.7833,22.7833,22.7833,22.7833,22.7833,22.7833,22.7833,22.7833,22.7833,22.7983,22.8209,22.8209,22.8434,22.8805,22.8788,22.8785,0.0,14.843,14.9257,15.2565,15.2264,15.2415,15.7152,15.7152,0.0,15.8129,15.8505,15.9107,16.0836,16.2491,16.4746,16.798,17.1213,17.3995,17.5649,18.0161,18.4465,18.7518,18.8194,18.8807,19.0116,19.1972,19.3826,19.5328,19.6905,19.7666,19.7466,19.7257,19.7113,19.689,19.689,19.689,19.689,19.689,19.689,19.689,19.689,19.689,19.689,19.689,19.689,19.689,19.689,19.689,19.689,19.689,19.689,19.7338,20.0629,20.1975,20.2348,20.5639,20.6835,20.676,20.6835,20.6835,20.6835,20.6835,20.6835,20.6835,20.6835,20.6835,20.6835,20.6835,20.7218,20.7411,20.6992,20.7218,20.7944,20.9162,21.1845,21.4762,21.6332,22.0594,22.412,22.437,22.5656,22.7017,22.7469,22.7616,22.7833,22.7833,22.7833,22.7833,22.7833,22.7833,22.7833,22.7983,22.7833,22.7833,22.7983,22.7833,22.7833,22.7833,22.7833,22.7833,22.7833,22.7833,22.7833,22.7833,22.7833,22.7833,22.7833,22.7833,22.7983,22.8359,22.8422,22.8798,14.7903,14.8505,14.8806,15.0084,15.0685,15.1813,15.4746,15.5648,15.64,15.8054,15.843,15.8957,16.0611,16.234,16.3844,16.5122,16.9859,17.3243,17.2792,17.8732,18.3112,18.3116,18.4802,18.6543,18.8259,19.005,19.2282,19.5178,19.5733,19.6347,19.7466,19.7335,19.7115,19.689,19.689,19.689,19.689,19.689,19.689,19.689,19.689,19.689,19.689,19.689,19.689,19.689,19.689,19.689,0.0,19.689,19.689,19.7114,19.9432,20.1002,20.2124,20.4517,20.5863,20.6835,20.6835,20.6835,20.6835,20.6835,20.6835,20.6835,20.6835,20.6835,20.6835,20.6835,20.7069,20.6996,20.6839,20.6994,20.7221,20.7587,21.035,21.3416,21.6182,21.8874,22.2025,22.5344,22.5656,22.6042,22.7244,22.7616,22.7833,22.7833,22.7833,22.7833,22.7833,22.7833,22.7833,22.7833,22.7833,22.7833,22.7833,22.7833,22.7833,22.7833,22.7833,22.7833,22.7833,22.7833,22.7833,22.7833,22.7833,22.7833,22.7833,22.7833,22.7833,22.7983,22.7983,22.8209,14.8806,14.9332,14.9557,15.061,15.0911,15.1738,15.4445,15.5122,15.5798,15.7979,15.843,15.8806,15.9934,16.1964,16.3318,16.2716,16.828,17.1965,17.0311,17.6647,18.0968,17.9664,18.2198,18.4243,18.4978,18.7,18.9833,19.3332,19.3805,19.4784,19.6572,19.6291,19.6142,19.6142,19.674,19.689,19.689,19.689,19.689,19.689,19.689,19.689,19.689,19.689,19.689,19.689,19.689,19.689,19.689,19.689,19.689,19.7114,19.8834,20.0404,20.2124,20.3694,20.5489,20.6835,20.6835,20.6835,20.6835,20.6835,20.6835,20.6835,20.6835,20.6835,20.6839,20.6996,20.7206,20.7411,20.7069,20.6996,20.7215,20.6765,20.9004,21.207,21.5958,21.7902,22.0679,22.5626,22.6106,22.5892,22.7019,22.7616,22.7833,22.7833,22.7833,22.7833,22.7833,22.7833,22.7833,22.7833,22.7833,22.7833,22.7833,22.7833,22.7833,22.7833,22.7833,22.7833,22.7833,22.7833,22.7833,22.7833,22.7833,22.7833,22.7833,22.7833,22.7833,22.7833,22.7833,22.7762,15.0535,15.1061,15.1813,15.5047,15.3467,15.234,15.7302,15.5874,15.452,15.7753,15.843,15.843,15.843,16.1212,16.2866,16.1212,16.6476,17.0235,16.8581,17.3962,17.8055,17.8055,18.0678,18.1833,18.011,18.2881,18.6176,18.9621,19.1344,19.2991,19.4564,19.4645,19.4572,19.4572,19.6142,19.689,19.689,19.689,19.689,19.689,19.689,19.689,19.689,19.689,19.689,19.689,19.689,19.689,19.689,19.689,19.689,19.7114,19.8684,20.0404,20.2124,20.3694,20.5265,20.6835,20.6835,20.6835,20.6835,20.6835,20.6835,20.6835,20.6835,20.6835,20.6843,20.7411,20.8374,20.8773,20.7215,20.7606,20.8193,20.7221,20.8181,21.0724,21.5808,21.7902,22.0594,22.5455,22.6842,22.7014,22.7014,22.7394,22.7833,22.7833,22.7833,22.7833,22.7833,22.7833,22.7833,22.7833,22.7833,22.7833,22.7833,22.7833,22.7833,22.7833,22.7833,22.7833,22.7833,22.7833,22.7833,22.7833,22.7833,22.7833,22.7833,22.7833,22.7833,22.7833,22.7833,22.7841,15.0535,15.1061,15.1588,15.3693,15.3543,15.3467,15.6024,15.5874,15.5798,15.7979,15.843,15.843,15.843,16.0235,16.1513,16.0987,16.5498,16.8882,16.8431,17.3962,17.7547,17.6302,17.8891,18.0044,17.8263,18.0059,18.3195,18.7824,18.9481,19.1127,19.2916,19.1801,19.2104,19.4572,19.4945,19.5768,19.689,19.689,19.689,19.689,19.689,19.689,19.689,19.689,19.689,19.689,19.689,19.689,19.689,19.5768,19.5319,19.5319,19.5768,19.689,19.8684,20.1601,20.3694,20.5265,20.6461,20.6835,20.6835,20.6835,20.6835,20.6611,20.5489,20.504,20.5421,20.7185,20.7837,20.7988,20.8027,20.8799,20.97,21.0139,21.0724,21.2294,21.7304,21.8725,22.0594,22.5455,22.6683,22.6855,22.7089,22.7245,22.7616,22.7833,22.7833,22.7833,22.7833,22.7833,22.7833,22.7833,22.7833,22.7833,22.7833,22.7833,22.7833,22.7833,22.7833,22.7833,22.7833,22.7833,22.7833,22.7833,22.7833,22.7833,22.7833,22.7833,22.7833,22.7833,22.7833,22.7762,15.1437,15.2039,15.2565,15.4896,15.4971,15.4896,15.655,15.64,15.64,15.8054,15.843,15.843,15.843,15.9784,16.0912,16.0912,16.447,16.7499,16.8176,17.2667,17.5717,17.5281,17.7414,17.848,17.7373,17.8793,18.133,18.4991,18.7315,18.911,19.0154,18.9784,19.0758,19.345,19.4198,19.5319,19.689,19.689,19.689,19.689,19.689,19.689,19.689,19.689,19.689,19.689,19.689,19.689,19.674,19.517,19.4572,19.4572,19.4572,19.5544,19.7338,20.003,20.1975,20.3545,20.4517,20.4891,20.4891,20.4891,20.5265,20.5639,20.5489,20.5863,20.662,20.8333,20.9147,20.9794,21.0739,21.0891,21.1091,21.1561,21.1696,21.3042,21.7902,21.9099,22.0594,22.5455,22.6599,22.6849,22.7089,22.7244,22.7468,22.7833,22.7833,22.7833,22.7833,22.7833,22.7833,22.7833,22.7833,22.7833,22.7833,22.7833,22.7833,22.7833,22.7833,22.7833,22.7833,22.7833,22.7833,22.7833,22.7833,22.7833,22.7833,22.7833,22.7833,22.7833,22.7833,22.7762,15.264,15.3543,15.437,15.7603,15.7302,15.655,15.8054,15.7227,15.655,15.8129,15.843,15.843,15.843,15.9934,16.1137,16.1137,16.3817,16.6415,16.8143,17.0857,17.322,17.4793,17.6318,17.7298,17.7298,17.8644,18.0214,18.1785,18.4925,18.6795,18.6944,18.844,19.0085,19.173,19.33,19.4945,19.674,19.674,19.674,19.689,19.689,19.689,19.689,19.689,19.689,19.689,19.689,19.689,19.674,19.4945,19.4347,19.4347,19.4347,19.517,19.674,19.8684,20.0404,20.175,20.1975,20.1975,20.1975,20.2124,20.2722,20.3919,20.5639,20.7209,20.8718,20.9948,21.1305,21.2511,21.3808,21.3654,21.2644,21.2091,21.2076,21.3416,21.8126,21.9248,22.0594,22.5305,22.6449,22.6849,22.701,22.7244,22.7394,22.7837,22.7833,22.7833,22.7833,22.7833,22.7833,22.7833,22.7833,22.7833,22.7833,22.7833,22.7833,22.7833,22.7833,22.7833,22.7833,22.7833,22.7833,22.7833,22.7833,22.7833,22.7833,22.7833,22.7833,22.7833,22.7833,22.7616,15.264,15.3543,15.437,15.7603,15.8129,15.7979,15.8355,15.8129,15.7979,15.8355,15.843,15.843,15.843,16.0912,16.2942,16.2942,16.5545,16.8218,16.987,17.1532,17.322,17.4793,17.6318,0.0,17.7298,17.7597,0.0,18.0139,18.2084,18.3804,18.515,18.6795,18.844,19.001,19.0384,19.2029,19.4945,19.517,19.5768,19.689,19.689,19.689,19.689,19.689,19.689,19.689,19.689,19.689,19.674,19.3749,19.2553,19.2553,19.2553,19.2777,19.3599,19.7862,19.9656,20.018,20.1601,20.1975,20.2124,20.3321,20.1376,19.8834,20.0404,20.1227,20.2203,20.5425,20.7782,20.9376,21.012,21.3007,21.5194,21.3451,21.4403,21.6332,21.85,22.0071,22.1791,22.4109,22.5691,22.6674,22.6842,22.701,22.7244,22.7394,22.7687,22.7833,22.7833,22.7833,22.7833,22.7833,22.7833,22.7833,22.7833,22.7833,22.7833,22.7833,22.7833,22.7833,22.7833,22.7833,22.7833,22.7833,22.7833,22.7833,22.7833,22.7833,22.7833,22.7833,22.7616,22.7394,15.1663,15.2941,15.4144,15.6626,15.7829,15.843,15.843,0.0,15.843,15.843,15.843,15.843,15.843,16.0536,16.2491,16.3141,16.5289,16.7956,17.1142,17.2159,17.3392,17.5786,17.6842,17.7298,17.7298,17.7298,17.7971,17.9691,18.0588,18.1411,18.2308,18.4626,18.7094,18.9412,18.9561,19.0758,19.33,19.4123,19.4945,19.5768,19.6516,19.689,19.689,19.689,19.689,19.689,19.689,19.689,19.674,19.4272,19.3226,19.33,19.4123,19.3899,19.3749,19.7862,19.8834,19.831,19.9283,19.9656,19.9806,20.1376,20.0255,19.846,20.018,20.1152,20.2128,20.4481,20.7008,20.9302,20.9901,21.2444,21.4589,21.3224,21.3781,21.5014,21.634,21.865,22.1192,22.351,22.4707,22.5691,22.6692,22.7005,22.7017,22.7469,22.7616,22.7833,22.7833,22.7833,22.7833,22.7833,22.7833,22.7833,22.7833,22.7833,22.7833,22.7833,22.7833,22.7833,22.7833,22.7833,22.7833,22.7833,22.7833,22.7833,22.7833,22.7833,22.7833,22.7833,22.7618,22.7395,15.046,15.2039,15.3543,15.5422,15.6926,15.8054,15.8355,15.843,15.843,15.843,15.843,15.843,15.843,16.0235,16.214,16.3389,16.533,16.8158,17.2459,17.2943,17.3999,0.0,17.7298,17.7298,17.7298,17.7298,0.0,0.0,17.9392,17.9466,17.9766,18.2607,18.5598,18.8589,18.8963,18.9935,19.158,19.3001,19.3824,19.4123,19.5768,19.6516,19.6516,19.674,19.689,19.689,19.689,19.689,19.674,19.517,19.4572,19.4721,19.5918,19.5918,19.5319,19.8086,19.831,19.7338,19.7114,19.689,19.7114,19.846,19.9058,19.9283,20.0629,20.1975,20.3101,20.3897,20.6414,20.8997,20.9732,21.1243,21.2702,21.2308,21.2268,21.2669,21.3578,21.6182,21.9248,22.2538,22.3735,22.4568,22.6084,22.663,22.7092,22.7245,22.7616,22.7833,22.7833,22.7833,22.7833,22.7833,22.7833,22.7833,22.7833,22.7833,22.7833,22.7833,22.7833,22.7833,22.7833,22.7833,22.7833,22.7833,22.7833,22.7833,22.7833,22.7833,22.7833,22.7833,22.7468,22.7244,15.0159,15.1212,15.2114,15.5122,15.6099,15.6626,15.8129,15.843,15.843,15.843,15.843,15.843,15.843,16.2014,16.5042,16.5372,0.0,17.2567,17.4681,17.4856,17.5403,17.7074,17.7298,17.7298,17.7298,17.7298,17.7373,17.7597,17.7597,17.827,17.9691,18.1485,18.3355,18.5224,18.672,18.829,18.9861,19.0085,19.0907,19.2403,19.4048,19.4945,19.4945,19.6366,19.689,19.689,19.689,19.689,19.674,19.517,19.4572,19.4572,19.4796,19.5544,19.674,19.7114,19.8086,19.8834,19.7488,19.689,19.689,19.7114,19.7338,19.7338,19.7488,19.7712,19.8236,19.9808,20.196,20.4059,20.5474,20.857,21.1117,21.0502,21.1516,21.2444,21.2081,21.3416,21.5734,21.9099,22.2164,22.4109,22.4568,22.5875,22.7014,22.7014,22.7468,22.7833,22.7833,22.7833,22.7833,22.7833,22.7833,22.7833,22.7833,22.7833,22.7833,22.7833,22.7833,22.7833,22.7833,22.7833,22.7833,22.7833,22.7833,22.7833,22.7833,22.7833,22.7833,22.7833,22.7245,22.7014,14.7828,14.9633,15.1362,15.2791,15.452,15.6099,15.6851,15.7753,15.843,15.843,15.843,15.843,15.843,16.1638,16.4238,0.0,0.0,0.0,17.337,17.3681,17.4523,0.0,17.7298,0.0,17.7298,17.7298,17.7298,0.0,17.7298,17.7597,17.8345,17.9915,18.1186,18.1934,18.4402,18.6122,18.6795,18.8589,18.9861,19.0683,19.2328,19.3151,19.3151,19.3899,19.4198,19.4198,19.4198,19.4198,19.4123,19.345,19.3151,19.3226,19.4198,19.4347,19.4272,19.517,19.6142,19.6516,19.5918,19.5544,19.5544,19.5544,19.6142,19.689,19.689,19.689,19.7114,19.7862,19.9432,20.0995,20.1745,20.4685,20.7385,20.7056,20.8395,20.989,21.0285,21.0873,21.2443,21.5734,21.9099,22.2015,22.3735,22.5126,22.6039,22.6864,22.7394,22.7833,22.7833,22.7833,22.7833,22.7833,22.7833,22.7833,22.7833,22.7833,22.7833,22.7833,22.7833,22.7833,22.7833,22.7833,22.7833,22.7833,22.7833,22.7833,22.7833,22.7616,22.7616,22.7691,22.7239,22.6855,14.6324,14.8505,15.046,15.0911,15.2866,15.4746,15.5197,15.6626,15.7829,15.7829,15.8129,15.843,15.843,16.0985,16.3153,16.3548,16.6151,0.0,17.2054,17.2802,0.0,17.6326,0.0,17.7298,17.7298,17.7298,0.0,17.7298,17.7298,17.7298,17.7298,17.8868,17.9766,17.9766,18.2532,18.4252,18.4626,18.7094,18.8515,18.8963,19.0608,19.1431,19.1431,19.188,19.2029,19.2029,19.2029,19.2029,19.2029,19.2029,19.2029,19.2179,19.345,19.345,19.2777,19.3599,19.4198,19.4347,19.3599,19.3525,19.3973,19.4347,19.5319,19.6291,19.6888,19.7114,19.689,19.7113,19.7862,19.8834,19.9283,20.1599,20.3679,20.37,20.5271,20.7056,20.7815,20.8779,21.0125,21.2443,21.5584,21.865,22.1791,22.3546,22.5061,22.6264,22.7244,22.7612,22.7231,22.7607,22.7833,22.7833,22.7833,22.7833,22.7833,22.7833,22.7833,22.7833,22.7833,22.7607,22.7231,22.7607,22.7231,22.5878,22.6254,22.6103,22.5276,22.5512,22.5515,22.5517,22.5661,22.5725,14.7076,14.8505,14.9031,15.061,15.1137,15.1663,15.3317,15.4896,15.6024,15.6024,15.7302,15.843,0.0,0.0,16.3473,16.5214,16.8067,17.0524,17.2322,17.3969,17.4953,0.0,0.0,0.0,0.0,0.0,0.0,17.7298,17.7298,17.7298,17.7298,17.8868,17.9766,17.9766,18.1411,18.3056,18.4626,18.485,18.5673,18.7318,18.8888,18.9636,18.9711,19.1281,19.2029,19.2029,19.2029,19.2029,19.2029,19.2029,19.2029,19.2029,19.2179,19.3076,19.4272,19.2777,19.3151,19.4123,19.0907,19.0833,19.2403,19.4048,19.4572,19.5168,19.713,19.7316,19.7114,19.7506,19.7316,19.7488,19.9058,19.9582,20.0256,20.175,20.3398,20.452,20.4442,20.6985,20.9377,20.9527,21.2294,21.4986,21.6781,22.1211,22.4526,22.4764,22.6268,22.7017,22.5727,22.6855,22.7833,22.7833,22.7833,22.7833,22.7833,22.7833,22.7833,22.7833,22.7833,22.7081,22.5502,22.7081,22.5502,22.0614,22.2193,22.1592,21.8509,21.9862,22.0621,22.041,22.1765,22.2358,14.4294,14.5347,14.6023,14.873,15.0234,15.1512,15.3167,15.4746,15.6201,15.7204,15.793,15.8381,15.8178,15.9947,16.1917,16.351,16.5507,16.7716,17.0473,17.1381,17.2503,17.4531,17.5279,17.6101,0.0,0.0,17.6101,17.7223,17.7298,17.7298,17.7298,17.7896,17.8195,17.8195,17.9766,18.0962,18.156,18.3579,18.5,18.5598,18.7243,18.8066,18.8066,18.8664,18.8888,18.8888,18.8888,18.8888,18.8888,18.8888,18.8888,18.8888,18.8888,18.9262,18.9786,18.9188,18.9935,19.0982,18.8814,18.9113,19.0534,19.1132,19.2237,19.3462,19.4237,19.5392,19.6315,19.6529,19.7253,19.8122,19.865,19.9424,20.0002,20.0602,20.1752,20.3096,20.4068,20.5265,20.6835,20.8929,21.035,21.1845,21.4612,21.7537,22.0245,22.2737,22.3716,22.3867,22.3562,22.4154,22.49,22.6103,22.6254,22.663,22.7833,22.7833,22.7457,22.6254,22.5126,22.3772,22.2193,22.1592,22.0614,21.8659,21.9261,21.911,21.7907,21.8298,21.8458,21.8239,21.8688,21.9278,14.1888,14.3241,14.4294,14.7001,14.8505,14.9783,15.1512,15.3495,15.5326,15.6352,15.7479,15.823,15.8017,15.9312,16.0755,16.1687,16.3663,16.5782,16.7951,16.9222,17.0717,17.2886,17.3634,17.4606,17.6251,17.4905,17.4681,17.6326,17.6401,17.67,17.7223,17.7298,17.7298,17.7298,17.8345,17.9242,17.9766,18.1934,18.328,18.3804,18.5523,18.6346,18.6346,18.6944,18.7169,18.7169,18.7169,18.7169,18.7169,18.7169,18.7169,18.7169,18.7169,18.7169,18.7169,18.7169,18.7842,18.8589,18.7542,18.7842,18.8886,18.9546,19.0696,19.2024,19.286,19.4088,19.5132,19.5379,19.6503,19.7699,19.7699,19.8667,19.9647,19.9471,20.0377,20.1529,20.2575,20.3096,20.4293,20.6985,20.8181,20.9377,21.207,21.4388,21.6938,21.9882,22.0785,22.1387,22.1615,22.2138,22.3177,22.4299,22.4524,22.49,22.6103,22.5652,22.49,22.3697,22.1968,22.0464,21.8659,21.8133,21.7155,21.5351,21.5961,21.5585,21.4599,21.4998,21.5154,21.4998,21.5604,21.6359,14.0083,14.2264,14.3918,14.5497,14.5948,14.6475,14.8129,15.0967,15.3273,15.3349,15.5799,15.7942,15.7942,15.9181,16.0115,16.0189,16.284,16.4885,16.496,16.7726,16.9745,16.982,17.1316,17.2961,17.4456,17.326,17.2961,17.4606,17.4755,17.5503,17.7148,17.7298,17.7298,17.7298,17.7298,17.8046,17.9691,17.9766,18.0588,18.2084,18.3804,18.4551,18.4626,18.6346,18.7169,18.7169,18.7169,18.7169,18.7169,18.7169,18.7169,18.7169,18.7169,18.7169,18.7169,18.7169,18.7169,18.7169,18.7169,18.7169,18.7535,18.9545,19.0236,19.0743,19.3303,19.372,19.3524,19.3969,19.493,19.5931,19.5931,19.714,19.8286,19.7708,19.8884,20.0049,19.9434,20.0778,20.2348,20.3919,20.5489,20.7209,20.9004,21.1845,21.4612,21.6332,21.8068,21.9278,21.9427,22.124,22.2585,22.2795,22.2795,22.2795,22.2795,22.1216,22.0238,22.0238,21.8659,21.693,21.5351,21.6779,21.5351,21.0538,21.1617,21.0866,20.7982,20.9521,21.0323,21.0288,21.2229,21.3224,13.8053,13.9632,14.0685,14.3542,14.5121,14.6429,14.8037,14.9116,15.0295,15.249,15.4664,15.6163,15.5938,15.7361,15.8783,15.9861,16.0833,16.1819,16.3015,16.5034,16.6829,16.7951,16.9521,17.0792,17.1166,17.0867,17.1241,17.2961,17.4082,17.498,17.5428,17.6625,17.7298,17.7298,17.7298,17.7522,17.7971,17.9167,17.999,18.0439,18.2084,18.2831,18.2906,18.4551,18.6047,18.7169,18.7169,18.7169,18.7169,18.7169,18.7169,18.7169,18.7169,18.7169,18.7169,18.7169,18.7169,18.7169,18.7169,18.7368,18.7743,18.8298,18.8889,18.956,19.0291,19.157,19.273,19.2871,19.4063,19.5156,19.5156,19.5379,19.5535,19.6323,19.6541,19.7119,19.906,19.9806,20.0629,20.2348,20.2947,20.4293,20.7059,20.9377,21.1696,21.4388,21.5367,21.6197,21.7555,21.8314,21.9287,22.084,22.099,22.099,22.099,22.0614,21.9261,21.693,21.52,21.3471,21.1892,21.1065,20.9947,20.8387,20.7636,20.6818,20.563,20.5036,20.466,20.4505,20.5105,20.5855,13.3316,13.5497,13.7376,14.0685,14.2264,14.3648,14.6637,14.7743,14.8919,15.1332,15.315,15.4273,15.4101,15.5522,15.7003,0.0,15.9052,16.0323,16.1295,16.2941,16.4586,16.6231,16.6605,16.7053,16.7801,16.7876,16.8848,17.1166,17.2213,17.3036,17.3709,17.5354,17.6251,17.6251,17.6924,17.7298,17.7298,17.827,17.8793,17.8793,18.0364,18.1186,18.1186,18.2831,18.4103,18.5075,18.5823,18.6496,18.7169,18.7169,18.7169,18.7169,18.7169,18.7169,18.7169,18.7169,18.7169,18.7169,18.7169,18.7375,18.7606,18.7978,18.8442,18.8983,18.9322,19.0387,19.1382,19.1382,19.2596,19.3886,19.3886,19.418,19.4552,19.5194,19.4814,19.4998,19.7091,19.7487,19.8086,20.0404,20.1002,20.175,20.4293,20.6835,20.9004,21.0873,21.1696,21.2899,21.4625,21.5611,21.6515,21.7857,21.8673,21.8892,21.8283,21.693,21.52,21.2493,21.0689,20.9335,20.8358,20.6854,20.6038,20.6592,20.4873,20.3904,20.3915,20.3098,20.2945,20.3522,20.3739,20.3129,12.7827,13.0985,13.4218,13.7301,13.8203,13.9439,0.0,0.0,14.7392,14.8785,15.0492,15.1857,15.1857,15.3294,15.4715,15.5089,15.7557,15.9501,15.965,16.1146,16.2791,16.4287,16.3165,16.2866,16.4586,16.496,16.6231,16.9147,16.9671,17.0568,17.2063,17.3634,17.4531,17.4531,17.6101,17.6999,17.6999,17.7223,17.7298,17.7298,17.8793,17.9541,17.9541,18.1186,18.1859,18.1934,18.3654,18.5224,18.6645,18.6795,18.6869,18.6944,18.7094,18.7094,18.6869,18.6869,18.7019,18.7169,18.7169,18.724,18.7368,18.8237,18.8604,18.8805,18.961,18.994,18.994,18.994,19.1003,19.2141,19.2141,19.3279,19.4293,19.3968,19.3456,19.3484,19.464,19.4548,19.517,19.8236,19.8834,19.9432,20.1376,20.4293,20.6461,20.6461,20.8032,20.9751,21.1471,21.3054,21.4263,21.4415,21.5912,21.6575,21.5134,21.2117,20.9335,20.7606,20.6027,20.5275,20.5275,20.3696,20.3558,20.4865,20.2935,20.1965,20.2335,20.1976,20.2935,20.4674,20.4863,20.2967,0.0,0.0,0.0,0.0,0.0,0.0,0.0,0.0,14.0339,14.0569,14.3863,14.6805,14.6805,14.9164,15.2098,15.4715,15.5687,15.651,15.793,15.9501,16.0622,16.0922,16.0697,16.1146,16.2791,16.4212,16.5333,16.5932,16.8399,17.0044,17.0344,17.1989,17.2886,17.2886,17.4456,17.5279,17.5279,17.6625,17.7298,17.7298,17.7597,17.7747,17.7821,17.9466,18.0214,18.0364,18.1934,18.2831,18.3205,18.4551,18.515,18.5299,18.6645,18.6346,18.515,18.515,18.6047,18.7169,18.7169,18.7435,18.7772,18.8382,18.8805,18.9109,18.9723,18.994,18.994,18.994,19.0168,19.0395,19.0395,19.0623,19.1107,19.1922,19.1716,19.1748,19.2909,19.2749,19.3151,19.517,19.5544,19.6516,19.9432,20.1601,20.3321,20.4667,20.6237,20.8405,21.1322,21.2231,21.2463,21.269,21.3213,21.3426,21.327,21.0323,20.723,20.4072,20.3546,20.3546,20.3546,20.317,20.2956,20.3288,20.0077,19.9243,20.0809,19.807,19.7708,19.9871,19.9795,20.1579,0.0,0.0,0.0,0.0,0.0,0.0,0.0,0.0,0.0,0.0,0.0,14.3316,0.0,0.0,14.9538,15.12,15.3519,15.5388,15.6285,15.7781,15.8529,15.7631,15.8304,15.9127,16.0024,16.152,16.2866,16.3688,16.6081,16.7801,16.8624,17.1017,17.2437,17.2437,17.3933,17.4382,17.3559,17.4456,17.5204,17.6027,17.6027,17.6475,17.7298,17.812,17.8569,17.8644,18.0289,18.0962,18.1112,18.2682,18.3355,18.3579,18.5224,18.4925,18.3355,18.3355,18.3953,18.4701,18.4701,18.5477,18.6589,18.7145,18.8086,18.9194,18.9741,18.994,18.994,18.994,18.994,18.994,18.994,18.994,19.0077,19.0651,19.0426,19.0354,19.1529,19.1456,19.1557,19.3,19.3973,19.517,19.674,19.831,19.9656,20.0404,20.3545,20.6237,20.7807,20.9532,21.1112,21.1864,21.3065,21.3056,21.1474,21.0173,20.738,20.317,20.2192,20.1741,20.1741,20.0237,19.9649,20.0209,19.7825,19.7119,19.8066,19.8084,19.8986,20.0795,20.0563,20.1788,0.0,0.0,0.0,0.0,0.0,0.0,0.0,0.0,0.0,0.0,0.0,0.0,0.0,0.0,0.0,14.7536,15.135,15.4416,15.5014,15.6285,15.6659,15.5313,15.636,15.7183,15.7183,15.8603,16.0099,16.1445,16.3389,16.5109,16.638,16.9297,17.1017,17.1017,17.2811,17.3185,17.1914,17.2512,17.3484,17.4755,17.4755,0.0,17.6774,17.6774,17.6774,17.6924,17.8569,17.9317,17.9466,18.1037,18.1859,18.2233,18.328,18.2682,18.1261,18.156,18.1859,18.2158,18.2222,18.3429,18.4934,18.5498,18.6796,18.8285,18.8755,18.9181,0.0,18.9409,18.9637,18.994,18.994,18.994,18.994,18.994,18.9492,18.9382,19.0354,19.0197,19.0133,19.1488,19.2701,19.3674,19.4048,19.517,19.6366,19.7338,20.0778,20.3545,20.4293,20.6985,20.9158,20.9914,21.1641,21.1712,20.9002,20.913,20.7606,20.2718,20.1365,20.0387,20.0237,19.7455,19.6868,19.8246,19.713,19.6327,19.6354,19.8843,20.1003,20.2566,20.2383,20.193,0.0,0.0,0.0,0.0,0.0,0.0,0.0,0.0,0.0,0.0,0.0,0.0,0.0,0.0,0.0,0.0,14.9481,15.1799,15.4715,15.5313,15.5313,15.5164,15.5313,15.5388,15.5388,15.6958,15.8005,15.8155,16.1071,16.2866,16.3015,16.481,0.0,0.0,0.0,17.0344,17.0194,17.3036,17.4606,17.4755,17.4755,17.483,17.5055,17.5055,17.5055,17.5129,17.6849,17.7597,17.7672,17.9392,18.0887,18.2009,18.0812,17.9317,17.8046,17.9541,18.0962,18.2153,18.2652,0.0,0.0,18.4153,18.4641,18.4876,18.5341,18.6449,18.7664,18.7664,18.8726,18.994,18.994,18.994,18.994,18.994,18.9492,18.9214,18.9306,18.8624,18.8582,19.0193,19.0282,19.0608,19.2029,19.2478,19.4123,19.846,19.9656,20.1002,20.3919,20.5863,20.6013,20.3321,20.4898,0.0,20.3315,20.4856,20.4523,20.0989,20.0763,20.0011,19.8432,19.8267,19.9095,20.0613,19.9222,19.8685,19.9042,19.7878,19.8304,20.0192,20.1762,20.0792,0.0,0.0,0.0,0.0,0.0,0.0,0.0,0.0,0.0,0.0,0.0,0.0,0.0,0.0,0.0,0.0,14.5648,14.8135,15.0527,15.1649,15.2621,15.3519,15.4491,15.4715,15.3743,15.5164,15.5762,15.479,15.7781,16.0099,16.0996,16.3614,16.5034,16.5034,16.638,16.7053,16.7053,16.8399,17.0044,17.1914,17.2961,17.3858,17.483,17.5802,17.6251,17.6251,17.6999,17.67,17.6027,17.8719,17.9018,17.7821,0.0,0.0,0.0,0.0,17.5952,17.6684,17.8131,17.9396,18.0686,18.2323,18.3638,18.468,18.4841,18.5311,18.5918,18.5918,18.6449,18.6981,18.6981,18.7664,18.8422,18.8422,18.881,18.9079,18.8879,18.8259,18.7939,18.8391,18.9028,0.0,18.9262,19.0833,19.2777,19.4796,19.846,20.1002,20.1376,20.3694,20.4891,20.3545,20.4075,20.3697,20.1215,20.1945,0.0,0.0,0.0,19.5951,19.5199,19.5559,0.0,0.0,0.0,19.6123,19.6572,19.7679,0.0,0.0,19.6694,19.7301,0.0,0.0,0.0,0.0,0.0,0.0,0.0,0.0,0.0,0.0,0.0,0.0,0.0,0.0,0.0,0.0,0.0,14.4844,14.5592,14.791,14.978,15.0453,15.2846,15.3593,15.1425,15.3145,15.3743,15.2023,15.464,15.6734,15.7856,16.0697,16.2567,16.3015,16.3389,16.3838,16.4361,16.481,16.6231,16.8549,17.0269,17.1839,17.3484,17.5204,17.6176,17.6625,17.7074,17.6326,17.498,17.7896,17.7373,17.4755,17.4755,17.4456,17.4008,17.2811,17.2437,17.2643,17.4371,17.6084,17.769,17.9318,18.0887,18.2124,18.2124,18.2503,18.2807,18.2807,18.349,18.4173,18.4173,18.5387,18.6677,18.6677,18.7217,18.7867,18.7973,18.7532,18.7187,18.736,18.7835,18.7991,18.7318,18.8739,19.0608,19.2478,19.7264,20.0255,19.9656,20.2348,20.3694,20.2348,20.2876,20.2126,19.964,19.9777,19.8246,19.3996,19.3695,19.3319,19.2492,19.3169,19.3173,19.2229,19.383,19.4568,0.0,0.0,0.0,0.0,0.0,0.0,0.0,0.0,0.0,0.0,0.0,0.0,0.0,0.0,0.0,0.0,0.0,0.0,0.0,0.0,0.0,0.0,0.0,0.0,14.0806,14.477,14.7237,14.5667,14.9705,15.1425,14.8209,15.0752,15.2023,15.0453,15.1799,15.2771,15.2846,15.4491,15.6211,15.7856,15.9351,16.0922,16.2567,16.4212,16.5109,16.5184,16.6754,16.8399,17.0119,17.1764,17.3409,17.4905,17.655,17.6326,17.4905,17.6625,17.6326,17.4755,17.4755,17.3858,17.2437,17.2437,17.2437,17.2558,17.334,17.3909,17.4394,17.4931,17.5218,17.5218,17.5218,17.6433,17.7723,17.7723,17.9999,18.2428,18.2428,18.3642,18.4932,18.4932,18.4715,18.4821,18.6307,18.5951,18.58,18.7396,18.6151,18.5299,18.6944,18.5897,18.7094,19.3525,19.5918,0.0,19.9283,20.2348,20.2573,19.7712,19.8611,19.9204,19.7691,19.9176,19.8847,19.5726,19.5575,19.4146,19.1272,19.2718,19.3695,19.3888,19.5931,19.6329,19.4962,0.0,0.0,0.0,0.0,0.0,0.0,0.0,0.0,0.0,0.0,0.0,0.0,0.0,0.0,0.0,0.0,0.0,0.0,0.0,0.0,0.0,0.0,0.0,0.0,0.0,14.4695,14.5143,14.7686,14.8508,14.6265,14.806,14.8658,14.7013,14.9481,15.1051,15.1051,15.2546,15.3668,15.4266,15.5911,15.7557,15.9276,16.0847,16.2268,16.3389,16.5034,16.6679,16.825,16.997,17.1017,17.1615,17.3335,17.2437,17.0194,17.4008,17.3335,16.9745,16.8773,16.8624,16.9072,16.9072,16.9072,16.9137,16.9342,17.0489,17.2019,17.3913,17.4744,17.4915,17.4915,17.537,17.6053,17.7191,17.7419,17.7723,17.8785,17.9544,18.0227,18.1289,18.2061,18.2945,18.4229,18.4893,18.5384,18.5701,18.4491,18.3891,18.5295,18.5,18.6122,19.0534,19.3599,19.517,19.4572,19.831,19.9656,19.5768,19.689,19.7481,19.5966,19.5564,19.4339,19.2492,19.144,19.0462,18.9409,18.9166,18.9108,18.9315,18.8982,18.899,18.9553,0.0,0.0,0.0,0.0,0.0,0.0,0.0,0.0,0.0,0.0,0.0,0.0,0.0,0.0,0.0,0.0,0.0,0.0,0.0,0.0,0.0,0.0,0.0,0.0,0.0,0.0,14.3349,14.5443,0.0,14.4545,14.5891,14.619,14.4545,14.6938,14.8434,14.8434,15.0527,15.1724,15.1724,15.3369,15.5014,15.6734,15.7706,15.9127,16.0772,16.2417,16.4062,16.5707,16.7951,16.9297,16.997,17.169,17.0867,16.8399,16.982,16.8549,16.5558,16.4511,16.4735,16.5633,16.5633,16.5633,16.5696,16.5731,16.6736,16.8179,17.0107,17.0611,17.0514,17.1121,17.0893,17.0893,17.3245,17.3549,17.3549,17.5218,17.6584,17.7723,17.8709,17.9938,18.1204,18.2565,18.3297,18.3279,18.1653,18.0775,18.0817,18.2778,18.3039,18.4248,18.8342,19.1576,19.33,19.2179,19.5319,19.689,19.4721,19.5692,19.5908,19.4991,19.3687,19.2236,19.0913,18.8733,18.7605,18.7887,18.6454,18.5816,18.5921,18.5097,18.5047,0.0,0.0,0.0,0.0,0.0,0.0,0.0,0.0,0.0,0.0,0.0,0.0,0.0,0.0,0.0,0.0,0.0,0.0,0.0,0.0,0.0,0.0,0.0,0.0,0.0,0.0,0.0,13.9984,14.2751,0.0,0.0,0.0,0.0,14.2751,14.4171,14.5069,14.5069,14.8209,15.0004,15.0004,15.1574,15.3294,15.5014,15.5089,15.5986,15.7631,15.9127,16.0697,16.2492,16.5558,16.7876,16.9446,17.1166,17.0942,16.8998,16.4212,16.2342,16.2492,16.2193,16.2193,16.2268,16.2342,16.233,16.2316,16.2886,16.3017,16.3106,16.3872,16.3313,16.2609,16.4215,16.3608,0.0,0.0,16.8313,16.9907,17.1728,17.4535,17.704,17.7191,17.8042,17.9318,18.1006,18.1053,17.9674,17.5981,17.5198,17.6251,17.9654,0.0,18.1458,18.6677,18.99,19.1654,19.158,19.3151,19.4272,19.4198,19.4567,19.4784,19.4766,19.3462,19.2147,19.1047,18.753,18.58,18.6383,18.4836,18.3966,18.3935,18.4345,0.0,0.0,0.0,0.0,0.0,0.0,0.0,0.0,0.0,0.0,0.0,0.0,0.0,0.0,0.0,0.0,0.0,0.0,0.0,0.0,0.0,0.0,0.0,0.0,0.0,0.0,13.0337,13.3403,13.4749,13.6694,13.6843,0.0,0.0,0.0,0.0,0.0,0.0,14.3498,14.5443,14.6489,14.6489,14.9331,15.1574,15.3219,15.4491,15.5986,15.7631,15.808,15.9052,16.0622,16.152,16.2118,16.2567,16.4287,16.4062,16.2342,15.9875,16.0323,16.2118,15.8454,15.7781,15.9052,16.0174,16.0023,15.9476,16.1879,16.2239,16.1675,16.1902,16.1888,16.1984,16.2733,0.0,0.0,0.0,0.0,16.4898,16.7858,16.9299,17.0589,17.3094,17.39,17.4517,17.5834,17.701,17.7009,17.4126,17.2794,17.3396,17.7455,17.8191,0.0,18.3097,18.5466,18.643,18.4846,18.8433,19.0674,18.9327,19.1699,19.3322,19.3387,19.0884,18.9201,18.8883,18.6007,18.4277,18.4428,18.2962,18.2284,18.2449,0.0,0.0,0.0,0.0,0.0,0.0,0.0,0.0,0.0,0.0,0.0,0.0,0.0,0.0,0.0,0.0,0.0,0.0,0.0,0.0,0.0,0.0,0.0,0.0,0.0,0.0,0.0,12.5327,12.9216,13.1609,13.2656,13.2805,0.0,0.0,0.0,0.0,0.0,0.0,0.0,0.0,0.0,14.3124,14.7013,14.9181,14.9331,15.1799,15.3818,15.5463,15.6958,15.7706,15.793,16.0099,16.0697,16.0099,16.1744,16.0323,15.6659,15.5762,15.651,15.7856,0.0,0.0,0.0,0.0,15.6295,15.5918,15.7601,15.7953,15.7706,15.7829,0.0,0.0,0.0,0.0,0.0,0.0,0.0,16.2925,16.5581,16.7933,17.0058,17.1955,17.2807,17.3472,17.4091,17.2246,17.0379,17.0326,16.972,17.04,17.4273,17.6711,0.0,0.0,0.0,18.4632,18.2754,18.4961,18.6551,18.6394,18.897,19.0371,18.9696,18.869,18.7605,18.6251,18.3182,18.188,18.2698,18.002,17.8826,0.0,0.0,0.0,0.0,0.0,0.0,0.0,0.0,0.0,0.0,0.0,0.0,0.0,0.0,0.0,0.0,0.0,0.0,0.0,0.0,0.0,0.0,0.0,0.0,0.0,0.0,0.0,0.0,0.0,12.5402,12.8468,0.0,0.0,0.0,0.0,0.0,0.0,0.0,0.0,0.0,0.0,0.0,0.0,0.0,14.619,14.4919,14.7985,15.0378,15.1948,15.5164,15.5911,15.464,15.9127,16.0398,15.9052,16.0099,0.0,15.2546,15.1873,0.0,0.0,0.0,0.0,0.0,0.0,0.0,0.0,0.0,0.0,0.0,0.0,0.0,0.0,0.0,0.0,0.0,0.0,0.0,0.0,0.0,0.0,17.1045,17.0817,17.1995,17.298,17.25,16.6649,16.2398,16.5203,16.5934,16.7146,0.0,0.0,0.0,0.0,0.0,0.0,18.2505,18.2065,18.2498,18.4202,18.6118,18.6692,18.5204,18.6194,18.5781,18.3204,18.0123,17.9087,18.0501,17.6934,0.0,0.0,0.0,0.0,0.0,0.0,0.0,0.0,0.0,0.0,0.0,0.0,0.0,0.0,0.0,0.0,0.0,0.0,0.0,0.0,0.0,0.0,0.0,0.0,0.0,0.0,0.0,0.0,0.0,0.0,0.0,0.0,0.0,0.0,0.0,0.0,0.0,0.0,0.0,0.0,0.0,0.0,0.0,0.0,0.0,0.0,0.0,0.0,0.0,0.0,15.0602,15.135,15.12,15.3294,15.4117,15.3743,15.135,15.12,15.2247,14.8209,0.0,0.0,0.0,0.0,0.0,0.0,0.0,0.0,0.0,0.0,0.0,0.0,0.0,0.0,0.0,0.0,0.0,0.0,0.0,0.0,0.0,0.0,16.376,16.247,16.434,16.566,16.25,0.0,0.0,0.0,0.0,0.0,0.0,0.0,0.0,0.0,0.0,0.0,17.8539,17.8478,17.8987,18.07,18.2478,18.3504,18.3204,18.1344,17.9949,17.9422,17.7895,17.6558,0.0,0.0,0.0,0.0,0.0,0.0,0.0,0.0,0.0,0.0,0.0,0.0,0.0,0.0,0.0,0.0,0.0,0.0,0.0,0.0,0.0,0.0,0.0,0.0,0.0,0.0,0.0,0.0,0.0,0.0,0.0,0.0,0.0,0.0,0.0,0.0,0.0,0.0,0.0,0.0,0.0,0.0,0.0,0.0,0.0,0.0,0.0,0.0,0.0,0.0,0.0,0.0,0.0,0.0,0.0,0.0,0.0,0.0,14.5517,14.3498,0.0,0.0,0.0,0.0,0.0,0.0,0.0,0.0,0.0,0.0,0.0,0.0,0.0,0.0,0.0,0.0,0.0,0.0,0.0,0.0,0.0,0.0,0.0,0.0,0.0,0.0,0.0,0.0,0.0,0.0,0.0,0.0,0.0,0.0,0.0,0.0,0.0,0.0,0.0,0.0,17.4783,17.5241,17.6285,17.7991,17.9698,18.0424,17.952,17.9825,17.8936,17.6408,17.5845,0.0,0.0,0.0,0.0,0.0,0.0,0.0,0.0,0.0,0.0,0.0,0.0,0.0,0.0,0.0,0.0,0.0,0.0,0.0,0.0,0.0,0.0,0.0,0.0,0.0,0.0,0.0,0.0,0.0,0.0,0.0,0.0,0.0,0.0,0.0,0.0,0.0,0.0,0.0,0.0,0.0,0.0,0.0,0.0,0.0,0.0,0.0,0.0,0.0,0.0,0.0,0.0,0.0,0.0,0.0,0.0,0.0,0.0,0.0,14.0432,13.6993,0.0,0.0,0.0,0.0,0.0,0.0,0.0,0.0,0.0,0.0,0.0,0.0,0.0,0.0,0.0,0.0,0.0,0.0,0.0,0.0,0.0,0.0,0.0,0.0,0.0,0.0,0.0,0.0,0.0,0.0,0.0,0.0,0.0,0.0,0.0,0.0,0.0,0.0,0.0,0.0,17.1919,17.2346,17.3499,17.5648,17.7085,17.7463,17.648,17.8289,17.7813,17.3914,17.3945,0.0,0.0,0.0,0.0,0.0,0.0,0.0,0.0,0.0,0.0,0.0,0.0,0.0,0.0,0.0,0.0,0.0,0.0,0.0,0.0,0.0,0.0,0.0,0.0,0.0,0.0,0.0,0.0,0.0,0.0,0.0,0.0,0.0,0.0,0.0,0.0,0.0,0.0,0.0,0.0,0.0,0.0,0.0,0.0,0.0,0.0,0.0,0.0,0.0,0.0,0.0,0.0,0.0,0.0,0.0,0.0,0.0,0.0,0.0,0.0,0.0,0.0,0.0,0.0,0.0,0.0,0.0,0.0,0.0,0.0,0.0,0.0,0.0,0.0,0.0,0.0,0.0,0.0,0.0,0.0,0.0,0.0,0.0,0.0,0.0,0.0,0.0,0.0,0.0,0.0,0.0,0.0,0.0,0.0,0.0,0.0,0.0,0.0,0.0,0.0,0.0,17.1111,17.0129,17.0248,17.3534,17.3987,17.4667,17.6026,17.4086,17.255,17.2064,0.0,0.0,0.0,0.0,0.0,0.0,0.0,0.0,0.0,0.0,0.0,0.0,0.0,0.0,0.0,0.0,0.0,0.0,0.0,0.0,0.0,0.0,0.0,0.0,0.0,0.0,0.0,0.0,0.0,0.0,0.0,0.0,0.0,0.0,0.0,0.0,0.0,0.0,0.0,0.0,0.0,0.0,0.0,0.0,0.0,0.0,0.0,0.0,0.0,0.0,0.0,0.0,0.0,0.0,0.0,0.0,0.0,0.0,0.0,0.0,0.0,0.0,0.0,0.0,0.0,0.0,0.0,0.0,0.0,0.0,0.0,0.0,0.0,0.0,0.0,0.0,0.0,0.0,0.0,0.0,0.0,0.0,0.0,0.0,0.0,0.0,0.0,0.0,0.0,0.0,0.0,0.0,0.0,0.0,0.0,0.0,0.0,0.0,0.0,0.0,0.0,0.0,16.7293,16.8578,17.0276,17.2625,17.2928,17.3156,17.3838,17.3776,17.2411,16.9438,0.0,0.0,0.0,0.0,0.0,0.0,0.0,0.0,0.0,0.0,0.0,0.0,0.0,0.0,0.0,0.0,0.0,0.0,0.0,0.0,0.0,0.0,0.0,0.0,0.0,0.0,0.0,0.0,0.0,0.0,0.0,0.0,0.0,0.0,0.0,0.0,0.0,0.0,0.0,0.0,0.0,0.0,0.0,0.0,0.0,0.0,0.0,0.0,0.0,0.0,0.0,0.0,0.0,0.0,0.0,0.0,0.0,0.0,0.0,0.0,0.0,0.0,0.0,0.0,0.0,0.0,0.0,0.0,0.0,0.0,0.0,0.0,0.0,0.0,0.0,0.0,0.0,0.0,0.0,0.0,0.0,0.0,0.0,0.0,0.0,0.0,0.0,0.0,0.0,0.0,0.0,0.0,0.0,0.0,0.0,0.0,0.0,0.0,0.0,0.0,0.0,0.0,16.3987,16.6656,16.9096,17.0766,17.1373,17.1676,17.1652,17.2335,17.1045,16.7086,0.0,0.0,0.0,0.0,0.0,0.0,0.0,0.0,0.0,0.0,0.0,0.0,0.0,0.0,0.0,0.0,0.0,0.0,0.0,0.0,0.0,0.0,0.0,0.0,0.0,0.0,0.0,0.0,0.0,0.0,0.0,0.0,0.0,0.0,0.0,0.0,0.0,0.0,0.0,0.0,0.0,0.0,0.0,0.0,0.0,0.0,0.0,0.0,0.0,0.0,0.0,0.0,0.0,0.0,0.0,0.0,0.0,0.0,0.0,0.0,0.0,0.0,0.0,0.0,0.0,0.0,0.0,0.0,0.0,0.0,0.0,0.0,0.0,0.0,0.0,0.0,0.0,0.0,0.0,0.0,0.0,0.0,0.0,0.0,0.0,0.0,0.0,0.0,0.0,0.0,0.0,0.0,0.0,0.0,0.0,0.0,0.0,0.0,0.0,0.0,0.0,0.0,16.209,16.4031,16.5657,16.7251,16.8921,16.9894,16.9907,16.8389,16.6795,0.0,0.0,0.0,0.0,0.0,0.0,0.0,0.0,0.0,0.0,0.0,0.0,0.0,0.0,0.0,0.0,0.0,0.0,0.0,0.0,0.0,0.0,0.0,0.0,0.0,0.0,0.0,0.0,0.0,0.0,0.0,0.0,0.0,0.0,0.0,0.0,0.0,0.0,0.0,0.0,0.0,0.0,0.0,0.0,0.0,0.0,0.0,0.0,0.0,0.0,0.0,0.0,0.0,0.0,0.0,0.0,0.0,0.0,0.0,0.0,0.0,0.0,0.0,0.0,0.0,0.0,0.0,0.0,0.0,0.0,0.0,0.0,0.0,0.0,0.0,0.0,0.0,0.0,0.0,0.0,0.0,0.0,0.0,0.0,0.0,0.0,0.0,0.0,0.0,0.0,0.0,0.0,0.0,0.0,0.0,0.0,0.0,0.0,0.0,0.0,0.0,0.0,0.0,16.2218,16.3997,16.5678,0.0,16.6941,16.7077,16.8173,16.6688,16.4974,16.338,0.0,0.0,0.0,0.0,0.0,0.0,0.0,0.0,0.0,0.0,0.0,0.0,0.0,0.0,0.0,0.0,0.0,0.0,0.0,0.0,0.0,0.0,0.0,0.0,0.0,0.0,0.0,0.0,0.0,0.0,0.0,0.0,0.0,0.0,0.0,0.0,0.0,0.0,0.0,0.0,0.0,0.0,0.0,0.0,0.0,0.0,0.0,0.0,0.0,0.0,0.0,0.0,0.0,0.0,0.0,0.0,0.0,0.0,0.0,0.0,0.0,0.0,0.0,0.0,0.0,0.0,0.0,0.0,0.0,0.0,0.0,0.0,0.0,0.0,0.0,0.0,0.0,0.0,0.0,0.0,0.0,0.0,0.0,0.0,0.0,0.0,0.0,0.0,0.0,0.0,0.0,0.0,0.0,0.0,0.0,0.0,0.0,0.0,0.0,0.0,0.0,0.0,0.0,16.2641,16.4467,0.0,16.5288,16.5201,16.5606,16.4594,16.3252,16.1635,0.0,0.0,0.0,0.0,0.0,0.0,0.0,0.0,0.0,0.0,0.0,0.0,0.0,0.0,0.0,0.0,0.0,0.0,0.0,0.0,0.0,0.0,0.0,0.0,0.0,0.0,0.0,0.0,0.0,0.0,0.0,0.0,0.0,0.0,0.0,0.0,0.0,0.0,0.0,0.0,0.0,0.0,0.0,0.0,0.0,0.0,0.0,0.0,0.0,0.0,0.0,0.0,0.0,0.0,0.0,0.0,0.0,0.0,0.0,0.0,0.0,0.0,0.0,0.0,0.0,0.0,0.0,0.0,0.0,0.0,0.0,0.0,0.0,0.0,0.0,0.0,0.0,0.0,0.0,0.0,0.0,0.0,0.0,0.0,0.0,0.0,0.0,0.0,0.0,0.0,0.0,0.0,0.0,0.0,0.0,0.0,0.0,0.0,0.0,0.0,0.0,0.0,0.0,16.0287,16.2341,16.2493,16.3784,16.4087,16.2645,16.2407,16.1619,15.989,15.9789,0.0,0.0,0.0,0.0,0.0,0.0,0.0,0.0,0.0,0.0,0.0,0.0,0.0,0.0,0.0,0.0,0.0,0.0,0.0,0.0,0.0,0.0,0.0,0.0,0.0,0.0,0.0,0.0,0.0,0.0,0.0,0.0,0.0,0.0,0.0,0.0,0.0,0.0,0.0,0.0,0.0,0.0,0.0,0.0,0.0,0.0,0.0,0.0,0.0,0.0,0.0,0.0,0.0,0.0,0.0,0.0,0.0,0.0,0.0,0.0,0.0,0.0,0.0,0.0,0.0,0.0,0.0,0.0,0.0,0.0,0.0,0.0,0.0,0.0,0.0,0.0,0.0,0.0,0.0,0.0,0.0,0.0,0.0,0.0,0.0,0.0,0.0,0.0,0.0,0.0,0.0,0.0,0.0,0.0,0.0,0.0,0.0,0.0,0.0,0.0,0.0,0.0,15.93,16.105,16.2341,16.1734,16.1506,16.2417,16.1344,15.9873,15.8144,15.808,0.0,0.0,0.0,0.0,0.0,0.0,0.0,0.0,0.0,0.0,0.0,0.0,0.0,0.0,0.0,0.0,0.0,0.0,0.0,0.0,0.0,0.0,0.0,0.0,0.0,0.0,0.0,0.0,0.0,0.0,0.0,0.0,0.0,0.0,0.0,0.0,0.0,0.0,0.0,0.0,0.0,0.0,0.0,0.0,0.0,0.0,0.0,0.0,0.0,0.0,0.0,0.0,0.0,0.0,0.0,0.0,0.0,0.0,0.0,0.0,0.0,0.0,0.0,0.0,0.0,0.0,0.0,0.0,0.0,0.0,0.0,0.0,0.0,0.0,0.0,0.0,0.0,0.0,0.0,0.0,0.0,0.0,0.0,0.0,0.0,0.0,0.0,0.0,0.0,0.0,0.0,0.0,0.0,0.0,0.0,0.0,0.0,0.0,0.0,0.0,0.0,0.0,15.6628,15.8619,16.105,16.0519,16.0367,16.1278,15.9817,15.8405,15.7537,15.602,0.0,0.0,0.0,0.0,0.0,0.0,0.0,0.0,0.0,0.0,0.0,0.0,0.0,0.0,0.0,0.0,0.0,0.0,0.0,0.0,0.0,0.0,0.0,0.0,0.0,0.0,0.0,0.0,0.0,0.0,0.0,0.0,0.0,0.0,0.0,0.0,0.0,0.0,0.0,0.0,0.0,0.0,0.0,0.0,0.0,0.0,0.0,0.0,0.0,0.0,0.0,0.0,0.0,0.0,0.0,0.0,0.0,0.0,0.0,0.0,0.0,0.0,0.0,0.0,0.0,0.0,0.0,0.0,0.0,0.0,0.0,0.0,0.0,0.0,0.0,0.0,0.0,0.0,0.0,0.0,0.0,0.0,0.0,0.0,0.0,0.0,0.0,0.0,0.0,0.0,0.0,0.0,0.0,0.0,0.0,0.0,0.0,0.0,0.0,0.0,0.0,0.0,0.0,15.5869,15.9226,15.9834,15.991,15.9607,15.8279,15.7245,15.6703,0.0,0.0,0.0,0.0,0.0,0.0,0.0,0.0,0.0,0.0,0.0,0.0,0.0,0.0,0.0,0.0,0.0,0.0,0.0,0.0,0.0,0.0,0.0,0.0,0.0,0.0,0.0,0.0,0.0,0.0,0.0,0.0,0.0,0.0,0.0,0.0,0.0,0.0,0.0,0.0,0.0,0.0,0.0,0.0,0.0,0.0,0.0,0.0,0.0,0.0,0.0,0.0,0.0,0.0,0.0,0.0,0.0,0.0,0.0,0.0,0.0,0.0,0.0,0.0,0.0,0.0,0.0,0.0,0.0,0.0,0.0,0.0,0.0,0.0,0.0,0.0,0.0,0.0,0.0,0.0,0.0,0.0,0.0,0.0,0.0,0.0,0.0,0.0,0.0,0.0,0.0,0.0,0.0,0.0,0.0,0.0,0.0,0.0,0.0,0.0,0.0,0.0,0.0,0.0,0.0,15.7463,15.9106,15.9401,15.7995,15.7609,15.6222,15.3364,0.0,0.0,0.0,0.0,0.0,0.0,0.0,0.0,0.0,0.0,0.0,0.0,0.0,0.0]}],[{"header":{"parameterUnit":"kt","parameterCategory":2,"dx":1,"dy":1,"la1":29.285339999999998,"la2":30.599998999999997,"lo1":-89.70041500000002,"lo2":-87.6738589999976,"nx":112,"ny":82,"refTime":"2022-09-27T06:00:00:Z","depth":0,"parameterNumber":2,"parameterNumberName":"V-component_of_WINDS"},"data":[0.0,0.7512,1.6493,2.1944,2.3143,2.362,2.3291,2.3302,2.328,0.0,0.0,0.0,0.0,0.0,0.0,0.0,0.0,0.0,0.0,2.4221,0.0,0.0,0.0,0.0,0.0,0.0,0.0,0.0,0.0,0.0,0.0,2.8057,2.811,2.7972,2.7972,2.792,2.7835,2.7835,2.7835,2.7835,2.7835,2.7835,2.7835,2.7835,2.7972,2.8194,2.8437,2.8659,2.8902,2.9124,2.923,2.923,2.923,2.923,2.9283,2.9748,3.0023,3.0213,3.0519,3.0625,3.0657,3.0657,3.0657,3.0678,3.0678,3.0678,3.0783,3.0701,2.5452,2.1637,2.9006,2.6114,1.7062,0.3512,0.0,0.0,0.0,0.0,0.0,0.0,0.0,0.0,0.0,0.0,0.0,0.0,0.0,0.0,0.0,0.0,0.0,0.0,0.0,0.0,0.0,0.0,0.0,0.0,0.0,0.0,0.0,0.0,0.0,0.0,0.0,0.0,0.0,0.0,0.0,0.0,0.0,0.0,0.3175,1.3393,2.3009,2.2657,2.2826,2.3363,2.3058,0.0,0.0,0.0,0.0,0.0,0.0,0.0,0.0,0.0,0.0,0.0,0.0,0.0,0.0,0.0,0.0,0.0,0.0,0.0,0.0,0.0,2.8163,0.0,2.8089,2.8141,2.8194,2.8194,2.8025,2.7951,2.7951,2.7951,2.792,2.7835,2.7835,2.7835,2.7835,2.7835,2.8004,2.83,2.8469,2.8712,2.9008,2.9177,2.923,2.923,2.923,2.923,2.9283,2.9748,2.9917,2.997,3.0466,3.0625,3.0625,3.0625,3.0625,3.0625,3.0625,3.0625,3.0709,3.0952,3.0659,3.0898,3.0769,3.1481,2.6071,0.5014,0.0,0.0,0.0,0.0,0.0,0.0,0.0,0.0,0.0,0.0,0.0,0.0,0.0,0.0,0.0,0.0,0.0,0.0,0.0,0.0,0.0,0.0,0.0,0.0,0.0,0.0,0.0,0.0,0.0,0.0,0.0,0.0,0.0,0.0,0.0,0.0,0.0,0.0,0.9721,1.6835,2.2193,2.2446,2.2424,2.2319,0.0,0.0,2.2541,0.0,0.0,0.0,0.0,0.0,0.0,0.0,0.0,0.0,0.0,0.0,0.0,0.0,0.0,0.0,0.0,2.7423,2.7835,0.0,2.849,2.8765,2.8522,2.8332,2.8416,2.885,2.8437,2.8194,2.8194,2.8194,2.8078,2.7835,2.7835,2.7835,2.7835,2.7835,2.8089,2.8522,2.8522,2.8797,2.923,2.923,2.923,2.923,2.923,2.923,2.9283,2.9748,2.9917,2.997,3.0466,3.0625,3.0625,3.0625,3.0625,3.0625,3.0625,3.0657,3.0731,3.0921,3.1026,3.0732,3.119,3.0841,2.4907,0.5004,0.0,0.0,0.0,0.0,0.0,0.0,0.0,0.0,0.0,0.0,0.0,0.0,0.0,0.0,0.0,0.0,0.0,0.0,0.0,0.0,0.0,0.0,0.0,0.0,0.0,0.0,0.0,0.0,0.0,0.0,0.0,0.0,0.0,0.0,0.0,0.0,0.0,0.0,0.941,1.6236,0.0,0.0,0.0,0.0,0.0,0.0,0.0,0.0,0.0,0.0,0.0,0.0,0.0,0.0,0.0,2.4973,0.0,2.5441,0.0,0.0,0.0,0.0,0.0,2.7592,2.8025,2.7835,2.8628,2.8955,2.8554,2.8628,2.8659,2.8628,2.849,2.8353,2.8194,2.8194,2.8078,2.7835,2.7835,2.7835,2.7835,2.7835,2.8089,2.8522,2.8522,2.8797,2.923,2.923,2.923,2.923,2.923,2.923,2.9262,2.9558,2.9779,2.997,3.0266,3.0487,3.0625,3.0625,3.0625,3.0625,3.0625,3.0625,3.0657,3.0709,3.0847,3.1026,3.0763,2.5108,1.6358,0.2983,0.0,0.0,0.0,0.0,0.0,0.0,0.0,0.0,0.0,0.0,0.0,0.0,0.0,0.0,0.0,0.0,0.0,0.0,0.0,0.0,0.0,0.0,0.0,0.0,0.0,0.0,0.0,0.0,0.0,0.0,0.0,0.0,0.0,0.0,0.0,0.0,0.0,0.0,0.0,0.0,0.0,0.0,0.0,0.0,2.1896,0.0,2.2298,0.0,0.0,0.0,0.0,0.0,0.0,0.0,2.4693,2.53,0.0,0.0,2.6117,2.6091,0.0,0.0,2.6905,2.7782,2.8247,2.8004,2.8765,2.9071,2.8691,2.8712,2.8765,2.8818,2.8712,2.8606,2.849,2.8385,2.8215,2.7972,2.7888,2.7835,2.7835,2.7835,2.8089,2.8522,2.8522,2.8797,2.923,2.923,2.923,2.923,2.923,2.923,2.9262,2.9505,2.9727,2.9938,3.0192,3.0435,3.0625,3.0625,3.0625,3.0625,3.0625,3.0625,3.0625,3.0625,3.0709,3.0868,3.0576,2.2982,1.2815,0.2477,0.0,0.0,0.0,0.0,0.0,0.0,0.0,0.0,0.0,0.0,0.0,0.0,0.0,0.0,0.0,0.0,0.0,0.0,0.0,0.0,0.0,0.0,0.0,0.0,0.0,0.0,0.0,0.0,0.0,0.0,0.0,0.0,0.0,0.0,0.0,0.0,0.0,0.0,0.0,0.0,0.0,0.0,2.1389,0.0,0.0,0.0,2.2382,2.2646,0.0,2.3249,2.3893,0.0,0.0,2.4665,2.4718,2.4749,2.477,2.5024,2.5605,2.6673,2.6821,2.6937,2.719,2.7951,2.8385,2.8279,2.885,2.9124,2.8934,2.8712,2.8797,2.923,2.904,2.8902,2.8881,2.8659,2.8437,2.8194,2.7972,2.7867,2.7835,2.7835,2.8089,2.849,2.8522,2.8765,2.9198,2.923,2.923,2.923,2.923,2.923,2.9262,2.9473,2.9695,2.9938,3.016,3.0403,3.0625,3.0625,3.0625,3.0625,3.0625,3.0625,3.0625,3.0625,3.0625,3.0709,3.0493,2.2905,1.3241,0.5441,0.1496,0.0,0.0,0.0,0.0,0.0,0.0,0.0,0.0,0.0,0.0,0.0,0.0,0.0,0.0,0.0,0.0,0.0,0.0,0.0,0.0,0.0,0.0,0.0,0.0,0.0,0.0,0.0,0.0,0.0,0.0,0.0,0.0,0.0,0.0,0.0,0.0,0.0,0.0,0.0,0.0,0.0,0.0,2.1695,0.0,0.0,0.0,2.308,2.3365,2.3629,2.3957,2.421,2.4443,2.4665,2.5637,2.6222,2.5246,2.5795,2.6334,2.6747,2.6958,2.7233,2.7645,2.7867,2.8194,2.8712,2.8881,2.9008,2.9145,2.9124,2.9145,2.923,2.9177,2.9071,2.8881,2.8818,2.8606,2.8194,2.8141,2.8025,2.7835,2.7835,2.8004,2.8279,2.8437,2.868,2.8955,2.9145,2.923,2.923,2.923,2.923,2.923,2.9283,2.9558,2.9917,2.997,3.0266,3.0625,3.0625,3.0625,3.0625,3.0625,3.0625,3.0625,3.0625,3.0625,3.0657,3.0762,2.3271,1.7145,2.3146,1.193,0.0,0.0,0.0,0.0,0.0,0.0,0.0,0.0,0.0,0.0,0.0,0.0,0.0,0.0,0.0,0.0,0.0,0.0,0.0,0.0,0.0,0.0,0.0,0.0,0.0,0.0,0.0,0.0,0.0,0.0,0.0,0.0,0.0,0.0,0.0,0.0,0.0,0.0,0.0,0.0,2.104,0.0,0.0,0.0,2.2541,2.2932,2.3386,2.3671,2.3946,2.4295,2.4644,2.4961,2.5183,2.5713,2.596,2.6039,2.6599,2.7053,2.7296,2.7507,2.7814,2.8141,2.8194,2.8385,2.885,2.8881,2.8934,2.904,2.904,2.9093,2.923,2.923,2.9177,2.9071,2.8934,2.8765,2.8522,2.8416,2.8247,2.8025,2.8025,2.8089,2.8194,2.8437,2.8659,2.8902,2.9124,2.923,2.923,2.923,2.923,2.923,2.923,2.9526,2.9917,2.9917,3.0213,3.0625,3.0625,3.0625,3.0625,3.0625,3.0625,3.0625,3.0625,3.0625,3.0625,3.0678,2.7132,2.4502,2.9535,2.3379,1.3048,0.2509,0.0,0.0,0.0,0.0,0.0,0.0,0.0,0.0,0.0,0.0,0.0,0.0,0.0,0.0,0.0,0.0,0.0,0.0,0.0,0.0,0.0,0.0,0.0,0.0,0.0,0.0,0.0,0.0,0.0,0.0,0.0,0.0,0.0,0.0,0.0,0.8601,1.5398,0.0,0.0,0.0,0.0,2.234,2.2731,2.3164,2.3629,2.3883,2.4158,2.4612,2.5045,2.5436,2.5753,2.5838,2.6134,2.6895,2.7317,2.7645,2.7951,2.8141,2.8353,2.8575,2.8606,2.8691,2.8934,2.8955,2.8955,2.8955,2.8955,2.904,2.923,2.923,2.923,2.923,2.904,2.8934,2.8881,2.8691,2.8469,2.8247,2.8215,2.8194,2.8194,2.8437,2.8628,2.8818,2.9124,2.923,2.923,2.923,2.923,2.923,2.923,2.9526,2.9917,2.9917,3.0213,3.0625,3.0625,3.0625,3.0625,3.0625,3.0625,3.0625,3.0625,3.0625,3.0625,3.0678,3.1005,3.0867,3.1002,3.1346,2.6114,0.4513,0.0,0.0,0.0,0.0,0.0,0.0,0.0,0.0,0.0,0.0,0.0,0.0,0.0,0.0,0.0,0.0,0.0,0.0,0.0,0.0,0.0,0.0,0.0,0.0,0.0,0.0,0.0,0.0,0.0,0.0,0.0,0.0,0.0,0.0,0.0,0.8682,1.562,2.0987,2.1177,2.1727,0.0,2.2794,2.309,2.3397,2.3883,2.3999,2.4158,2.4612,2.4908,2.5299,2.5943,2.6229,2.6683,2.7592,2.775,2.7951,2.8385,2.8469,2.8575,2.8818,2.885,2.8934,2.9177,2.9198,2.9198,2.9198,2.9198,2.9198,2.923,2.923,2.923,2.923,2.9198,2.9093,2.8881,2.885,2.8712,2.8469,2.8279,2.8194,2.8194,2.8437,2.8554,2.8606,2.904,2.923,2.923,2.923,2.923,2.923,2.923,2.9526,2.9917,2.9917,3.0213,3.0625,3.0625,3.0625,3.0625,3.0625,3.0625,3.0625,3.0625,3.0625,3.0625,3.0625,3.0836,3.0659,3.0919,3.1211,2.4956,0.4508,0.0,0.0,0.0,0.0,0.0,0.0,0.0,0.0,0.0,0.0,0.0,0.0,0.0,0.0,0.0,0.0,0.0,0.0,0.0,0.0,0.0,0.0,0.0,0.0,0.0,0.0,0.0,0.0,0.0,0.0,0.0,0.0,0.0,0.0,0.0,0.8631,1.5442,2.0681,2.1283,0.0,0.0,2.3027,2.3449,2.3851,2.4316,2.4527,2.476,2.5214,2.5605,2.6007,2.643,2.681,2.7286,2.7951,2.8057,2.8215,2.868,2.8744,2.8818,2.9071,2.9093,2.9124,2.923,2.9093,2.9093,2.923,2.923,2.923,2.923,2.923,2.923,2.923,2.923,2.9177,2.9093,2.9093,2.8955,2.8712,2.849,2.83,2.8194,2.8437,2.8522,2.8554,2.904,2.923,2.923,2.923,2.923,2.923,2.923,2.9452,2.9748,2.9864,3.0128,3.0435,3.0572,3.0625,3.0625,3.0625,3.0625,3.0625,3.0625,3.0625,3.0625,3.0625,3.0815,3.1079,3.0898,2.6167,1.7884,0.3006,0.0,0.0,0.0,0.0,0.0,0.0,0.0,0.0,0.0,0.0,0.0,0.0,0.0,0.0,0.0,0.0,0.0,0.0,0.0,0.0,0.0,0.0,0.0,0.0,0.0,0.0,0.0,0.0,0.0,0.0,0.0,0.0,0.0,0.0,0.0,1.078,0.0,0.0,0.0,0.0,0.0,2.3175,2.3671,2.4105,2.4443,2.4802,2.5193,2.5648,2.6123,2.6588,2.7021,2.737,2.775,2.8215,2.8279,2.8469,2.8934,2.8987,2.904,2.9198,2.9177,2.9145,2.923,2.8955,2.8902,2.9198,2.9177,2.9177,2.923,2.923,2.923,2.923,2.923,2.923,2.923,2.923,2.9145,2.8955,2.8659,2.8437,2.83,2.8437,2.8522,2.8554,2.904,2.923,2.923,2.923,2.923,2.923,2.923,2.9388,2.961,2.9832,3.0075,3.0297,3.054,3.0625,3.0625,3.0625,3.0625,3.0625,3.0625,3.0625,3.0625,3.0625,3.0762,3.0974,3.0888,2.2647,1.2364,0.2002,0.0,0.0,0.0,0.0,0.0,0.0,0.0,0.0,0.0,0.0,0.0,0.0,0.0,0.0,0.0,0.0,0.0,0.0,0.0,0.0,0.0,0.0,0.0,0.0,0.0,0.0,0.0,0.0,0.0,0.0,0.0,0.0,0.0,0.0,0.0,0.0,0.0,0.0,2.179,2.2435,2.3016,2.3249,2.3671,2.402,2.4031,2.458,2.5193,2.5648,2.6123,2.6747,2.7645,2.7814,2.7972,2.8437,2.8522,2.868,2.9177,2.923,2.923,2.923,2.9008,2.8987,2.9198,2.8797,2.8744,2.9198,2.9008,2.8987,2.923,2.923,2.923,2.923,2.923,2.923,2.923,2.923,2.923,2.9198,2.8744,2.8522,2.8522,2.8522,2.8522,2.8554,2.904,2.923,2.923,2.923,2.923,2.923,2.923,2.9388,2.961,2.9832,3.0075,3.0297,3.054,3.0625,3.0625,3.0625,3.0625,3.0625,3.0625,3.0625,3.0625,3.0625,3.0625,3.0783,3.0836,2.3037,1.2781,0.2,0.0,0.0,0.0,0.0,0.0,0.0,0.0,0.0,0.0,0.0,0.0,0.0,0.0,0.0,0.0,0.0,0.0,0.0,0.0,0.0,0.0,0.0,0.0,0.0,0.0,0.0,0.0,0.0,0.0,0.0,0.0,0.0,0.0,0.0,0.0,1.7869,2.104,2.1664,2.2424,2.2911,2.3333,2.3883,2.4253,2.4559,2.4876,2.5235,2.57,2.6324,2.6694,2.7053,2.7539,2.7729,2.7951,2.8247,2.8437,2.8628,2.8955,2.9124,2.9177,2.9008,2.8934,2.885,2.8765,2.8606,2.8606,2.8744,2.8818,2.8902,2.8987,2.9145,2.923,2.923,2.923,2.923,2.923,2.923,2.923,2.9198,2.8744,2.8522,2.8522,2.8522,2.8522,2.8554,2.904,2.923,2.923,2.923,2.923,2.923,2.923,2.9283,2.9399,2.9779,2.997,3.0107,3.0487,3.0625,3.0625,3.0625,3.0625,3.0625,3.0625,3.0625,3.0625,3.0625,3.0625,3.0762,3.0836,2.3037,1.6233,2.0552,1.0039,0.0,0.0,0.0,0.0,0.0,0.0,0.0,0.0,0.0,0.0,0.0,0.0,0.0,0.0,0.0,0.0,0.0,0.0,0.0,0.0,0.0,0.0,0.0,0.0,0.0,0.0,0.0,0.0,0.0,0.0,0.0,0.0,0.0,0.0,1.9021,2.1399,2.1801,2.2741,2.3206,2.3576,2.4115,2.4538,2.4908,2.5214,2.5521,2.5922,2.6556,2.6926,2.7212,2.7455,2.7677,2.792,2.8163,2.8385,2.8575,2.8744,2.8955,2.9008,2.8765,2.868,2.8606,2.8522,2.8353,2.8353,2.8522,2.8659,2.8797,2.8881,2.9093,2.923,2.923,2.923,2.923,2.923,2.923,2.9177,2.9093,2.8712,2.8469,2.8416,2.849,2.8522,2.8554,2.904,2.923,2.923,2.923,2.923,2.923,2.923,2.923,2.9283,2.9663,2.9864,2.997,3.0382,3.054,3.0625,3.0625,3.0625,3.0625,3.0625,3.0625,3.0625,3.0625,3.0625,3.0709,3.0597,2.5869,2.3138,3.0629,1.5062,0.0,0.0,0.0,0.0,0.0,0.0,0.0,0.0,0.0,0.0,0.0,0.0,0.0,0.0,0.0,0.0,0.0,0.0,0.0,0.0,0.0,0.0,0.0,0.0,0.0,0.0,0.0,0.0,0.0,0.0,0.0,0.0,0.0,0.0,1.9727,2.1674,2.1885,2.2784,2.3354,2.3756,2.3999,2.458,2.5077,2.5087,2.5436,2.5891,2.6356,2.6831,2.7212,2.7423,2.7677,2.792,2.8141,2.8353,2.849,2.849,2.8712,2.8744,2.8522,2.83,2.8279,2.8469,2.8089,2.8025,2.8469,2.849,2.8606,2.8828,2.9071,2.9198,2.9198,2.9198,2.923,2.923,2.923,2.9093,2.8881,2.8628,2.8385,2.8194,2.8416,2.8522,2.8554,2.9008,2.923,2.923,2.923,2.923,2.923,2.923,2.923,2.9262,2.9505,2.9727,2.9938,3.0192,3.0435,3.0625,3.0625,3.0625,3.0625,3.0625,3.0625,3.0625,3.0625,3.0625,3.0625,3.0625,3.1005,3.1034,3.2073,1.5548,0.0502,0.0,0.0,0.0502,0.1505,0.0502,0.0,0.0,0.0,0.0,0.0,0.0,0.0,0.0,0.0,0.0,0.0,0.0,0.0,0.0,0.0,0.0,0.0,0.0,0.0,0.0,0.0,0.0,0.0,0.0,0.0,0.0,0.0,0.0,2.0179,2.2393,2.2963,2.3386,2.384,2.4242,2.4475,2.494,2.5362,2.5521,2.5795,2.6091,2.6387,2.6968,2.7349,2.7233,2.756,2.7867,2.792,2.7972,2.8089,2.8247,2.8332,2.8332,2.8279,2.8215,2.8141,2.8025,2.7888,2.7888,2.8004,2.8194,2.83,2.8353,2.8575,2.8797,2.8955,2.8955,2.9071,2.923,2.904,2.8934,2.8881,2.8469,2.8141,2.7951,2.8163,2.8353,2.8554,2.885,2.9071,2.923,2.923,2.923,2.923,2.923,2.923,2.9262,2.9505,2.9727,2.9938,3.0192,3.0435,3.0625,3.0625,3.0625,3.0625,3.0625,3.0625,3.0625,3.0625,3.0625,3.0625,3.0625,3.1005,3.095,3.1629,2.1381,0.9506,0.1501,0.0,0.5017,2.1094,1.0534,0.0,0.0,0.0,0.0,0.0,0.0,0.0,0.0,0.0,0.0,0.0,0.0,0.0,0.0,0.0,0.0,0.0,0.0,0.0,0.0,0.0,0.0,0.0,0.0,0.0,0.0,0.0,0.0,1.6025,1.9806,2.2974,2.3523,2.402,2.4422,2.4644,2.514,2.5584,2.5711,2.6091,2.644,2.6577,2.7085,2.7402,2.7169,2.7539,2.775,2.756,2.7698,2.7814,2.7729,2.792,2.8004,2.7888,2.7972,2.7972,2.7835,2.7835,2.7835,2.7835,2.8057,2.8194,2.8194,2.8416,2.8575,2.8712,2.8818,2.8934,2.9071,2.8934,2.8818,2.8712,2.8353,2.8057,2.7835,2.8089,2.8332,2.8554,2.8765,2.9008,2.923,2.923,2.923,2.923,2.923,2.923,2.9262,2.9399,2.9589,2.9801,3.0054,3.0266,3.0487,3.0604,3.0625,3.0625,3.0625,3.0625,3.0625,3.0625,3.0625,3.0625,3.0625,3.1005,3.1354,3.1417,2.6801,2.0012,0.8997,1.1017,1.8051,3.0199,2.2102,1.1035,0.1504,0.0,0.1505,0.6539,0.7114,0.7174,0.7198,0.727,0.7316,0.7316,0.7316,0.7316,0.7316,1.2035,1.4671,1.4671,1.4685,0.9956,0.0,0.0,0.0,0.0,0.0,0.0,0.0,0.0,0.0,1.2258,1.7021,2.2488,2.3386,2.3988,2.4422,2.4644,2.5235,2.5732,2.5732,2.6282,2.6757,2.6757,2.7148,2.7402,2.7169,2.7507,2.7645,2.7233,2.7486,2.756,2.718,2.7486,2.7677,2.7507,2.7698,2.7835,2.7835,2.7835,2.7835,2.7835,2.8025,2.8141,2.8141,2.8332,2.8437,2.8469,2.8691,2.8797,2.8818,2.8818,2.8712,2.8469,2.8247,2.8025,2.7835,2.8057,2.8279,2.8554,2.8744,2.8987,2.923,2.923,2.923,2.923,2.923,2.923,2.923,2.923,2.9399,2.961,2.9832,3.0075,3.0329,3.054,3.0625,3.0625,3.0625,3.0625,3.0625,3.0625,3.0625,3.0625,3.0625,3.0984,3.1301,3.1354,3.1766,2.9111,2.0019,2.5563,3.2157,3.221,3.0709,2.3604,0.5004,0.3506,0.7528,1.667,1.8343,1.848,1.9103,1.8724,1.8802,1.8802,1.8802,1.8802,1.8802,2.8318,3.3658,3.3658,3.3187,2.4176,0.4714,0.1571,0.0,0.0,0.0,0.0,0.0,0.0,0.0,2.0654,2.1754,2.2837,2.3185,2.3872,2.4422,2.4644,2.5235,2.5732,2.5732,2.6144,2.6504,2.6504,2.7042,2.7402,2.7169,2.737,2.7507,2.7423,2.7169,2.7021,2.7116,2.7201,2.7307,2.7455,2.7698,2.7835,2.7835,2.7835,2.7835,2.7835,2.7867,2.7888,2.7888,2.7951,2.8057,2.8247,2.83,2.8416,2.8575,2.8575,2.8469,2.8247,2.8004,2.7867,2.7835,2.7888,2.8141,2.8522,2.8575,2.885,2.923,2.923,2.923,2.923,2.923,2.923,2.923,2.923,2.9399,2.961,2.9832,3.0075,3.0329,3.054,3.0625,3.0625,3.0625,3.0625,3.0625,3.0625,3.0625,3.0625,3.0625,3.0984,3.1312,3.1312,3.1745,3.1595,2.9562,3.0578,3.2125,3.2157,2.4572,1.7516,1.3504,2.064,2.7354,2.8914,2.9773,3.0546,3.0595,3.079,3.0396,3.0396,3.0396,3.0396,3.0396,3.251,3.3594,3.3658,3.3658,3.1557,2.784,0.9423,0.0,0.0,0.0,0.0,0.0,0.0,0.0,2.2817,2.2587,2.2622,2.2815,2.3661,2.4422,2.4644,2.5151,2.5595,2.5711,2.6113,2.6482,2.6609,2.7,2.7264,2.7148,2.7222,2.7254,2.7148,2.6937,2.6789,2.6778,2.6979,2.7169,2.7286,2.7624,2.7835,2.7835,2.7835,2.7835,2.7835,2.7835,2.7835,2.7835,2.7835,2.7888,2.8004,2.8141,2.8247,2.8353,2.8469,2.8416,2.8194,2.7951,2.7835,2.7835,2.7835,2.8025,2.8353,2.8469,2.8744,2.9071,2.9177,2.923,2.923,2.923,2.923,2.923,2.923,2.9314,2.9452,2.9663,2.9885,3.0128,3.0382,3.0519,3.0625,3.0625,3.0625,3.0625,3.0625,3.0625,3.0625,3.0625,3.0984,3.1312,3.1312,3.1713,3.2104,3.2073,3.2073,3.2104,3.2073,2.754,2.4532,2.4532,2.8744,3.2001,3.259,3.2918,3.3193,3.3309,3.3415,3.3489,3.3489,3.3489,3.3489,3.3489,3.352,3.3542,3.3573,3.3594,3.3626,3.3658,1.1523,0.0,0.0,0.0,0.0,0.0,0.0,0.0,2.0292,2.1442,2.2547,2.2594,2.3418,2.4231,2.4612,2.5024,2.5394,2.5616,2.5996,2.6366,2.6599,2.6873,2.7053,2.7053,2.7053,2.7,2.6821,2.6757,2.6651,2.6461,2.6852,2.7127,2.7127,2.756,2.7835,2.7835,2.7835,2.7835,2.7835,2.7835,2.7835,2.7835,2.7835,2.7835,2.7835,2.8025,2.811,2.811,2.83,2.8279,2.811,2.792,2.7835,2.8278,2.7835,2.7972,2.8215,2.8437,2.8659,2.8902,2.9145,2.923,2.923,2.923,2.923,2.923,2.923,2.923,2.9262,2.9505,2.9695,2.9885,3.0192,3.0403,3.0572,3.1079,3.1111,3.1111,3.1111,3.1111,3.1111,3.0625,3.0984,3.1312,3.1312,3.1713,3.2073,3.202,3.2041,3.2073,3.202,3.2041,3.2104,3.2157,3.24,3.259,3.2696,3.295,3.3193,3.3383,3.3415,3.3415,3.3415,3.3415,3.3415,3.3415,3.3436,3.3489,3.3489,3.3542,3.251,2.9865,1.0446,0.0,0.0,0.0,0.0,0.0,0.0,0.0,1.2189,1.7335,2.2625,2.2879,2.3175,2.3629,2.4496,2.4897,2.5151,2.5383,2.5626,2.5869,2.6113,2.6525,2.6831,2.6831,2.6831,2.6821,2.6799,2.6609,2.6472,2.6451,2.6852,2.7127,2.7127,2.756,2.7835,2.7835,2.7835,2.7835,2.7835,2.7835,2.7835,2.7835,2.7835,2.7835,2.7835,2.7867,2.7867,2.7867,2.7888,2.7888,2.7867,2.7835,2.8256,2.954,2.8256,2.7972,2.8215,2.8437,2.8659,2.8902,2.9145,2.923,2.923,2.923,2.923,2.923,2.923,2.923,2.9262,2.9505,2.9589,2.9695,3.0128,3.0297,3.0832,3.1962,3.2503,3.2503,3.2503,3.2503,3.2028,3.1111,3.0984,3.1312,3.1312,3.1692,3.202,3.202,3.202,3.202,3.202,3.202,3.2104,3.2295,3.2696,3.2918,3.2728,3.3108,3.3383,3.3415,3.3415,3.3415,3.3415,3.3415,3.3415,3.3415,3.3415,3.3436,3.3489,3.3542,2.8713,1.8635,0.6215,0.0,0.0,0.0,0.0,0.0,0.0,0.0,1.5019,1.9845,2.2308,2.2498,2.2826,2.3312,2.4105,2.4475,2.4781,2.5299,2.5478,2.5648,2.6017,2.625,2.6461,2.6757,2.6683,2.6641,2.6778,2.6599,2.644,2.644,2.6852,2.7127,2.7127,2.756,2.7835,2.7835,2.7835,2.7835,2.7835,2.7835,2.7835,2.7835,2.7835,2.7835,2.7835,2.7835,2.7835,2.7835,2.7835,2.8278,2.8699,2.9551,2.9982,2.954,2.9131,2.831,2.8004,2.8385,2.8575,2.8712,2.9093,2.923,2.923,2.923,2.923,2.923,2.923,2.923,2.9262,2.9336,2.9473,2.961,2.9801,3.0499,3.1674,3.2245,3.2875,3.3451,3.2514,3.2503,3.2028,3.1111,3.0984,3.1312,3.1312,3.1692,3.202,3.202,3.202,3.202,3.202,3.202,3.2041,3.2125,3.2316,3.2453,3.2485,3.3024,3.3362,3.3224,3.333,3.3415,3.3415,3.3415,3.3415,3.3415,3.3415,3.3415,3.3436,3.3489,2.8158,1.7047,1.917,1.3422,0.0,0.0,0.0,0.0,0.0,0.0,1.9165,2.1968,2.2332,2.2308,2.2636,2.3048,2.3745,2.4041,2.4358,2.5056,2.5309,2.551,2.5827,2.5996,2.6197,2.6535,2.6504,2.6504,2.6673,2.6556,2.6472,2.6535,2.6895,2.7159,2.7222,2.7592,2.7835,2.7835,2.7835,2.7835,2.7835,2.7835,2.7835,2.7835,2.8278,2.8278,2.7835,2.8688,2.8688,2.7835,2.8688,2.9574,3.0402,3.1275,3.0833,2.9982,2.9551,2.8699,2.7867,2.8194,2.8416,2.8575,2.904,2.923,2.923,2.923,2.923,2.923,2.923,2.923,2.923,2.923,2.9346,2.9941,2.9558,3.078,3.2499,3.2579,3.3726,3.4897,3.3451,3.3,3.2514,3.1564,3.1465,3.1312,3.1312,3.1692,3.202,3.202,3.202,3.202,3.202,3.202,3.2041,3.2104,3.2073,3.2125,3.24,3.2833,3.3087,3.3055,3.3277,3.3415,3.3415,3.3415,3.3415,3.3415,3.3415,3.3415,3.3415,3.3468,2.9667,2.1629,2.9497,2.5799,0.9707,0.3058,0.0,0.0,0.0,0.0,2.2207,2.2194,2.1812,2.2498,2.2646,2.2805,2.3502,2.3661,2.3862,2.4559,2.5077,2.5404,2.5415,2.5785,2.6091,2.6091,2.6292,2.644,2.6451,2.6451,2.6535,2.6768,2.7,2.7222,2.7455,2.7698,2.7835,2.7835,2.7835,2.7835,2.7835,2.7835,2.7835,2.7835,2.9131,2.9131,2.7835,2.9994,2.9994,2.7835,2.9994,3.173,3.301,3.173,3.1275,3.1275,2.9982,2.8699,2.7835,2.7835,2.811,2.8575,2.904,2.923,2.923,2.923,2.923,2.923,2.923,2.923,2.923,2.923,3.0126,3.1077,2.9973,3.1571,3.3687,3.396,3.5139,3.582,3.4897,3.4423,3.3937,3.2989,3.1935,3.1312,3.1312,3.1692,3.202,3.202,3.202,3.202,3.202,3.202,3.2104,3.2316,3.2157,3.2178,3.2643,3.2506,3.2538,3.3003,3.3277,3.3415,3.3415,3.3415,3.3415,3.3415,3.3415,3.3415,3.3415,3.3468,3.3277,3.2781,3.3407,3.2833,3.1568,1.0568,0.0,0.0,0.0,0.0,1.341,1.5645,1.7604,2.137,2.2266,2.252,2.3069,2.3439,2.3767,2.4147,2.4601,2.5024,2.5352,2.5521,2.5722,2.6039,2.6155,2.626,2.6419,2.644,2.6535,2.6768,2.7,2.7222,2.7455,2.7698,2.7835,2.7835,2.7835,2.7835,2.7835,2.7835,2.8278,2.9131,2.954,2.9551,2.9994,3.0845,3.0845,3.0425,3.258,3.3428,3.3023,3.3428,3.3428,3.2567,3.1275,2.9982,2.9131,2.8278,2.8025,2.8332,2.8797,2.9093,2.923,2.923,2.923,2.923,2.923,2.923,2.923,3.0126,3.0568,3.1055,3.1577,3.3152,3.4794,3.5078,3.6284,3.6982,3.556,3.5684,3.5359,3.2989,3.2393,3.2273,3.1312,3.1692,3.202,3.202,3.202,3.202,3.202,3.202,3.2041,3.2104,3.2073,3.2125,3.2421,3.24,3.2538,3.3003,3.3277,3.3351,3.3193,3.333,3.3415,3.3415,3.3415,3.3415,3.3415,3.3436,3.3246,3.3354,3.2865,2.5568,1.0142,0.3541,0.0,0.0,0.0,0.0,1.1964,1.5787,1.7398,2.0805,2.197,2.215,2.271,2.3132,2.3492,2.3819,2.4179,2.458,2.5056,2.5288,2.5531,2.5891,2.6028,2.6176,2.6408,2.644,2.6567,2.6884,2.7042,2.7254,2.7592,2.775,2.7835,2.7835,2.7835,2.7835,2.7835,2.7835,2.8256,2.954,2.9982,3.0402,3.1275,3.2137,3.258,3.258,3.43,3.4287,3.387,3.4287,3.4313,3.3023,3.2137,3.1275,2.9994,2.9131,2.883,2.8675,2.8606,2.8934,2.923,2.923,2.923,2.923,2.923,2.9694,3.0126,3.1021,3.1915,3.2391,3.2843,3.4398,3.5573,3.5725,3.6545,3.7763,3.6841,3.6487,3.5684,3.3902,3.3376,3.3266,3.1798,3.2163,3.2495,3.202,3.202,3.202,3.202,3.202,3.202,3.202,3.202,3.2073,3.221,3.2295,3.2453,3.276,3.3087,3.3246,3.3193,3.333,3.3415,3.3415,3.333,3.333,3.3415,3.333,3.314,3.3322,2.8622,1.981,0.6052,0.2019,0.0,0.0,0.0,0.0,1.6969,2.0443,2.0724,2.1073,2.1431,2.178,2.2467,2.2794,2.308,2.3534,2.3819,2.4126,2.457,2.5035,2.5436,2.5669,2.5912,2.6144,2.6387,2.643,2.6609,2.7074,2.7127,2.7317,2.7782,2.7835,2.7835,2.7835,2.7835,2.7835,2.7835,2.7835,2.8256,2.9551,3.0833,3.1287,3.1718,3.387,3.4717,3.4717,3.4717,3.4717,3.4717,3.4717,3.4313,3.3023,3.3023,3.2567,3.1275,2.9994,2.9697,2.9921,2.8868,2.8797,2.9177,2.923,2.923,2.923,2.923,3.0126,3.1033,3.1486,3.2855,3.4188,3.3284,3.484,3.6879,3.5535,3.6378,3.7697,3.7697,3.6815,3.5943,3.4813,3.4791,3.4687,3.1776,3.2643,3.3488,3.2517,3.202,3.202,3.202,3.202,3.202,3.202,3.202,3.202,3.202,3.221,3.2347,3.2347,3.276,3.3108,3.333,3.3362,3.3362,3.3362,3.3161,3.314,3.3362,3.314,3.2918,3.2675,2.2313,1.7135,1.7005,0.7014,0.1505,0.0,0.0,0.0,1.8045,2.0491,2.0786,2.1494,2.1748,2.197,2.2498,2.2667,2.2837,2.3291,2.3576,2.383,2.4126,2.4549,2.5003,2.5415,2.5669,2.5901,2.6134,2.6334,2.6609,2.7074,2.7127,2.7317,2.7782,2.7835,2.7835,2.7835,2.7835,2.7835,2.7835,2.8688,2.9551,3.0833,3.2161,3.3023,3.387,3.4717,3.4717,3.4717,3.4717,3.4717,3.4717,3.4717,3.4717,3.4313,3.3453,3.301,3.258,3.1287,3.046,2.9686,2.9684,2.9483,2.8744,2.9093,2.9673,3.0568,3.0568,3.1486,3.2391,3.3284,3.4175,3.4652,3.5568,3.6071,3.6602,3.6384,3.7011,3.7117,3.7117,3.742,3.6841,3.5968,3.5944,3.592,3.321,3.349,3.3256,3.2463,3.202,3.202,3.202,3.202,3.202,3.202,3.202,3.202,3.202,3.221,3.2347,3.2347,3.2622,3.2812,3.2865,3.2865,3.2865,3.2865,3.2812,3.2812,3.2865,3.2812,3.2696,3.2485,2.9893,2.8289,2.814,2.563,1.6054,0.0,0.0,0.0,1.8293,2.0469,2.0829,2.1431,2.1674,2.1885,2.235,2.2541,2.2689,2.2932,2.3259,2.3566,2.3809,2.4147,2.4538,2.5003,2.5447,2.5817,2.606,2.6292,2.6577,2.7762,2.7484,2.7698,2.8492,2.8192,2.7835,2.7835,2.7835,2.7835,2.7835,2.8699,2.9994,3.1275,3.2567,3.3428,3.4717,3.4717,3.4717,3.4717,3.4717,3.4717,3.4717,3.4717,3.4717,3.4717,3.43,3.387,3.387,3.258,3.1718,3.1335,3.0968,3.0303,2.9483,2.9963,3.0126,3.0137,3.1021,3.2379,3.3748,3.4188,3.5103,3.5542,3.6471,3.6471,3.651,3.6682,3.6708,3.6747,3.6879,3.7222,3.7126,3.6322,3.6792,3.6757,3.4511,3.4341,3.4139,3.2807,3.2442,3.202,3.202,3.202,3.202,3.202,3.202,3.202,3.202,3.221,3.2347,3.2347,3.2559,3.2696,3.2696,3.2696,3.2696,3.2696,3.259,3.259,3.2696,3.259,3.2485,3.24,3.2316,3.2263,3.221,3.2231,2.1094,0.0,0.0,0.0,1.8293,2.0565,2.0987,2.1463,2.1579,2.1706,2.216,2.2424,2.2572,2.2615,2.2932,2.328,2.3555,2.3798,2.4115,2.457,2.5172,2.5679,2.5986,2.6239,2.6893,2.7992,2.7409,2.7645,2.8733,2.8138,2.7835,2.7835,2.7835,2.7835,2.7846,2.9131,3.0425,3.1718,3.258,3.387,3.4717,3.4717,3.4717,3.4717,3.4717,3.4717,3.4717,3.4717,3.4717,3.4717,3.4717,3.4717,3.4717,3.387,3.3023,3.3085,3.2723,3.1629,3.0802,3.1315,3.0591,3.0126,3.1033,3.3272,3.5103,3.5103,3.5542,3.6471,3.6471,3.6471,3.6471,3.6471,3.6471,3.6537,3.6774,3.7051,3.6853,3.6233,3.766,3.8103,3.5737,3.568,3.5587,3.4105,3.2839,3.2517,3.202,3.202,3.202,3.202,3.202,3.202,3.202,3.2178,3.2295,3.2295,3.2506,3.2643,3.259,3.2622,3.2622,3.259,3.24,3.2369,3.259,3.24,3.2295,3.2295,3.2157,3.2104,3.2157,3.2178,2.2596,0.5017,0.5017,0.3011,1.8607,2.0884,2.0987,2.1463,2.1579,2.1706,2.216,2.2298,2.2382,2.2583,2.2678,2.2858,2.328,2.3555,2.3872,2.4337,2.4665,2.5077,2.57,2.5996,2.6303,2.7162,2.699,2.7222,2.7455,2.7698,2.7835,2.7835,2.7835,2.8278,2.9109,3.0425,3.1718,3.258,3.387,3.4717,3.4717,3.4717,3.4717,3.4717,3.4717,3.4717,3.4717,3.4717,3.4717,3.4717,3.4717,3.4717,3.4717,3.4717,3.387,3.3085,3.3624,3.2955,3.1665,3.2203,3.2391,3.2391,3.3748,3.5103,3.6457,3.6457,3.6471,3.6471,3.6471,3.6471,3.6471,3.6471,3.6471,3.6471,3.6537,3.6747,3.7051,3.7314,3.7842,3.7868,3.6657,3.6661,3.6567,3.4116,3.3816,3.351,3.202,3.202,3.202,3.202,3.202,3.202,3.202,3.2041,3.2073,3.2073,3.2263,3.2316,3.2125,3.2295,3.2316,3.2125,3.2104,3.2073,3.2125,3.2104,3.2073,3.2073,3.2041,3.2041,3.2104,3.2125,3.0629,2.7149,2.7149,1.7562,1.8763,2.0649,2.0956,2.1304,2.1484,2.1674,2.2002,2.2171,2.2298,2.2403,2.253,2.272,2.3058,2.3312,2.3619,2.4094,2.4369,2.4718,2.5288,2.6185,2.7439,2.8204,2.8586,2.8866,2.8979,2.8898,2.8688,2.7835,2.8256,2.9131,2.954,3.1275,3.2567,3.3023,3.4313,3.4717,3.4717,3.4717,3.4717,3.4717,3.4717,3.4717,3.4717,3.4717,3.4717,3.4717,3.4717,3.4717,3.4717,3.4717,3.4287,3.3935,3.45,3.3837,3.3016,3.3553,3.3284,3.2855,3.4175,3.5103,3.5542,3.6457,3.6471,3.6471,3.6471,3.6471,3.6471,3.6471,3.6471,3.6471,3.6471,3.6682,3.6945,3.709,3.767,3.8251,3.7894,3.7414,3.6872,3.5062,3.4207,3.3344,3.2495,3.202,3.202,3.202,3.202,3.202,3.202,3.202,3.2073,3.2178,3.2178,3.2178,3.2178,3.2178,3.2125,3.202,3.202,3.202,3.202,3.202,3.202,3.202,3.202,3.2041,3.2104,3.2104,3.2125,3.2178,2.6088,1.8039,1.9267,0.0,2.0945,2.1241,2.1399,2.159,0.0,2.2086,2.2203,2.2255,2.2414,2.2604,2.2847,2.3069,2.3376,2.3851,2.4179,2.4506,2.4908,2.6367,2.7733,2.9263,2.9661,2.9931,3.0408,2.955,2.8965,2.817,2.9098,2.9551,2.9982,3.173,3.3023,3.3453,3.4313,3.4717,3.4717,3.4717,3.4717,3.4717,3.4717,3.4717,3.4717,3.4717,3.4717,3.4717,3.4717,3.4717,3.4717,3.4717,3.4717,3.4796,3.5376,3.516,3.4354,3.4913,3.4639,3.3748,3.4652,3.5103,3.5116,3.6006,3.6471,3.6471,3.6471,3.6471,3.6471,3.6471,3.5542,3.5103,3.6006,3.5709,3.5433,3.6449,3.7525,3.8145,3.8224,3.778,3.7309,3.6041,3.5144,3.376,3.2474,3.202,3.202,3.202,3.202,3.202,3.202,3.202,3.2073,3.2263,3.2125,3.2073,3.2263,3.2125,3.202,3.202,3.202,3.202,3.202,3.202,3.202,3.202,3.202,3.2041,3.2073,3.2073,3.2104,3.1648,2.3542,1.9513,0.0,2.086,2.0977,2.1442,2.1399,2.1421,2.2086,2.2086,0.0,2.2224,2.2276,2.2361,2.2604,2.2837,2.3154,2.3608,2.4062,2.4453,2.4686,2.532,2.6335,2.8025,2.8126,2.8639,3.0111,2.9547,2.8967,2.9192,2.9428,2.9982,3.1275,3.2567,3.3428,3.4717,3.4717,3.4717,3.4717,3.4717,3.4717,3.4717,3.4717,3.4717,3.4717,3.4717,3.4717,3.4717,3.4717,3.4717,3.4717,3.4717,3.4717,3.4796,3.5376,3.5614,3.5679,3.626,3.6471,3.6457,3.6471,3.6471,3.6471,3.6471,3.6471,3.6471,3.6471,3.6471,3.6471,3.6471,3.3284,3.0535,3.5568,3.3284,3.1077,3.5941,3.7354,3.7868,3.8145,3.8897,3.9014,3.7547,3.675,3.5448,3.3996,3.3003,3.202,3.202,3.202,3.202,3.202,3.202,3.202,3.2041,3.202,3.202,3.2041,3.202,3.202,3.202,3.202,3.202,3.202,3.202,3.202,3.202,3.202,3.202,3.202,3.202,3.2041,3.2094,3.1087,3.1138,2.0786,2.0871,2.0913,2.1093,2.1177,2.1336,2.1748,2.1875,2.1981,2.2213,2.2266,2.234,2.2572,2.2815,2.3027,2.3206,2.3872,2.4348,2.4284,2.5119,2.6142,2.8184,2.9683,3.0798,3.066,3.0526,3.0025,2.9169,3.0563,3.1538,3.1275,3.3023,3.4313,3.4717,3.4717,3.4717,3.4717,3.4717,3.4717,3.4717,3.4717,3.4717,3.4717,3.4717,3.4717,3.4717,3.4717,3.4717,0.0,3.4717,3.4717,3.4757,3.5165,3.5442,3.564,3.6062,3.6299,3.6471,3.6471,3.6471,3.6471,3.6471,3.6471,3.6471,3.6471,3.6471,3.6471,3.6471,3.5116,3.4175,3.6006,3.5103,3.4212,3.6136,3.709,3.7631,3.8119,3.8593,3.865,3.771,3.675,3.5296,3.3962,3.3003,3.202,3.202,3.202,3.202,3.202,3.202,3.202,3.202,3.202,3.202,3.202,3.202,3.202,3.202,3.202,3.202,3.202,3.202,3.202,3.202,3.202,3.202,3.202,3.202,3.202,3.2041,3.2041,3.2073,2.0913,2.0987,2.1019,2.1167,2.1209,2.1325,2.1706,2.1801,2.1896,2.2203,2.2266,2.2319,2.2477,2.2763,2.2953,2.2868,2.365,2.4168,2.3936,2.5219,2.6642,2.7653,3.0081,3.1659,3.0955,3.1293,3.0916,3.0189,3.1563,3.2159,3.1574,3.3729,3.4585,3.4585,3.4691,3.4717,3.4717,3.4717,3.4717,3.4717,3.4717,3.4717,3.4717,3.4717,3.4717,3.4717,3.4717,3.4717,3.4717,3.4717,3.4717,3.4757,3.506,3.5337,3.564,3.5917,3.6233,3.6471,3.6471,3.6471,3.6471,3.6471,3.6471,3.6471,3.6471,3.6471,3.6006,3.4639,3.1892,3.0535,3.5116,3.4175,3.282,3.5993,3.6853,3.7394,3.8079,3.8422,3.8415,3.877,3.6824,3.5273,3.4942,3.3003,3.202,3.202,3.202,3.202,3.202,3.202,3.202,3.202,3.202,3.202,3.202,3.202,3.202,3.202,3.202,3.202,3.202,3.202,3.202,3.202,3.202,3.202,3.202,3.202,3.202,3.202,3.202,3.2517,2.1156,2.123,2.1336,2.179,2.1568,2.141,2.2107,2.1907,2.1716,2.2171,2.2266,2.2266,2.2266,2.2657,2.2889,2.2657,2.3397,2.3925,2.3693,2.5223,2.6611,2.6611,2.9021,3.0428,3.014,3.0604,3.1155,3.1732,3.202,3.2296,3.2559,3.3446,3.4308,3.4308,3.4585,3.4717,3.4717,3.4717,3.4717,3.4717,3.4717,3.4717,3.4717,3.4717,3.4717,3.4717,3.4717,3.4717,3.4717,3.4717,3.4717,3.4757,3.5033,3.5337,3.564,3.5917,3.6194,3.6471,3.6471,3.6471,3.6471,3.6471,3.6471,3.6471,3.6471,3.6471,3.5542,3.0535,2.2361,1.8265,3.282,2.9177,2.4641,3.4212,3.6708,3.7156,3.8053,3.8422,3.8897,3.9754,3.796,3.5956,3.5956,3.3984,3.202,3.202,3.202,3.202,3.202,3.202,3.202,3.202,3.202,3.202,3.202,3.202,3.202,3.202,3.202,3.202,3.202,3.202,3.202,3.202,3.202,3.202,3.202,3.202,3.202,3.202,3.202,3.3035,2.1156,2.123,2.1304,2.16,2.1579,2.1568,2.1928,2.1907,2.1896,2.2203,2.2266,2.2266,2.2266,2.252,2.2699,2.2625,2.3259,2.3735,2.3671,2.5223,2.6931,2.7529,2.9134,3.0533,3.1032,3.1344,3.1479,3.1431,3.2559,3.2842,3.2283,3.2957,3.3873,3.4308,3.4374,3.4519,3.4717,3.4717,3.4717,3.4717,3.4717,3.4717,3.4717,3.4717,3.4717,3.4717,3.4717,3.4717,3.4717,3.4519,3.444,3.444,3.4519,3.4717,3.5033,3.5548,3.5917,3.6194,3.6405,3.6471,3.6471,3.6471,3.6471,3.6431,3.6233,3.6154,3.5298,3.0502,2.6901,2.5077,2.6003,2.6563,2.9005,3.5637,3.7156,3.7433,3.8317,3.8567,3.8897,3.9754,3.8442,3.6946,3.5967,3.4469,3.3003,3.202,3.202,3.202,3.202,3.202,3.202,3.202,3.202,3.202,3.202,3.202,3.202,3.202,3.202,3.202,3.202,3.202,3.202,3.202,3.202,3.202,3.202,3.202,3.202,3.202,3.202,3.2517,2.1283,2.1368,2.1442,2.1769,2.178,2.1769,2.2002,2.1981,2.1981,2.2213,2.2266,2.2266,2.2266,2.2456,2.2615,2.2615,2.3481,2.4286,2.4384,2.619,2.7831,2.8154,2.9689,3.0669,3.1276,3.1526,3.1566,3.1787,3.2607,3.292,3.2675,3.3037,3.3636,3.411,3.4242,3.444,3.4717,3.4717,3.4717,3.4717,3.4717,3.4717,3.4717,3.4717,3.4717,3.4717,3.4717,3.4717,3.4691,3.4414,3.4308,3.4308,3.4308,3.448,3.4796,3.5271,3.5614,3.589,3.6062,3.6128,3.6128,3.6128,3.6194,3.626,3.6233,3.6299,3.504,2.8353,2.7999,2.7154,1.8437,2.3096,3.1077,3.5878,3.7328,3.7565,3.8422,3.8633,3.8897,3.9754,3.8937,3.7453,3.5967,3.4976,3.3488,3.202,3.202,3.202,3.202,3.202,3.202,3.202,3.202,3.202,3.202,3.202,3.202,3.202,3.202,3.202,3.202,3.202,3.202,3.202,3.202,3.202,3.202,3.202,3.202,3.202,3.202,3.2517,2.1452,2.1579,2.1695,2.215,2.2107,2.2002,2.2213,2.2097,2.2002,2.2224,2.2266,2.2266,2.2266,2.2477,2.2646,2.2646,2.3752,2.4871,2.5129,2.7443,2.8987,2.925,3.0693,3.1262,3.1262,3.15,3.1777,3.2054,3.2607,3.2937,3.2963,3.3227,3.3517,3.3807,3.4084,3.4374,3.4691,3.4691,3.4691,3.4717,3.4717,3.4717,3.4717,3.4717,3.4717,3.4717,3.4717,3.4717,3.4691,3.4374,3.4269,3.4269,3.4269,3.4414,3.4691,3.5033,3.5337,3.5574,3.5614,3.5614,3.5614,3.564,3.5745,3.5956,3.626,3.6537,3.4927,2.5314,2.5477,2.5623,1.1673,1.8223,2.9885,3.4541,3.6918,3.7631,3.8462,3.8659,3.8897,3.9727,3.8911,3.7453,3.6463,3.4976,3.3984,3.2527,3.202,3.202,3.202,3.202,3.202,3.202,3.202,3.202,3.202,3.202,3.202,3.202,3.202,3.202,3.202,3.202,3.202,3.202,3.202,3.202,3.202,3.202,3.202,3.202,3.202,3.3003,2.1452,2.1579,2.1695,2.215,2.2224,2.2203,2.2255,2.2224,2.2203,2.2255,2.2266,2.2266,2.2266,2.2615,2.29,2.29,2.4003,2.514,2.5387,2.7552,2.8987,2.925,3.0693,0.0,3.1262,3.1315,0.0,3.1763,3.2106,3.241,3.2647,3.2937,3.3227,3.3504,3.357,3.386,3.4374,3.4414,3.4519,3.4717,3.4717,3.4717,3.4717,3.4717,3.4717,3.4717,3.4717,3.4717,3.4691,3.4163,3.3952,3.3952,3.3952,3.3992,3.4137,3.4888,3.5205,3.5297,3.5548,3.5614,3.564,3.5851,3.5508,3.506,3.5337,3.5482,3.4291,2.8871,2.5512,2.1545,1.4693,1.5829,1.9774,2.4791,3.2043,3.8145,3.8528,3.8804,3.9108,3.9516,3.9288,3.895,3.796,3.6463,3.4976,3.3984,3.2506,3.202,3.202,3.202,3.202,3.202,3.202,3.202,3.202,3.202,3.202,3.202,3.202,3.202,3.202,3.202,3.202,3.202,3.202,3.202,3.202,3.202,3.202,3.202,3.3003,3.3984,2.1315,2.1494,2.1664,2.2012,2.2181,2.2266,2.2266,0.0,2.2266,2.2266,2.2266,2.2266,2.2266,2.2562,2.2837,2.3654,2.4703,2.5851,2.7106,2.8424,2.9794,3.0206,3.0784,3.1262,3.1262,3.1262,3.1381,3.1684,3.1843,3.1988,3.2146,3.2555,3.299,3.3398,3.3425,3.3636,3.4084,3.4229,3.4374,3.4519,3.4651,3.4717,3.4717,3.4717,3.4717,3.4717,3.4717,3.4717,3.4691,3.4255,3.4071,3.4084,3.4229,3.419,3.4163,3.4888,3.506,3.4967,3.5139,3.5205,3.5231,3.5508,3.531,3.4994,3.5297,3.5469,3.4732,3.0104,2.6794,2.431,1.9287,1.8119,1.9718,2.4765,3.0521,3.5017,3.766,3.8554,3.9002,3.9411,3.9622,3.9288,3.7935,3.697,3.5448,3.3996,3.3003,3.202,3.202,3.202,3.202,3.202,3.202,3.202,3.202,3.202,3.202,3.202,3.202,3.202,3.202,3.202,3.202,3.202,3.202,3.202,3.202,3.202,3.202,3.202,3.351,3.4492,2.1146,2.1368,2.1579,2.1843,2.2055,2.2213,2.2255,2.2266,2.2266,2.2266,2.2266,2.2266,2.2266,2.252,2.3148,2.4054,2.5447,2.701,2.8473,2.9717,3.029,0.0,3.1262,3.1262,3.1262,3.1262,0.0,0.0,3.1632,3.1645,3.1698,3.2199,3.2726,3.3253,3.3319,3.3491,3.3781,3.4031,3.4176,3.4229,3.4519,3.4651,3.4651,3.4691,3.4717,3.4717,3.4717,3.4717,3.4691,3.4414,3.4308,3.4335,3.4546,3.4546,3.444,3.4928,3.4967,3.4796,3.4757,3.4717,3.4757,3.4994,3.5099,3.5139,3.5376,3.5614,3.4899,3.0928,2.9469,2.7979,2.3896,2.2669,2.3295,2.8422,2.9832,3.1309,3.6699,3.8119,3.8659,3.924,3.945,3.9093,3.8341,3.6909,3.546,3.4469,3.3003,3.202,3.202,3.202,3.202,3.202,3.202,3.202,3.202,3.202,3.202,3.202,3.202,3.202,3.202,3.202,3.202,3.202,3.202,3.202,3.202,3.202,3.202,3.202,3.3488,3.4976,2.1103,2.1251,2.1378,2.1801,2.1938,2.2012,2.2224,2.2266,2.2266,2.2266,2.2266,2.2266,2.2266,2.3491,2.4298,2.361,0.0,2.7332,2.8058,2.8869,2.9746,3.1223,3.1262,3.1262,3.1262,3.1262,3.1276,3.1315,3.1315,3.1434,3.1684,3.2001,3.233,3.266,3.2924,3.3201,3.3478,3.3517,3.3662,3.3926,3.4216,3.4374,3.4374,3.4625,3.4717,3.4717,3.4717,3.4717,3.4691,3.4414,3.4308,3.4308,3.4348,3.448,3.4691,3.4757,3.4928,3.506,3.4822,3.4717,3.4717,3.4757,3.4796,3.4796,3.4822,3.4862,3.4954,3.4333,3.1536,2.8225,2.7964,2.4686,2.3121,2.818,2.9727,3.1276,3.6442,3.7631,3.804,3.8633,3.9174,3.9516,3.9093,3.7292,3.5956,3.5956,3.3488,3.202,3.202,3.202,3.202,3.202,3.202,3.202,3.202,3.202,3.202,3.202,3.202,3.202,3.202,3.202,3.202,3.202,3.202,3.202,3.202,3.202,3.202,3.202,3.4469,3.5956,2.0776,2.103,2.1273,2.1473,2.1716,2.1938,2.2044,2.2171,2.2266,2.2266,2.2266,2.2266,2.2266,2.3436,2.4545,0.0,0.0,0.0,2.9012,2.9454,3.0381,0.0,3.1262,0.0,3.1262,3.1262,3.1262,0.0,3.1262,3.1315,3.1447,3.1724,3.1948,3.208,3.2515,3.2818,3.2937,3.3253,3.3478,3.3623,3.3913,3.4058,3.4058,3.419,3.4242,3.4242,3.4242,3.4242,3.4229,3.411,3.4058,3.4071,3.4242,3.4269,3.4255,3.4414,3.4585,3.4651,3.4546,3.448,3.448,3.448,3.4585,3.4717,3.4717,3.4717,3.4757,3.4888,3.3373,3.2284,3.2405,2.9222,2.6843,3.1869,3.1145,3.09,3.6134,3.7183,3.746,3.804,3.8633,3.9147,3.945,3.7168,3.5801,3.5932,3.3984,3.202,3.202,3.202,3.202,3.202,3.202,3.202,3.202,3.202,3.202,3.202,3.202,3.202,3.202,3.202,3.202,3.202,3.202,3.202,3.202,3.3003,3.3003,3.3014,3.5991,3.6946,2.0565,2.0871,2.1146,2.1209,2.1484,2.1748,2.1812,2.2012,2.2181,2.2181,2.2224,2.2266,2.2266,2.37,2.5112,2.5538,2.7059,0.0,2.9951,3.0081,0.0,3.1091,0.0,3.1262,3.1262,3.1262,0.0,3.1262,3.1262,3.1262,3.1262,3.1539,3.1698,3.1698,3.2185,3.2489,3.2555,3.299,3.324,3.3319,3.3609,3.3754,3.3754,3.3834,3.386,3.386,3.386,3.386,3.386,3.386,3.386,3.3886,3.411,3.411,3.3992,3.4137,3.4242,3.4269,3.4137,3.4124,3.4203,3.4269,3.444,3.4611,3.3389,3.387,3.4717,3.3428,3.3999,3.506,3.5139,3.2832,3.1349,3.5002,3.3431,3.1869,3.5709,3.6813,3.7051,3.746,3.8013,3.8554,3.9108,3.7409,3.615,3.5837,3.3962,3.2495,3.1935,3.1988,3.202,3.202,3.202,3.202,3.202,3.202,3.202,3.202,3.202,3.1988,3.1935,3.1988,3.1935,3.1745,3.1798,3.1777,3.166,3.2698,3.3201,3.3704,3.6246,3.7267,2.067,2.0871,2.0945,2.1167,2.1241,2.1315,2.1547,2.1769,2.1928,2.1928,2.2107,2.2266,0.0,0.0,2.5526,2.4691,2.6619,2.8536,2.8837,2.9112,2.967,0.0,0.0,0.0,0.0,0.0,0.0,3.1262,3.1262,3.1262,3.1262,3.1539,3.1698,3.1698,3.1988,3.2278,3.2555,3.2594,3.2739,3.3029,3.3306,3.3438,3.3451,3.3728,3.386,3.386,3.386,3.386,3.386,3.386,3.386,3.386,3.3886,3.4045,3.4255,3.3992,3.4058,3.4229,3.3662,3.3649,3.3926,3.4216,3.4308,3.3536,2.9461,3.1252,3.387,2.9517,3.1252,3.4822,3.5099,3.5192,3.486,3.5574,3.5407,3.5603,3.6049,3.6497,3.6919,3.6945,3.7433,3.7908,3.8224,3.8011,3.7069,3.5599,3.4826,3.3422,3.1724,3.1882,3.202,3.202,3.202,3.202,3.202,3.202,3.202,3.202,3.202,3.1914,3.1692,3.1914,3.1692,3.1005,3.1227,3.1143,3.0709,3.09,3.1497,3.2941,3.4628,3.6213,2.0279,2.0427,2.0522,2.0903,2.1114,2.1294,2.1526,2.1748,2.23,2.2794,2.2547,2.2611,2.3993,2.4976,2.5645,2.6263,2.7696,2.9196,2.9293,2.9834,3.0029,3.0775,3.0906,3.1051,0.0,0.0,3.1051,3.1249,3.1262,3.1262,3.1262,3.1368,3.1421,3.1421,3.1698,3.1908,3.2014,3.237,3.262,3.2726,3.3016,3.3161,3.3161,3.3267,3.3306,3.3306,3.3306,3.3306,3.3306,3.3306,3.3306,3.3306,3.3306,3.3372,3.3464,3.3359,3.3491,3.3675,3.3293,3.3346,3.3596,3.3702,3.1738,2.9345,2.773,2.6592,2.541,2.3696,2.4657,2.5644,2.5712,2.8471,3.0783,3.0876,3.3309,3.5811,3.5983,3.6194,3.6471,3.684,3.709,3.7354,3.7842,3.7868,3.7351,3.5776,3.4933,3.4456,3.2913,3.2002,3.1608,3.1777,3.1798,3.1851,3.202,3.202,3.1967,3.1798,3.1639,3.1449,3.1227,3.1143,3.1005,3.0731,3.0815,3.0794,3.0625,3.1652,3.2649,3.4078,3.5126,3.6694,1.9941,2.0131,2.0279,2.066,2.0871,2.1051,2.1294,2.1914,2.2521,2.3367,2.3535,2.3648,2.5028,2.5589,2.6181,2.7057,2.8122,2.9232,2.9614,2.9838,3.0102,3.0484,3.0616,3.0788,3.1078,3.084,3.0801,3.1091,3.1104,3.1157,3.1249,3.1262,3.1262,3.1262,3.1447,3.1605,3.1698,3.208,3.2317,3.241,3.2713,3.2858,3.2858,3.2963,3.3003,3.3003,3.3003,3.3003,3.3003,3.3003,3.3003,3.3003,3.3003,3.3003,3.3003,3.3003,3.3122,3.3253,3.3069,3.3122,3.2881,3.1719,2.9351,2.656,2.368,2.1685,2.0509,1.8813,1.9787,2.0779,2.0779,2.3074,2.6284,2.759,3.0841,3.3724,3.5264,3.5811,3.6022,3.6497,3.6708,3.6919,3.7394,3.7802,3.7764,3.6303,3.5957,3.556,3.4605,3.3199,3.1862,3.1523,3.1555,3.1608,3.1777,3.1713,3.1608,3.1439,3.1196,3.0984,3.0731,3.0657,3.0519,3.0266,3.0832,3.0778,3.016,3.1652,3.2155,3.1652,3.2222,3.2818,1.9687,1.9994,2.0226,2.0448,2.0512,2.0586,2.0818,2.1889,2.2907,2.2918,2.398,2.5016,2.5016,2.5924,2.6794,2.6807,2.7981,2.9074,2.9087,2.9575,2.9931,2.9944,3.0208,3.0498,3.0761,3.055,3.0498,3.0788,3.0814,3.0946,3.1236,3.1262,3.1262,3.1262,3.1262,3.1394,3.1684,3.1698,3.1843,3.2106,3.241,3.2541,3.2555,3.2858,3.3003,3.3003,3.3003,3.3003,3.3003,3.3003,3.3003,3.3003,3.3003,3.3003,3.3003,3.3003,3.3003,3.3003,3.3003,3.3003,3.2224,2.8328,2.6736,2.4689,1.6487,1.6948,1.906,1.484,1.7054,2.0161,2.0161,2.0285,2.1716,2.6468,2.7951,2.9451,3.4269,3.5403,3.5679,3.5956,3.6233,3.6537,3.6853,3.7354,3.7842,3.8145,3.7471,3.6694,3.672,3.4546,3.2769,3.1312,3.1312,3.1312,3.1312,3.109,3.0952,3.0952,3.0731,3.0487,3.0266,3.0466,3.0266,2.9589,3.1155,3.1044,2.923,3.1313,3.0027,2.6286,2.6058,2.4765,1.9402,1.9624,1.9772,2.0174,2.0395,2.0905,2.1464,2.1953,2.2797,2.4493,2.4842,2.5083,2.6445,2.6686,2.6927,2.7828,2.7998,2.8533,2.8744,2.91,2.9416,2.9614,2.9891,3.0115,3.0181,3.0128,3.0194,3.0498,3.0695,3.0854,3.0933,3.1144,3.1262,3.1262,3.1262,3.1302,3.1381,3.1592,3.1737,3.1816,3.2106,3.2238,3.2251,3.2541,3.2805,3.3003,3.3003,3.3003,3.3003,3.3003,3.3003,3.3003,3.3003,3.3003,3.3003,3.3003,3.3003,3.3003,3.3003,3.0935,2.8058,2.6883,2.2357,1.6584,1.4141,1.2136,1.0522,0.9264,0.9746,1.0655,1.0655,1.3234,1.7107,2.1501,2.5439,2.902,3.4205,3.5231,3.5376,3.5679,3.5785,3.6022,3.651,3.6919,3.7328,3.7802,3.7491,3.7149,3.6406,3.5066,3.3262,3.1037,3.1058,3.1058,3.1058,3.1005,3.0815,3.0487,3.0244,3.0001,2.9779,2.9663,2.9973,3.0679,3.0568,3.0909,3.165,3.2016,3.1957,3.1476,3.1569,3.1684,1.8736,1.9043,1.9307,1.9772,1.9994,2.0508,2.1588,2.241,2.3254,2.4985,2.5628,2.5816,2.6826,2.7073,2.6978,0.0,2.8045,2.8269,2.8441,2.8731,2.9021,2.9311,2.9377,2.9456,2.9588,2.9601,2.9772,3.0181,3.0366,3.0511,3.063,3.092,3.1078,3.1078,3.1196,3.1262,3.1262,3.1434,3.1526,3.1526,3.1803,3.1948,3.1948,3.2238,3.2462,3.2634,3.2766,3.2884,3.3003,3.3003,3.3003,3.3003,3.3003,3.3003,3.3003,3.3003,3.3003,3.3003,3.3003,3.1356,2.8457,2.4748,2.0222,1.5288,1.1579,0.8729,0.6683,0.6683,0.6726,0.6771,0.6771,0.8903,1.1899,1.6648,2.1336,2.6105,3.1216,3.3491,3.4928,3.5337,3.5442,3.5574,3.6022,3.6471,3.6853,3.7183,3.7328,3.7061,3.6879,3.5598,3.4293,3.2559,3.1706,3.125,3.0678,3.0487,3.0244,2.9864,2.961,2.942,2.9283,2.9071,2.9415,3.0875,3.1076,3.1384,3.2297,3.3077,3.2597,3.0871,3.0449,2.9905,1.7965,1.8409,1.8863,1.9296,1.9423,1.9907,0.0,0.0,2.3674,2.4565,2.5859,2.6435,2.6435,2.703,2.728,2.7346,2.7781,2.8124,2.8151,2.8414,2.8704,2.8968,2.877,2.8718,2.9021,2.9087,2.9311,2.9825,2.9917,3.0076,3.0339,3.0616,3.0775,3.0775,3.1051,3.121,3.121,3.1249,3.1262,3.1262,3.1526,3.1658,3.1658,3.1948,3.2067,3.208,3.2383,3.266,3.2911,3.2937,3.295,3.2963,3.299,3.299,3.295,3.295,3.2976,3.3003,3.3003,3.2594,3.0935,2.2696,1.9407,1.7349,0.9108,0.6633,0.6633,0.6633,0.667,0.671,0.671,0.6749,0.8058,1.2713,1.7351,2.1617,2.6489,3.1249,3.4414,3.4954,3.506,3.5165,3.5508,3.6022,3.6405,3.6405,3.6682,3.6985,3.7288,3.6609,3.5375,3.444,3.3232,3.1885,3.0714,2.9811,2.942,2.9177,2.8955,2.885,2.885,2.8628,2.9061,3.0617,3.1688,3.1988,3.1594,3.3346,3.1688,2.6492,2.5608,2.3574,0.0,0.0,0.0,0.0,0.0,0.0,0.0,0.0,2.16,2.2578,2.4074,2.4896,2.4896,2.5966,2.6819,2.728,2.7452,2.7597,2.7847,2.8124,2.8322,2.8375,2.8335,2.8414,2.8704,2.8955,2.9153,2.9258,2.9693,2.9983,3.0036,3.0326,3.0484,3.0484,3.0761,3.0906,3.0906,3.1144,3.1262,3.1262,3.1315,3.1342,3.1355,3.1645,3.1777,3.1803,3.208,3.2238,3.2304,3.2541,3.2647,3.2673,3.2911,3.2858,3.2647,3.2647,3.2805,3.3003,3.3003,3.0526,2.6808,2.1463,1.7349,1.3638,0.8283,0.6633,0.6633,0.6633,0.6641,0.6649,0.6649,0.6657,0.7926,1.2579,1.7195,2.1423,2.6254,3.096,3.4058,3.4414,3.448,3.4651,3.5165,3.5548,3.5851,3.6088,3.6365,3.6747,3.7262,3.6468,3.5554,3.5115,3.3293,3.1897,3.1398,3.0027,2.9124,2.868,2.8606,2.8606,2.8606,2.8554,2.8975,3.0382,3.0795,3.0222,2.7329,2.8278,2.6468,2.1889,2.1881,2.1632,0.0,0.0,0.0,0.0,0.0,0.0,0.0,0.0,0.0,0.0,0.0,2.3662,0.0,0.0,2.6031,2.6661,2.7069,2.7399,2.7557,2.7821,2.7953,2.7795,2.7913,2.8058,2.8217,2.848,2.8718,2.8863,2.9285,2.9588,2.9733,3.0155,3.0405,3.0405,3.0669,3.0748,3.0603,3.0761,3.0893,3.1038,3.1038,3.1117,3.1262,3.1407,3.1487,3.15,3.179,3.1908,3.1935,3.2212,3.233,3.237,3.266,3.2607,3.233,3.233,3.2436,3.2568,3.2568,2.9792,2.5394,2.0909,1.6869,1.24,0.787,0.6633,0.6633,0.6633,0.6633,0.6633,0.6633,0.6633,0.7053,0.9575,1.3316,1.791,2.2669,2.7333,3.1197,3.3597,3.4203,3.4414,3.4691,3.4967,3.5205,3.5337,3.589,3.6365,3.6642,3.6475,3.5802,3.5454,3.3746,3.2317,3.1605,3.0006,2.9145,2.8554,2.8416,2.8353,2.8353,2.8141,2.8503,2.9921,3.0448,2.902,2.6076,2.6518,2.4873,2.1104,1.6225,1.411,0.0,0.0,0.0,0.0,0.0,0.0,0.0,0.0,0.0,0.0,0.0,0.0,0.0,0.0,0.0,2.6015,2.6687,2.7228,2.7333,2.7557,2.7623,2.7386,2.7571,2.7716,2.7716,2.7966,2.823,2.8467,2.881,2.9113,2.9337,2.9852,3.0155,3.0155,3.0471,3.0537,3.0313,3.0419,3.059,3.0814,3.0814,0.0,3.117,3.117,3.117,3.1196,3.1487,3.1618,3.1645,3.1922,3.2067,3.2133,3.2317,3.2212,3.1961,3.2014,3.2067,3.2119,3.1311,2.8642,2.5168,1.9906,1.5932,1.2341,0.7829,0.6606,0.0,0.6614,0.6622,0.6633,0.6633,0.6633,0.6633,0.6633,0.9931,1.4074,1.791,2.2932,2.7992,3.1615,3.3545,3.415,3.4216,3.4414,3.4625,3.4796,3.5403,3.589,3.6022,3.6497,3.641,3.5599,3.4468,3.3059,3.1702,3.0322,2.9177,2.849,2.83,2.8163,2.8141,2.775,2.8106,2.9186,2.9461,2.7592,2.324,2.3535,2.2013,1.8613,1.0606,0.7052,0.0,0.0,0.0,0.0,0.0,0.0,0.0,0.0,0.0,0.0,0.0,0.0,0.0,0.0,0.0,0.0,2.6357,2.6766,2.728,2.7386,2.7386,2.736,2.7386,2.7399,2.7399,2.7676,2.7861,2.7887,2.8401,2.8718,2.8744,2.906,0.0,0.0,0.0,3.0036,3.001,3.0511,3.0788,3.0814,3.0814,3.0827,3.0867,3.0867,3.0867,3.088,3.1183,3.1315,3.1328,3.1632,3.1895,3.2093,3.1882,3.1618,3.1394,3.1658,3.1908,3.1709,2.7705,0.0,0.0,1.6516,1.3316,1.2117,0.7687,0.6511,0.6553,0.6553,0.659,0.6633,0.6633,0.6633,0.6633,0.6633,0.9931,1.3231,1.4068,2.0658,2.6504,2.7577,3.0989,3.3609,3.386,3.3939,3.4229,3.4994,3.5205,3.5442,3.5956,3.6299,3.6326,3.5851,3.3829,0.0,3.2202,3.0159,2.8744,2.8247,2.8215,2.811,2.7888,2.7424,2.7538,2.8194,2.933,2.4836,1.5228,1.6442,1.3867,0.8741,0.7486,0.7012,0.0,0.0,0.0,0.0,0.0,0.0,0.0,0.0,0.0,0.0,0.0,0.0,0.0,0.0,0.0,0.0,2.5354,2.612,2.6542,2.674,2.6911,2.7069,2.7241,2.728,2.7109,2.736,2.7465,2.7294,2.7821,2.823,2.8388,2.8849,2.91,2.91,2.9337,2.9456,2.9456,2.9693,2.9983,3.0313,3.0498,3.0656,3.0827,3.0999,3.1078,3.1078,3.121,3.1157,3.1038,3.1513,3.1566,3.1355,0.0,0.0,0.0,0.0,3.1025,3.036,2.6622,2.3618,2.0587,1.4749,1.1232,0.8871,0.6859,0.6471,0.6492,0.6492,0.6511,0.653,0.653,0.6553,0.658,0.658,0.9895,1.4051,1.6525,2.1866,2.725,2.9838,3.2056,0.0,3.3372,3.3649,3.3992,3.4348,3.4994,3.5442,3.5508,3.5917,3.6128,3.589,3.4608,3.3174,3.1869,3.0631,0.0,0.0,0.0,2.7539,2.7433,2.7049,0.0,0.0,0.0,2.4515,1.2453,1.5124,0.0,0.0,0.6869,0.689,0.0,0.0,0.0,0.0,0.0,0.0,0.0,0.0,0.0,0.0,0.0,0.0,0.0,0.0,0.0,0.0,0.0,2.554,2.5672,2.6081,2.641,2.6529,2.6951,2.7083,2.67,2.7004,2.7109,2.6806,2.7267,2.7636,2.7834,2.8335,2.8665,2.8744,2.881,2.8889,2.8981,2.906,2.9311,2.972,3.0023,3.03,3.059,3.0893,3.1065,3.1144,3.1223,3.1091,3.0854,3.1368,3.1276,3.0814,3.0814,3.0761,3.0682,3.0471,3.0405,2.9666,2.4506,2.0062,1.6327,1.2146,0.8689,0.636,0.636,0.6373,0.6384,0.6384,0.6408,0.6431,0.6431,0.6474,0.6519,0.6519,0.9812,1.3961,1.7272,2.2196,2.7141,3.0513,3.2276,3.3148,3.3029,3.328,3.3609,3.3939,3.4783,3.531,3.5205,3.5679,3.5917,3.5679,3.4861,3.3371,3.162,3.0749,2.9186,2.7264,2.7222,2.7169,2.7053,2.7148,2.5432,2.1902,2.5088,2.2168,0.0,0.0,0.0,0.0,0.0,0.0,0.0,0.0,0.0,0.0,0.0,0.0,0.0,0.0,0.0,0.0,0.0,0.0,0.0,0.0,0.0,0.0,0.0,0.0,2.4828,2.5527,2.5962,2.5685,2.6397,2.67,2.6133,2.6582,2.6806,2.6529,2.6766,2.6938,2.6951,2.7241,2.7544,2.7834,2.8098,2.8375,2.8665,2.8955,2.9113,2.9126,2.9403,2.9693,2.9997,3.0287,3.0577,3.084,3.1131,3.1091,3.084,3.1144,3.1091,3.0814,3.0814,3.0656,3.0405,3.0405,3.0405,2.9263,2.1283,1.598,1.1813,0.7638,0.6119,0.6119,0.6119,0.6161,0.6206,0.6206,0.6286,0.6371,0.6371,0.6413,0.6458,0.6458,0.9681,1.2924,1.3436,1.9955,2.6113,2.6754,2.99,3.2673,3.2963,3.2779,3.299,3.4124,3.4546,0.0,3.5139,3.5679,3.5719,3.4862,3.4128,3.2889,3.1311,3.0656,2.9274,2.7507,2.7486,2.7286,2.6456,2.7085,2.7222,2.6387,2.0161,1.6745,1.5772,0.0,0.0,0.0,0.0,0.0,0.0,0.0,0.0,0.0,0.0,0.0,0.0,0.0,0.0,0.0,0.0,0.0,0.0,0.0,0.0,0.0,0.0,0.0,0.0,0.0,2.5514,2.5593,2.6041,2.6186,2.579,2.6107,2.6212,2.5922,2.6357,2.6634,2.6634,2.6898,2.7096,2.7201,2.7491,2.7781,2.8085,2.8362,2.8612,2.881,2.91,2.939,2.9667,2.997,3.0155,3.026,3.0564,3.0405,3.001,3.0682,3.0564,2.9931,2.9759,2.9733,2.9812,2.9812,2.9812,2.9443,2.6821,2.3202,1.8839,1.2161,0.8394,0.6108,0.6108,0.6124,0.6148,0.6188,0.6196,0.6206,0.6243,0.627,0.6294,0.6331,0.9541,1.3595,1.6523,2.1884,2.6879,2.9828,2.9221,2.9126,3.2256,3.262,3.2818,3.3596,3.4137,3.4414,3.4308,3.4967,3.5205,3.4519,3.3832,3.2604,3.1038,2.9664,2.8611,2.7053,2.6905,2.6768,2.662,2.6165,2.4896,2.1988,1.9446,1.8614,1.9087,0.0,0.0,0.0,0.0,0.0,0.0,0.0,0.0,0.0,0.0,0.0,0.0,0.0,0.0,0.0,0.0,0.0,0.0,0.0,0.0,0.0,0.0,0.0,0.0,0.0,0.0,2.5276,2.5645,0.0,2.5487,2.5725,2.5777,2.5487,2.5909,2.6173,2.6173,2.6542,2.6753,2.6753,2.7043,2.7333,2.7636,2.7808,2.8058,2.8348,2.8639,2.8929,2.9219,2.9614,2.9852,2.997,3.0274,3.0128,2.9693,2.9944,2.972,2.9192,2.9008,2.9047,2.9205,2.9205,2.9205,2.8844,2.7734,2.5291,2.2141,1.4135,0.8941,0.5954,0.5976,0.5968,0.5968,0.605,0.606,0.606,0.6119,0.6166,0.6206,0.6241,0.943,1.3466,1.6374,2.0479,2.4943,2.9177,2.742,2.662,2.9358,3.1041,3.2074,3.1095,3.2919,3.4084,3.3886,3.444,3.4717,3.4335,3.3626,3.2345,3.0883,2.9379,2.8301,2.6831,2.6525,2.6366,2.5988,2.2894,2.1171,2.1594,1.6194,1.497,0.0,0.0,0.0,0.0,0.0,0.0,0.0,0.0,0.0,0.0,0.0,0.0,0.0,0.0,0.0,0.0,0.0,0.0,0.0,0.0,0.0,0.0,0.0,0.0,0.0,0.0,0.0,2.4683,2.5171,0.0,0.0,0.0,0.0,2.5171,2.5421,2.558,2.558,2.6133,2.645,2.645,2.6727,2.703,2.7333,2.7346,2.7505,2.7795,2.8058,2.8335,2.8652,2.9192,2.9601,2.9878,3.0181,3.0142,2.9799,2.8955,2.8625,2.8652,2.8599,2.8599,2.8612,2.8625,2.8258,2.7891,2.4343,2.2911,2.1111,1.3977,0.8916,0.6034,0.5735,0.5713,0.0,0.0,0.5878,0.5933,0.5997,0.6095,0.6182,0.6188,0.9331,1.2146,1.3054,1.6238,2.0074,2.395,2.4622,2.477,2.5649,0.0,3.0366,2.7483,3.0502,3.3363,3.3781,3.4058,3.4255,3.4242,3.2996,3.2159,3.0848,2.9345,2.786,2.6425,2.6356,2.6113,2.578,1.7391,1.6904,2.4624,1.0871,0.0,0.0,0.0,0.0,0.0,0.0,0.0,0.0,0.0,0.0,0.0,0.0,0.0,0.0,0.0,0.0,0.0,0.0,0.0,0.0,0.0,0.0,0.0,0.0,0.0,0.0,2.2982,2.3523,2.376,2.4103,2.4129,0.0,0.0,0.0,0.0,0.0,0.0,2.5303,2.5645,2.583,2.583,2.6331,2.6727,2.7017,2.7241,2.7505,2.7795,2.7874,2.8045,2.8322,2.848,2.8586,2.8665,2.8968,2.8929,2.8625,2.819,2.8269,2.8586,2.794,2.7821,2.8045,2.8243,2.642,2.4546,2.6364,2.3524,1.8421,1.6303,1.3096,0.9553,0.6749,0.0,0.0,0.0,0.0,0.5758,0.5862,0.5912,0.5957,0.6045,0.6833,0.8383,1.191,1.3542,1.6265,2.2924,2.1982,2.2059,2.8503,2.8223,0.0,3.0229,2.9375,2.9111,3.2178,3.2379,3.2336,3.2107,3.0791,2.9755,2.9333,2.8102,2.7011,2.6546,2.5728,2.5489,2.5509,2.3276,1.9963,1.5962,0.0,0.0,0.0,0.0,0.0,0.0,0.0,0.0,0.0,0.0,0.0,0.0,0.0,0.0,0.0,0.0,0.0,0.0,0.0,0.0,0.0,0.0,0.0,0.0,0.0,0.0,0.0,2.2099,2.2784,2.3206,2.3391,2.3417,0.0,0.0,0.0,0.0,0.0,0.0,0.0,0.0,0.0,2.5237,2.5922,2.6305,2.6331,2.6766,2.7122,2.7412,2.7676,2.7808,2.7847,2.823,2.8335,2.823,2.852,2.8269,2.7623,2.7465,2.7597,2.7834,0.0,0.0,0.0,0.0,2.6155,2.4695,2.7081,2.3959,1.9015,1.7285,0.0,0.0,0.0,0.0,0.0,0.0,0.0,0.5689,0.5782,0.5864,0.5939,0.6005,0.7545,0.9471,1.1792,1.0912,1.1541,1.7526,1.6716,1.6783,2.1784,2.248,0.0,0.0,0.0,2.677,2.8537,3.0123,3.1218,3.0774,2.9085,2.8451,2.835,2.7359,2.6366,2.6176,2.4523,2.3945,2.527,2.1705,1.7219,0.0,0.0,0.0,0.0,0.0,0.0,0.0,0.0,0.0,0.0,0.0,0.0,0.0,0.0,0.0,0.0,0.0,0.0,0.0,0.0,0.0,0.0,0.0,0.0,0.0,0.0,0.0,0.0,0.0,2.2112,2.2652,0.0,0.0,0.0,0.0,0.0,0.0,0.0,0.0,0.0,0.0,0.0,0.0,0.0,2.5777,2.5553,2.6094,2.6516,2.6793,2.736,2.7491,2.7267,2.8058,2.8283,2.8045,2.823,0.0,2.6898,2.6779,0.0,0.0,0.0,0.0,0.0,0.0,0.0,0.0,0.0,0.0,0.0,0.0,0.0,0.0,0.0,0.0,0.0,0.0,0.0,0.0,0.0,0.0,0.5973,0.5965,0.8638,1.1338,1.1684,0.9098,0.7445,1.1552,1.1967,1.2054,0.0,0.0,0.0,0.0,0.0,0.0,2.4432,2.8023,3.0131,2.9587,2.8646,2.7901,2.8092,2.6582,2.5697,2.4933,2.2116,2.1196,2.3363,1.6258,0.0,0.0,0.0,0.0,0.0,0.0,0.0,0.0,0.0,0.0,0.0,0.0,0.0,0.0,0.0,0.0,0.0,0.0,0.0,0.0,0.0,0.0,0.0,0.0,0.0,0.0,0.0,0.0,0.0,0.0,0.0,0.0,0.0,0.0,0.0,0.0,0.0,0.0,0.0,0.0,0.0,0.0,0.0,0.0,0.0,0.0,0.0,0.0,0.0,0.0,2.6555,2.6687,2.6661,2.703,2.7175,2.7109,2.6687,2.6661,2.6845,2.6133,0.0,0.0,0.0,0.0,0.0,0.0,0.0,0.0,0.0,0.0,0.0,0.0,0.0,0.0,0.0,0.0,0.0,0.0,0.0,0.0,0.0,0.0,0.5719,0.5674,0.6457,0.7595,1.1007,0.0,0.0,0.0,0.0,0.0,0.0,0.0,0.0,0.0,0.0,0.0,2.4298,2.7869,2.9952,2.9834,2.931,2.8654,2.8607,2.5083,2.2892,2.2825,2.0269,1.7779,0.0,0.0,0.0,0.0,0.0,0.0,0.0,0.0,0.0,0.0,0.0,0.0,0.0,0.0,0.0,0.0,0.0,0.0,0.0,0.0,0.0,0.0,0.0,0.0,0.0,0.0,0.0,0.0,0.0,0.0,0.0,0.0,0.0,0.0,0.0,0.0,0.0,0.0,0.0,0.0,0.0,0.0,0.0,0.0,0.0,0.0,0.0,0.0,0.0,0.0,0.0,0.0,0.0,0.0,0.0,0.0,0.0,0.0,2.5659,2.5303,0.0,0.0,0.0,0.0,0.0,0.0,0.0,0.0,0.0,0.0,0.0,0.0,0.0,0.0,0.0,0.0,0.0,0.0,0.0,0.0,0.0,0.0,0.0,0.0,0.0,0.0,0.0,0.0,0.0,0.0,0.0,0.0,0.0,0.0,0.0,0.0,0.0,0.0,0.0,0.0,1.7215,2.0741,2.2817,2.2643,2.2462,2.2153,2.2042,2.0091,1.8412,1.6986,1.3839,0.0,0.0,0.0,0.0,0.0,0.0,0.0,0.0,0.0,0.0,0.0,0.0,0.0,0.0,0.0,0.0,0.0,0.0,0.0,0.0,0.0,0.0,0.0,0.0,0.0,0.0,0.0,0.0,0.0,0.0,0.0,0.0,0.0,0.0,0.0,0.0,0.0,0.0,0.0,0.0,0.0,0.0,0.0,0.0,0.0,0.0,0.0,0.0,0.0,0.0,0.0,0.0,0.0,0.0,0.0,0.0,0.0,0.0,0.0,2.4762,2.4156,0.0,0.0,0.0,0.0,0.0,0.0,0.0,0.0,0.0,0.0,0.0,0.0,0.0,0.0,0.0,0.0,0.0,0.0,0.0,0.0,0.0,0.0,0.0,0.0,0.0,0.0,0.0,0.0,0.0,0.0,0.0,0.0,0.0,0.0,0.0,0.0,0.0,0.0,0.0,0.0,1.1268,1.4699,1.7088,1.614,1.6272,1.6307,1.6216,1.5598,1.3994,1.1018,0.7595,0.0,0.0,0.0,0.0,0.0,0.0,0.0,0.0,0.0,0.0,0.0,0.0,0.0,0.0,0.0,0.0,0.0,0.0,0.0,0.0,0.0,0.0,0.0,0.0,0.0,0.0,0.0,0.0,0.0,0.0,0.0,0.0,0.0,0.0,0.0,0.0,0.0,0.0,0.0,0.0,0.0,0.0,0.0,0.0,0.0,0.0,0.0,0.0,0.0,0.0,0.0,0.0,0.0,0.0,0.0,0.0,0.0,0.0,0.0,0.0,0.0,0.0,0.0,0.0,0.0,0.0,0.0,0.0,0.0,0.0,0.0,0.0,0.0,0.0,0.0,0.0,0.0,0.0,0.0,0.0,0.0,0.0,0.0,0.0,0.0,0.0,0.0,0.0,0.0,0.0,0.0,0.0,0.0,0.0,0.0,0.0,0.0,0.0,0.0,0.0,0.0,1.1965,1.5633,1.8269,1.8239,1.8287,1.8358,1.8501,1.4848,1.0931,0.7136,0.0,0.0,0.0,0.0,0.0,0.0,0.0,0.0,0.0,0.0,0.0,0.0,0.0,0.0,0.0,0.0,0.0,0.0,0.0,0.0,0.0,0.0,0.0,0.0,0.0,0.0,0.0,0.0,0.0,0.0,0.0,0.0,0.0,0.0,0.0,0.0,0.0,0.0,0.0,0.0,0.0,0.0,0.0,0.0,0.0,0.0,0.0,0.0,0.0,0.0,0.0,0.0,0.0,0.0,0.0,0.0,0.0,0.0,0.0,0.0,0.0,0.0,0.0,0.0,0.0,0.0,0.0,0.0,0.0,0.0,0.0,0.0,0.0,0.0,0.0,0.0,0.0,0.0,0.0,0.0,0.0,0.0,0.0,0.0,0.0,0.0,0.0,0.0,0.0,0.0,0.0,0.0,0.0,0.0,0.0,0.0,0.0,0.0,0.0,0.0,0.0,0.0,0.8402,0.9942,1.0787,1.0936,1.0955,1.097,1.1013,0.9487,0.7905,0.6287,0.0,0.0,0.0,0.0,0.0,0.0,0.0,0.0,0.0,0.0,0.0,0.0,0.0,0.0,0.0,0.0,0.0,0.0,0.0,0.0,0.0,0.0,0.0,0.0,0.0,0.0,0.0,0.0,0.0,0.0,0.0,0.0,0.0,0.0,0.0,0.0,0.0,0.0,0.0,0.0,0.0,0.0,0.0,0.0,0.0,0.0,0.0,0.0,0.0,0.0,0.0,0.0,0.0,0.0,0.0,0.0,0.0,0.0,0.0,0.0,0.0,0.0,0.0,0.0,0.0,0.0,0.0,0.0,0.0,0.0,0.0,0.0,0.0,0.0,0.0,0.0,0.0,0.0,0.0,0.0,0.0,0.0,0.0,0.0,0.0,0.0,0.0,0.0,0.0,0.0,0.0,0.0,0.0,0.0,0.0,0.0,0.0,0.0,0.0,0.0,0.0,0.0,0.5727,0.5456,0.5166,0.5217,0.5236,0.5245,0.5994,0.6018,0.5973,0.62,0.0,0.0,0.0,0.0,0.0,0.0,0.0,0.0,0.0,0.0,0.0,0.0,0.0,0.0,0.0,0.0,0.0,0.0,0.0,0.0,0.0,0.0,0.0,0.0,0.0,0.0,0.0,0.0,0.0,0.0,0.0,0.0,0.0,0.0,0.0,0.0,0.0,0.0,0.0,0.0,0.0,0.0,0.0,0.0,0.0,0.0,0.0,0.0,0.0,0.0,0.0,0.0,0.0,0.0,0.0,0.0,0.0,0.0,0.0,0.0,0.0,0.0,0.0,0.0,0.0,0.0,0.0,0.0,0.0,0.0,0.0,0.0,0.0,0.0,0.0,0.0,0.0,0.0,0.0,0.0,0.0,0.0,0.0,0.0,0.0,0.0,0.0,0.0,0.0,0.0,0.0,0.0,0.0,0.0,0.0,0.0,0.0,0.0,0.0,0.0,0.0,0.0,0.566,0.4295,0.2892,0.2919,0.2949,0.3707,0.5933,0.588,0.5825,0.0,0.0,0.0,0.0,0.0,0.0,0.0,0.0,0.0,0.0,0.0,0.0,0.0,0.0,0.0,0.0,0.0,0.0,0.0,0.0,0.0,0.0,0.0,0.0,0.0,0.0,0.0,0.0,0.0,0.0,0.0,0.0,0.0,0.0,0.0,0.0,0.0,0.0,0.0,0.0,0.0,0.0,0.0,0.0,0.0,0.0,0.0,0.0,0.0,0.0,0.0,0.0,0.0,0.0,0.0,0.0,0.0,0.0,0.0,0.0,0.0,0.0,0.0,0.0,0.0,0.0,0.0,0.0,0.0,0.0,0.0,0.0,0.0,0.0,0.0,0.0,0.0,0.0,0.0,0.0,0.0,0.0,0.0,0.0,0.0,0.0,0.0,0.0,0.0,0.0,0.0,0.0,0.0,0.0,0.0,0.0,0.0,0.0,0.0,0.0,0.0,0.0,0.0,0.3894,0.2147,0.1084,0.0,0.3278,0.401,0.2202,0.4365,0.5761,0.5705,0.0,0.0,0.0,0.0,0.0,0.0,0.0,0.0,0.0,0.0,0.0,0.0,0.0,0.0,0.0,0.0,0.0,0.0,0.0,0.0,0.0,0.0,0.0,0.0,0.0,0.0,0.0,0.0,0.0,0.0,0.0,0.0,0.0,0.0,0.0,0.0,0.0,0.0,0.0,0.0,0.0,0.0,0.0,0.0,0.0,0.0,0.0,0.0,0.0,0.0,0.0,0.0,0.0,0.0,0.0,0.0,0.0,0.0,0.0,0.0,0.0,0.0,0.0,0.0,0.0,0.0,0.0,0.0,0.0,0.0,0.0,0.0,0.0,0.0,0.0,0.0,0.0,0.0,0.0,0.0,0.0,0.0,0.0,0.0,0.0,0.0,0.0,0.0,0.0,0.0,0.0,0.0,0.0,0.0,0.0,0.0,0.0,0.0,0.0,0.0,0.0,0.0,0.0,0.1064,0.0,0.0,0.2164,0.2884,0.0361,0.2873,0.4988,0.5644,0.0,0.0,0.0,0.0,0.0,0.0,0.0,0.0,0.0,0.0,0.0,0.0,0.0,0.0,0.0,0.0,0.0,0.0,0.0,0.0,0.0,0.0,0.0,0.0,0.0,0.0,0.0,0.0,0.0,0.0,0.0,0.0,0.0,0.0,0.0,0.0,0.0,0.0,0.0,0.0,0.0,0.0,0.0,0.0,0.0,0.0,0.0,0.0,0.0,0.0,0.0,0.0,0.0,0.0,0.0,0.0,0.0,0.0,0.0,0.0,0.0,0.0,0.0,0.0,0.0,0.0,0.0,0.0,0.0,0.0,0.0,0.0,0.0,0.0,0.0,0.0,0.0,0.0,0.0,0.0,0.0,0.0,0.0,0.0,0.0,0.0,0.0,0.0,0.0,0.0,0.0,0.0,0.0,0.0,0.0,0.0,0.0,0.0,0.0,0.0,0.0,0.0,0.0,0.1049,0.0,0.0,0.0,0.0,0.0,0.1772,0.3527,0.5583,0.3835,0.0,0.0,0.0,0.0,0.0,0.0,0.0,0.0,0.0,0.0,0.0,0.0,0.0,0.0,0.0,0.0,0.0,0.0,0.0,0.0,0.0,0.0,0.0,0.0,0.0,0.0,0.0,0.0,0.0,0.0,0.0,0.0,0.0,0.0,0.0,0.0,0.0,0.0,0.0,0.0,0.0,0.0,0.0,0.0,0.0,0.0,0.0,0.0,0.0,0.0,0.0,0.0,0.0,0.0,0.0,0.0,0.0,0.0,0.0,0.0,0.0,0.0,0.0,0.0,0.0,0.0,0.0,0.0,0.0,0.0,0.0,0.0,0.0,0.0,0.0,0.0,0.0,0.0,0.0,0.0,0.0,0.0,0.0,0.0,0.0,0.0,0.0,0.0,0.0,0.0,0.0,0.0,0.0,0.0,0.0,0.0,0.0,0.0,0.0,0.0,0.0,0.0,0.1043,0.0,0.0,0.0,0.0,0.0,0.176,0.3488,0.5523,0.5175,0.0,0.0,0.0,0.0,0.0,0.0,0.0,0.0,0.0,0.0,0.0,0.0,0.0,0.0,0.0,0.0,0.0,0.0,0.0,0.0,0.0,0.0,0.0,0.0,0.0,0.0,0.0,0.0,0.0,0.0,0.0,0.0,0.0,0.0,0.0,0.0,0.0,0.0,0.0,0.0,0.0,0.0,0.0,0.0,0.0,0.0,0.0,0.0,0.0,0.0,0.0,0.0,0.0,0.0,0.0,0.0,0.0,0.0,0.0,0.0,0.0,0.0,0.0,0.0,0.0,0.0,0.0,0.0,0.0,0.0,0.0,0.0,0.0,0.0,0.0,0.0,0.0,0.0,0.0,0.0,0.0,0.0,0.0,0.0,0.0,0.0,0.0,0.0,0.0,0.0,0.0,0.0,0.0,0.0,0.0,0.0,0.0,0.0,0.0,0.0,0.0,0.0,0.2392,0.0692,0.0,0.0,0.0,0.0,0.2441,0.4494,0.5501,0.5448,0.0,0.0,0.0,0.0,0.0,0.0,0.0,0.0,0.0,0.0,0.0,0.0,0.0,0.0,0.0,0.0,0.0,0.0,0.0,0.0,0.0,0.0,0.0,0.0,0.0,0.0,0.0,0.0,0.0,0.0,0.0,0.0,0.0,0.0,0.0,0.0,0.0,0.0,0.0,0.0,0.0,0.0,0.0,0.0,0.0,0.0,0.0,0.0,0.0,0.0,0.0,0.0,0.0,0.0,0.0,0.0,0.0,0.0,0.0,0.0,0.0,0.0,0.0,0.0,0.0,0.0,0.0,0.0,0.0,0.0,0.0,0.0,0.0,0.0,0.0,0.0,0.0,0.0,0.0,0.0,0.0,0.0,0.0,0.0,0.0,0.0,0.0,0.0,0.0,0.0,0.0,0.0,0.0,0.0,0.0,0.0,0.0,0.0,0.0,0.0,0.0,0.0,0.0,0.2381,0.0695,0.0697,0.0698,0.0348,0.3454,0.5148,0.5472,0.0,0.0,0.0,0.0,0.0,0.0,0.0,0.0,0.0,0.0,0.0,0.0,0.0,0.0,0.0,0.0,0.0,0.0,0.0,0.0,0.0,0.0,0.0,0.0,0.0,0.0,0.0,0.0,0.0,0.0,0.0,0.0,0.0,0.0,0.0,0.0,0.0,0.0,0.0,0.0,0.0,0.0,0.0,0.0,0.0,0.0,0.0,0.0,0.0,0.0,0.0,0.0,0.0,0.0,0.0,0.0,0.0,0.0,0.0,0.0,0.0,0.0,0.0,0.0,0.0,0.0,0.0,0.0,0.0,0.0,0.0,0.0,0.0,0.0,0.0,0.0,0.0,0.0,0.0,0.0,0.0,0.0,0.0,0.0,0.0,0.0,0.0,0.0,0.0,0.0,0.0,0.0,0.0,0.0,0.0,0.0,0.0,0.0,0.0,0.0,0.0,0.0,0.0,0.0,0.0,0.2405,0.3819,0.4174,0.2413,0.2751,0.375,0.5356,0.0,0.0,0.0,0.0,0.0,0.0,0.0,0.0,0.0,0.0,0.0,0.0,0.0,0.0]}]]]